<?xml version="1.0" encoding="UTF-8" standalone="no" ?>
<gpx xmlns="http://www.topografix.com/GPX/1/1" xmlns:xsi="http://www.w3.org/2001/XMLSchema-instance" xsi:schemaLocation="http://www.topografix.com/GPX/1/1 http://www.topografix.com/GPX/1/1/gpx.xsd" version="1.1" creator="VisuGPX - https://www.visugpx.com">
  <metadata>
    <name>Gailspitze (Monte Colle) </name>
    <desc><![CDATA[St-Magdalena - Gailspitze (Monte Colle) ]]></desc>
  </metadata>
  <trk>
    <name><![CDATA[Gail_Spitze_2017-03-01]]></name>
    <trkseg>
      <trkpt lat="46.84136" lon="12.24831">
        <ele>1484.41</ele>
        <time>2017-03-01T08:23:21Z</time>
      </trkpt>
      <trkpt lat="46.84136" lon="12.24832">
        <ele>1484.41</ele>
        <time>2017-03-01T08:23:22Z</time>
      </trkpt>
      <trkpt lat="46.84136" lon="12.24832">
        <ele>1482.49</ele>
        <time>2017-03-01T08:23:27Z</time>
      </trkpt>
      <trkpt lat="46.84136" lon="12.24836">
        <ele>1482.01</ele>
        <time>2017-03-01T08:23:39Z</time>
      </trkpt>
      <trkpt lat="46.84133" lon="12.24835">
        <ele>1481.53</ele>
        <time>2017-03-01T08:23:50Z</time>
      </trkpt>
      <trkpt lat="46.84135" lon="12.24836">
        <ele>1481.05</ele>
        <time>2017-03-01T08:24:00Z</time>
      </trkpt>
      <trkpt lat="46.84135" lon="12.24835">
        <ele>1480.57</ele>
        <time>2017-03-01T08:24:30Z</time>
      </trkpt>
      <trkpt lat="46.84135" lon="12.24836">
        <ele>1480.09</ele>
        <time>2017-03-01T08:24:55Z</time>
      </trkpt>
      <trkpt lat="46.84136" lon="12.24835">
        <ele>1479.61</ele>
        <time>2017-03-01T08:25:31Z</time>
      </trkpt>
      <trkpt lat="46.84134" lon="12.24836">
        <ele>1479.61</ele>
        <time>2017-03-01T08:25:59Z</time>
      </trkpt>
      <trkpt lat="46.84135" lon="12.24837">
        <ele>1480.09</ele>
        <time>2017-03-01T08:26:18Z</time>
      </trkpt>
      <trkpt lat="46.84137" lon="12.24844">
        <ele>1480.09</ele>
        <time>2017-03-01T08:26:33Z</time>
      </trkpt>
      <trkpt lat="46.84139" lon="12.24851">
        <ele>1479.13</ele>
        <time>2017-03-01T08:26:45Z</time>
      </trkpt>
      <trkpt lat="46.84138" lon="12.24851">
        <ele>1479.13</ele>
        <time>2017-03-01T08:27:03Z</time>
      </trkpt>
      <trkpt lat="46.84139" lon="12.24849">
        <ele>1479.13</ele>
        <time>2017-03-01T08:27:28Z</time>
      </trkpt>
      <trkpt lat="46.84138" lon="12.24847">
        <ele>1478.65</ele>
        <time>2017-03-01T08:27:46Z</time>
      </trkpt>
      <trkpt lat="46.84138" lon="12.24847">
        <ele>1478.65</ele>
        <time>2017-03-01T08:28:04Z</time>
      </trkpt>
      <trkpt lat="46.84139" lon="12.24849">
        <ele>1478.65</ele>
        <time>2017-03-01T08:28:22Z</time>
      </trkpt>
      <trkpt lat="46.84138" lon="12.24847">
        <ele>1478.65</ele>
        <time>2017-03-01T08:28:38Z</time>
      </trkpt>
      <trkpt lat="46.84138" lon="12.24849">
        <ele>1478.16</ele>
        <time>2017-03-01T08:28:56Z</time>
      </trkpt>
      <trkpt lat="46.84138" lon="12.24853">
        <ele>1478.16</ele>
        <time>2017-03-01T08:29:09Z</time>
      </trkpt>
      <trkpt lat="46.84137" lon="12.2486">
        <ele>1478.65</ele>
        <time>2017-03-01T08:29:19Z</time>
      </trkpt>
      <trkpt lat="46.84138" lon="12.24867">
        <ele>1479.13</ele>
        <time>2017-03-01T08:29:32Z</time>
      </trkpt>
      <trkpt lat="46.84137" lon="12.24872">
        <ele>1479.61</ele>
        <time>2017-03-01T08:29:48Z</time>
      </trkpt>
      <trkpt lat="46.84135" lon="12.24879">
        <ele>1480.09</ele>
        <time>2017-03-01T08:30:02Z</time>
      </trkpt>
      <trkpt lat="46.84131" lon="12.24886">
        <ele>1480.57</ele>
        <time>2017-03-01T08:30:09Z</time>
      </trkpt>
      <trkpt lat="46.84131" lon="12.24891">
        <ele>1481.05</ele>
        <time>2017-03-01T08:30:20Z</time>
      </trkpt>
      <trkpt lat="46.84129" lon="12.249">
        <ele>1481.53</ele>
        <time>2017-03-01T08:30:29Z</time>
      </trkpt>
      <trkpt lat="46.84129" lon="12.24917">
        <ele>1482.97</ele>
        <time>2017-03-01T08:30:44Z</time>
      </trkpt>
      <trkpt lat="46.84128" lon="12.24932">
        <ele>1484.89</ele>
        <time>2017-03-01T08:30:58Z</time>
      </trkpt>
      <trkpt lat="46.84125" lon="12.24951">
        <ele>1485.37</ele>
        <time>2017-03-01T08:31:11Z</time>
      </trkpt>
      <trkpt lat="46.8412" lon="12.2496">
        <ele>1486.34</ele>
        <time>2017-03-01T08:31:22Z</time>
      </trkpt>
      <trkpt lat="46.84117" lon="12.24962">
        <ele>1486.82</ele>
        <time>2017-03-01T08:31:26Z</time>
      </trkpt>
      <trkpt lat="46.84103" lon="12.24969">
        <ele>1487.3</ele>
        <time>2017-03-01T08:31:41Z</time>
      </trkpt>
      <trkpt lat="46.84092" lon="12.24979">
        <ele>1487.78</ele>
        <time>2017-03-01T08:31:54Z</time>
      </trkpt>
      <trkpt lat="46.8408" lon="12.2499">
        <ele>1488.74</ele>
        <time>2017-03-01T08:32:10Z</time>
      </trkpt>
      <trkpt lat="46.8407" lon="12.24993">
        <ele>1489.7</ele>
        <time>2017-03-01T08:32:22Z</time>
      </trkpt>
      <trkpt lat="46.84064" lon="12.2499">
        <ele>1490.18</ele>
        <time>2017-03-01T08:32:29Z</time>
      </trkpt>
      <trkpt lat="46.84059" lon="12.24989">
        <ele>1490.18</ele>
        <time>2017-03-01T08:32:34Z</time>
      </trkpt>
      <trkpt lat="46.84056" lon="12.2499">
        <ele>1490.18</ele>
        <time>2017-03-01T08:32:37Z</time>
      </trkpt>
      <trkpt lat="46.8405" lon="12.25005">
        <ele>1490.66</ele>
        <time>2017-03-01T08:32:50Z</time>
      </trkpt>
      <trkpt lat="46.84048" lon="12.25013">
        <ele>1491.14</ele>
        <time>2017-03-01T08:32:56Z</time>
      </trkpt>
      <trkpt lat="46.84049" lon="12.25017">
        <ele>1491.62</ele>
        <time>2017-03-01T08:32:59Z</time>
      </trkpt>
      <trkpt lat="46.84044" lon="12.25034">
        <ele>1493.55</ele>
        <time>2017-03-01T08:33:13Z</time>
      </trkpt>
      <trkpt lat="46.84038" lon="12.25049">
        <ele>1494.99</ele>
        <time>2017-03-01T08:33:27Z</time>
      </trkpt>
      <trkpt lat="46.84034" lon="12.25058">
        <ele>1495.47</ele>
        <time>2017-03-01T08:33:41Z</time>
      </trkpt>
      <trkpt lat="46.84025" lon="12.25074">
        <ele>1497.39</ele>
        <time>2017-03-01T08:33:56Z</time>
      </trkpt>
      <trkpt lat="46.8402" lon="12.25086">
        <ele>1498.35</ele>
        <time>2017-03-01T08:34:07Z</time>
      </trkpt>
      <trkpt lat="46.84013" lon="12.25101">
        <ele>1499.79</ele>
        <time>2017-03-01T08:34:20Z</time>
      </trkpt>
      <trkpt lat="46.84006" lon="12.25116">
        <ele>1501.24</ele>
        <time>2017-03-01T08:34:34Z</time>
      </trkpt>
      <trkpt lat="46.84" lon="12.2513">
        <ele>1502.2</ele>
        <time>2017-03-01T08:34:47Z</time>
      </trkpt>
      <trkpt lat="46.83998" lon="12.25134">
        <ele>1502.68</ele>
        <time>2017-03-01T08:35:03Z</time>
      </trkpt>
      <trkpt lat="46.83997" lon="12.25137">
        <ele>1502.68</ele>
        <time>2017-03-01T08:35:05Z</time>
      </trkpt>
      <trkpt lat="46.83989" lon="12.25154">
        <ele>1504.6</ele>
        <time>2017-03-01T08:35:21Z</time>
      </trkpt>
      <trkpt lat="46.83981" lon="12.25171">
        <ele>1506.52</ele>
        <time>2017-03-01T08:35:34Z</time>
      </trkpt>
      <trkpt lat="46.83975" lon="12.25185">
        <ele>1507.48</ele>
        <time>2017-03-01T08:35:48Z</time>
      </trkpt>
      <trkpt lat="46.8397" lon="12.25198">
        <ele>1509.41</ele>
        <time>2017-03-01T08:36:04Z</time>
      </trkpt>
      <trkpt lat="46.83965" lon="12.25207">
        <ele>1510.85</ele>
        <time>2017-03-01T08:36:18Z</time>
      </trkpt>
      <trkpt lat="46.83961" lon="12.25216">
        <ele>1511.33</ele>
        <time>2017-03-01T08:36:31Z</time>
      </trkpt>
      <trkpt lat="46.83954" lon="12.2523">
        <ele>1512.77</ele>
        <time>2017-03-01T08:36:45Z</time>
      </trkpt>
      <trkpt lat="46.83947" lon="12.25245">
        <ele>1513.73</ele>
        <time>2017-03-01T08:37:00Z</time>
      </trkpt>
      <trkpt lat="46.83941" lon="12.25259">
        <ele>1515.18</ele>
        <time>2017-03-01T08:37:14Z</time>
      </trkpt>
      <trkpt lat="46.83935" lon="12.25273">
        <ele>1516.62</ele>
        <time>2017-03-01T08:37:30Z</time>
      </trkpt>
      <trkpt lat="46.83928" lon="12.25287">
        <ele>1518.06</ele>
        <time>2017-03-01T08:37:46Z</time>
      </trkpt>
      <trkpt lat="46.83924" lon="12.25296">
        <ele>1518.54</ele>
        <time>2017-03-01T08:37:57Z</time>
      </trkpt>
      <trkpt lat="46.83923" lon="12.25298">
        <ele>1519.02</ele>
        <time>2017-03-01T08:37:59Z</time>
      </trkpt>
      <trkpt lat="46.83918" lon="12.25311">
        <ele>1519.5</ele>
        <time>2017-03-01T08:38:12Z</time>
      </trkpt>
      <trkpt lat="46.83912" lon="12.25322">
        <ele>1520.46</ele>
        <time>2017-03-01T08:38:25Z</time>
      </trkpt>
      <trkpt lat="46.83906" lon="12.25337">
        <ele>1521.42</ele>
        <time>2017-03-01T08:38:41Z</time>
      </trkpt>
      <trkpt lat="46.839" lon="12.2535">
        <ele>1522.39</ele>
        <time>2017-03-01T08:38:54Z</time>
      </trkpt>
      <trkpt lat="46.83893" lon="12.25364">
        <ele>1523.35</ele>
        <time>2017-03-01T08:39:09Z</time>
      </trkpt>
      <trkpt lat="46.83886" lon="12.25376">
        <ele>1525.27</ele>
        <time>2017-03-01T08:39:25Z</time>
      </trkpt>
      <trkpt lat="46.83879" lon="12.25389">
        <ele>1526.23</ele>
        <time>2017-03-01T08:39:40Z</time>
      </trkpt>
      <trkpt lat="46.83878" lon="12.25398">
        <ele>1527.19</ele>
        <time>2017-03-01T08:39:53Z</time>
      </trkpt>
      <trkpt lat="46.83874" lon="12.25399">
        <ele>1527.19</ele>
        <time>2017-03-01T08:40:08Z</time>
      </trkpt>
      <trkpt lat="46.8387" lon="12.25414">
        <ele>1529.11</ele>
        <time>2017-03-01T08:40:20Z</time>
      </trkpt>
      <trkpt lat="46.83865" lon="12.25419">
        <ele>1529.59</ele>
        <time>2017-03-01T08:40:27Z</time>
      </trkpt>
      <trkpt lat="46.83865" lon="12.25429">
        <ele>1530.08</ele>
        <time>2017-03-01T08:40:34Z</time>
      </trkpt>
      <trkpt lat="46.83862" lon="12.2544">
        <ele>1531.52</ele>
        <time>2017-03-01T08:40:47Z</time>
      </trkpt>
      <trkpt lat="46.8386" lon="12.25449">
        <ele>1532</ele>
        <time>2017-03-01T08:40:59Z</time>
      </trkpt>
      <trkpt lat="46.83861" lon="12.2546">
        <ele>1534.4</ele>
        <time>2017-03-01T08:41:13Z</time>
      </trkpt>
      <trkpt lat="46.83857" lon="12.25461">
        <ele>1534.4</ele>
        <time>2017-03-01T08:41:29Z</time>
      </trkpt>
      <trkpt lat="46.83857" lon="12.25463">
        <ele>1534.88</ele>
        <time>2017-03-01T08:41:45Z</time>
      </trkpt>
      <trkpt lat="46.83855" lon="12.25464">
        <ele>1534.88</ele>
        <time>2017-03-01T08:42:07Z</time>
      </trkpt>
      <trkpt lat="46.83848" lon="12.25469">
        <ele>1535.36</ele>
        <time>2017-03-01T08:42:16Z</time>
      </trkpt>
      <trkpt lat="46.8384" lon="12.2548">
        <ele>1536.32</ele>
        <time>2017-03-01T08:42:31Z</time>
      </trkpt>
      <trkpt lat="46.83834" lon="12.25488">
        <ele>1537.29</ele>
        <time>2017-03-01T08:42:45Z</time>
      </trkpt>
      <trkpt lat="46.83827" lon="12.25494">
        <ele>1537.77</ele>
        <time>2017-03-01T08:43:02Z</time>
      </trkpt>
      <trkpt lat="46.83824" lon="12.25505">
        <ele>1538.73</ele>
        <time>2017-03-01T08:43:18Z</time>
      </trkpt>
      <trkpt lat="46.83817" lon="12.2552">
        <ele>1539.21</ele>
        <time>2017-03-01T08:43:32Z</time>
      </trkpt>
      <trkpt lat="46.83811" lon="12.25536">
        <ele>1539.69</ele>
        <time>2017-03-01T08:43:46Z</time>
      </trkpt>
      <trkpt lat="46.83805" lon="12.25553">
        <ele>1541.61</ele>
        <time>2017-03-01T08:44:01Z</time>
      </trkpt>
      <trkpt lat="46.83801" lon="12.25568">
        <ele>1543.05</ele>
        <time>2017-03-01T08:44:14Z</time>
      </trkpt>
      <trkpt lat="46.83796" lon="12.25582">
        <ele>1544.01</ele>
        <time>2017-03-01T08:44:27Z</time>
      </trkpt>
      <trkpt lat="46.83796" lon="12.25588">
        <ele>1544.5</ele>
        <time>2017-03-01T08:44:38Z</time>
      </trkpt>
      <trkpt lat="46.83796" lon="12.25588">
        <ele>1544.01</ele>
        <time>2017-03-01T08:44:48Z</time>
      </trkpt>
      <trkpt lat="46.83794" lon="12.2559">
        <ele>1543.53</ele>
        <time>2017-03-01T08:45:19Z</time>
      </trkpt>
      <trkpt lat="46.83795" lon="12.25589">
        <ele>1543.05</ele>
        <time>2017-03-01T08:45:46Z</time>
      </trkpt>
      <trkpt lat="46.83796" lon="12.25584">
        <ele>1544.01</ele>
        <time>2017-03-01T08:46:00Z</time>
      </trkpt>
      <trkpt lat="46.83795" lon="12.25587">
        <ele>1544.01</ele>
        <time>2017-03-01T08:46:16Z</time>
      </trkpt>
      <trkpt lat="46.83795" lon="12.25591">
        <ele>1544.01</ele>
        <time>2017-03-01T08:46:31Z</time>
      </trkpt>
      <trkpt lat="46.83793" lon="12.25593">
        <ele>1544.5</ele>
        <time>2017-03-01T08:46:34Z</time>
      </trkpt>
      <trkpt lat="46.83783" lon="12.25608">
        <ele>1545.46</ele>
        <time>2017-03-01T08:46:48Z</time>
      </trkpt>
      <trkpt lat="46.8378" lon="12.25616">
        <ele>1546.42</ele>
        <time>2017-03-01T08:46:55Z</time>
      </trkpt>
      <trkpt lat="46.8378" lon="12.25619">
        <ele>1546.42</ele>
        <time>2017-03-01T08:46:57Z</time>
      </trkpt>
      <trkpt lat="46.83777" lon="12.25623">
        <ele>1546.9</ele>
        <time>2017-03-01T08:47:01Z</time>
      </trkpt>
      <trkpt lat="46.83774" lon="12.25626">
        <ele>1546.9</ele>
        <time>2017-03-01T08:47:05Z</time>
      </trkpt>
      <trkpt lat="46.8377" lon="12.25631">
        <ele>1547.38</ele>
        <time>2017-03-01T08:47:18Z</time>
      </trkpt>
      <trkpt lat="46.83767" lon="12.25625">
        <ele>1547.86</ele>
        <time>2017-03-01T08:47:50Z</time>
      </trkpt>
      <trkpt lat="46.83762" lon="12.25641">
        <ele>1548.82</ele>
        <time>2017-03-01T08:48:03Z</time>
      </trkpt>
      <trkpt lat="46.83756" lon="12.25662">
        <ele>1550.26</ele>
        <time>2017-03-01T08:48:17Z</time>
      </trkpt>
      <trkpt lat="46.83751" lon="12.25675">
        <ele>1551.22</ele>
        <time>2017-03-01T08:48:28Z</time>
      </trkpt>
      <trkpt lat="46.83748" lon="12.25685">
        <ele>1551.22</ele>
        <time>2017-03-01T08:48:35Z</time>
      </trkpt>
      <trkpt lat="46.83747" lon="12.25691">
        <ele>1551.71</ele>
        <time>2017-03-01T08:48:39Z</time>
      </trkpt>
      <trkpt lat="46.83746" lon="12.25701">
        <ele>1552.67</ele>
        <time>2017-03-01T08:48:46Z</time>
      </trkpt>
      <trkpt lat="46.83743" lon="12.25714">
        <ele>1554.11</ele>
        <time>2017-03-01T08:48:59Z</time>
      </trkpt>
      <trkpt lat="46.8374" lon="12.25721">
        <ele>1555.55</ele>
        <time>2017-03-01T08:49:12Z</time>
      </trkpt>
      <trkpt lat="46.8374" lon="12.25724">
        <ele>1555.55</ele>
        <time>2017-03-01T08:49:32Z</time>
      </trkpt>
      <trkpt lat="46.83739" lon="12.25724">
        <ele>1556.51</ele>
        <time>2017-03-01T08:49:48Z</time>
      </trkpt>
      <trkpt lat="46.83734" lon="12.25735">
        <ele>1557.95</ele>
        <time>2017-03-01T08:50:03Z</time>
      </trkpt>
      <trkpt lat="46.83732" lon="12.2574">
        <ele>1558.43</ele>
        <time>2017-03-01T08:50:09Z</time>
      </trkpt>
      <trkpt lat="46.83728" lon="12.25752">
        <ele>1560.84</ele>
        <time>2017-03-01T08:50:25Z</time>
      </trkpt>
      <trkpt lat="46.83725" lon="12.25756">
        <ele>1562.28</ele>
        <time>2017-03-01T08:50:32Z</time>
      </trkpt>
      <trkpt lat="46.8372" lon="12.25773">
        <ele>1564.2</ele>
        <time>2017-03-01T08:50:49Z</time>
      </trkpt>
      <trkpt lat="46.83718" lon="12.25785">
        <ele>1565.16</ele>
        <time>2017-03-01T08:51:02Z</time>
      </trkpt>
      <trkpt lat="46.83717" lon="12.25794">
        <ele>1565.16</ele>
        <time>2017-03-01T08:51:18Z</time>
      </trkpt>
      <trkpt lat="46.83711" lon="12.25797">
        <ele>1566.12</ele>
        <time>2017-03-01T08:51:30Z</time>
      </trkpt>
      <trkpt lat="46.83706" lon="12.25809">
        <ele>1568.05</ele>
        <time>2017-03-01T08:51:47Z</time>
      </trkpt>
      <trkpt lat="46.83702" lon="12.25824">
        <ele>1569.49</ele>
        <time>2017-03-01T08:52:02Z</time>
      </trkpt>
      <trkpt lat="46.83697" lon="12.25837">
        <ele>1570.45</ele>
        <time>2017-03-01T08:52:17Z</time>
      </trkpt>
      <trkpt lat="46.83693" lon="12.25856">
        <ele>1572.37</ele>
        <time>2017-03-01T08:52:34Z</time>
      </trkpt>
      <trkpt lat="46.83691" lon="12.25866">
        <ele>1573.82</ele>
        <time>2017-03-01T08:52:49Z</time>
      </trkpt>
      <trkpt lat="46.83688" lon="12.25882">
        <ele>1575.74</ele>
        <time>2017-03-01T08:53:06Z</time>
      </trkpt>
      <trkpt lat="46.83688" lon="12.25894">
        <ele>1576.7</ele>
        <time>2017-03-01T08:53:19Z</time>
      </trkpt>
      <trkpt lat="46.83686" lon="12.2591">
        <ele>1578.14</ele>
        <time>2017-03-01T08:53:33Z</time>
      </trkpt>
      <trkpt lat="46.83684" lon="12.25916">
        <ele>1578.62</ele>
        <time>2017-03-01T08:53:41Z</time>
      </trkpt>
      <trkpt lat="46.83681" lon="12.25923">
        <ele>1578.62</ele>
        <time>2017-03-01T08:53:47Z</time>
      </trkpt>
      <trkpt lat="46.83676" lon="12.25941">
        <ele>1579.58</ele>
        <time>2017-03-01T08:54:02Z</time>
      </trkpt>
      <trkpt lat="46.83671" lon="12.25952">
        <ele>1580.54</ele>
        <time>2017-03-01T08:54:16Z</time>
      </trkpt>
      <trkpt lat="46.83666" lon="12.25967">
        <ele>1581.51</ele>
        <time>2017-03-01T08:54:30Z</time>
      </trkpt>
      <trkpt lat="46.83663" lon="12.25973">
        <ele>1582.47</ele>
        <time>2017-03-01T08:54:36Z</time>
      </trkpt>
      <trkpt lat="46.8366" lon="12.25985">
        <ele>1583.43</ele>
        <time>2017-03-01T08:54:47Z</time>
      </trkpt>
      <trkpt lat="46.83654" lon="12.25997">
        <ele>1584.87</ele>
        <time>2017-03-01T08:54:59Z</time>
      </trkpt>
      <trkpt lat="46.83649" lon="12.26012">
        <ele>1585.83</ele>
        <time>2017-03-01T08:55:13Z</time>
      </trkpt>
      <trkpt lat="46.83644" lon="12.26028">
        <ele>1587.75</ele>
        <time>2017-03-01T08:55:29Z</time>
      </trkpt>
      <trkpt lat="46.83639" lon="12.26041">
        <ele>1588.72</ele>
        <time>2017-03-01T08:55:44Z</time>
      </trkpt>
      <trkpt lat="46.83634" lon="12.26055">
        <ele>1590.16</ele>
        <time>2017-03-01T08:56:00Z</time>
      </trkpt>
      <trkpt lat="46.8363" lon="12.26068">
        <ele>1591.6</ele>
        <time>2017-03-01T08:56:15Z</time>
      </trkpt>
      <trkpt lat="46.83626" lon="12.2608">
        <ele>1593.04</ele>
        <time>2017-03-01T08:56:28Z</time>
      </trkpt>
      <trkpt lat="46.83623" lon="12.26091">
        <ele>1594</ele>
        <time>2017-03-01T08:56:41Z</time>
      </trkpt>
      <trkpt lat="46.83618" lon="12.26101">
        <ele>1595.45</ele>
        <time>2017-03-01T08:56:56Z</time>
      </trkpt>
      <trkpt lat="46.83612" lon="12.2611">
        <ele>1596.89</ele>
        <time>2017-03-01T08:57:10Z</time>
      </trkpt>
      <trkpt lat="46.83607" lon="12.26119">
        <ele>1597.85</ele>
        <time>2017-03-01T08:57:22Z</time>
      </trkpt>
      <trkpt lat="46.83598" lon="12.26127">
        <ele>1599.77</ele>
        <time>2017-03-01T08:57:38Z</time>
      </trkpt>
      <trkpt lat="46.8359" lon="12.26133">
        <ele>1601.21</ele>
        <time>2017-03-01T08:57:53Z</time>
      </trkpt>
      <trkpt lat="46.8358" lon="12.26141">
        <ele>1602.66</ele>
        <time>2017-03-01T08:58:07Z</time>
      </trkpt>
      <trkpt lat="46.83571" lon="12.26148">
        <ele>1604.1</ele>
        <time>2017-03-01T08:58:23Z</time>
      </trkpt>
      <trkpt lat="46.83564" lon="12.26156">
        <ele>1605.06</ele>
        <time>2017-03-01T08:58:38Z</time>
      </trkpt>
      <trkpt lat="46.83559" lon="12.26166">
        <ele>1606.02</ele>
        <time>2017-03-01T08:58:52Z</time>
      </trkpt>
      <trkpt lat="46.83554" lon="12.26176">
        <ele>1607.46</ele>
        <time>2017-03-01T08:59:06Z</time>
      </trkpt>
      <trkpt lat="46.83546" lon="12.26187">
        <ele>1608.9</ele>
        <time>2017-03-01T08:59:22Z</time>
      </trkpt>
      <trkpt lat="46.83543" lon="12.26197">
        <ele>1609.86</ele>
        <time>2017-03-01T08:59:35Z</time>
      </trkpt>
      <trkpt lat="46.8354" lon="12.26205">
        <ele>1610.83</ele>
        <time>2017-03-01T08:59:46Z</time>
      </trkpt>
      <trkpt lat="46.83535" lon="12.26218">
        <ele>1612.27</ele>
        <time>2017-03-01T08:59:59Z</time>
      </trkpt>
      <trkpt lat="46.83532" lon="12.26228">
        <ele>1613.23</ele>
        <time>2017-03-01T09:00:11Z</time>
      </trkpt>
      <trkpt lat="46.83527" lon="12.26239">
        <ele>1615.15</ele>
        <time>2017-03-01T09:00:27Z</time>
      </trkpt>
      <trkpt lat="46.83526" lon="12.26245">
        <ele>1615.63</ele>
        <time>2017-03-01T09:00:32Z</time>
      </trkpt>
      <trkpt lat="46.83521" lon="12.26257">
        <ele>1617.07</ele>
        <time>2017-03-01T09:00:46Z</time>
      </trkpt>
      <trkpt lat="46.83515" lon="12.2627">
        <ele>1618.52</ele>
        <time>2017-03-01T09:01:01Z</time>
      </trkpt>
      <trkpt lat="46.83512" lon="12.26276">
        <ele>1619</ele>
        <time>2017-03-01T09:01:08Z</time>
      </trkpt>
      <trkpt lat="46.83506" lon="12.26289">
        <ele>1620.92</ele>
        <time>2017-03-01T09:01:24Z</time>
      </trkpt>
      <trkpt lat="46.83501" lon="12.263">
        <ele>1622.36</ele>
        <time>2017-03-01T09:01:39Z</time>
      </trkpt>
      <trkpt lat="46.83495" lon="12.26311">
        <ele>1624.28</ele>
        <time>2017-03-01T09:01:54Z</time>
      </trkpt>
      <trkpt lat="46.8349" lon="12.26322">
        <ele>1625.73</ele>
        <time>2017-03-01T09:02:07Z</time>
      </trkpt>
      <trkpt lat="46.83485" lon="12.26331">
        <ele>1627.17</ele>
        <time>2017-03-01T09:02:19Z</time>
      </trkpt>
      <trkpt lat="46.8348" lon="12.26343">
        <ele>1628.61</ele>
        <time>2017-03-01T09:02:33Z</time>
      </trkpt>
      <trkpt lat="46.83476" lon="12.26354">
        <ele>1629.57</ele>
        <time>2017-03-01T09:02:46Z</time>
      </trkpt>
      <trkpt lat="46.8347" lon="12.26367">
        <ele>1631.49</ele>
        <time>2017-03-01T09:03:01Z</time>
      </trkpt>
      <trkpt lat="46.83463" lon="12.26378">
        <ele>1632.94</ele>
        <time>2017-03-01T09:03:15Z</time>
      </trkpt>
      <trkpt lat="46.83462" lon="12.26379">
        <ele>1632.94</ele>
        <time>2017-03-01T09:03:17Z</time>
      </trkpt>
      <trkpt lat="46.83453" lon="12.26389">
        <ele>1634.86</ele>
        <time>2017-03-01T09:03:33Z</time>
      </trkpt>
      <trkpt lat="46.83446" lon="12.26399">
        <ele>1636.3</ele>
        <time>2017-03-01T09:03:48Z</time>
      </trkpt>
      <trkpt lat="46.83439" lon="12.26412">
        <ele>1638.22</ele>
        <time>2017-03-01T09:04:03Z</time>
      </trkpt>
      <trkpt lat="46.83434" lon="12.26427">
        <ele>1640.15</ele>
        <time>2017-03-01T09:04:17Z</time>
      </trkpt>
      <trkpt lat="46.8343" lon="12.26439">
        <ele>1642.07</ele>
        <time>2017-03-01T09:04:31Z</time>
      </trkpt>
      <trkpt lat="46.83425" lon="12.26452">
        <ele>1643.51</ele>
        <time>2017-03-01T09:04:45Z</time>
      </trkpt>
      <trkpt lat="46.83419" lon="12.26464">
        <ele>1644.95</ele>
        <time>2017-03-01T09:04:59Z</time>
      </trkpt>
      <trkpt lat="46.83416" lon="12.26477">
        <ele>1646.88</ele>
        <time>2017-03-01T09:05:14Z</time>
      </trkpt>
      <trkpt lat="46.83413" lon="12.26489">
        <ele>1647.84</ele>
        <time>2017-03-01T09:05:27Z</time>
      </trkpt>
      <trkpt lat="46.83411" lon="12.26499">
        <ele>1648.8</ele>
        <time>2017-03-01T09:05:40Z</time>
      </trkpt>
      <trkpt lat="46.83409" lon="12.26509">
        <ele>1649.76</ele>
        <time>2017-03-01T09:05:52Z</time>
      </trkpt>
      <trkpt lat="46.83405" lon="12.26523">
        <ele>1651.68</ele>
        <time>2017-03-01T09:06:08Z</time>
      </trkpt>
      <trkpt lat="46.83405" lon="12.26531">
        <ele>1653.12</ele>
        <time>2017-03-01T09:06:19Z</time>
      </trkpt>
      <trkpt lat="46.83403" lon="12.26545">
        <ele>1654.57</ele>
        <time>2017-03-01T09:06:34Z</time>
      </trkpt>
      <trkpt lat="46.83406" lon="12.26561">
        <ele>1655.53</ele>
        <time>2017-03-01T09:06:48Z</time>
      </trkpt>
      <trkpt lat="46.83405" lon="12.26575">
        <ele>1656.97</ele>
        <time>2017-03-01T09:07:06Z</time>
      </trkpt>
      <trkpt lat="46.83406" lon="12.26593">
        <ele>1658.89</ele>
        <time>2017-03-01T09:07:24Z</time>
      </trkpt>
      <trkpt lat="46.83408" lon="12.26606">
        <ele>1660.33</ele>
        <time>2017-03-01T09:07:40Z</time>
      </trkpt>
      <trkpt lat="46.83408" lon="12.26619">
        <ele>1662.26</ele>
        <time>2017-03-01T09:07:56Z</time>
      </trkpt>
      <trkpt lat="46.83407" lon="12.26632">
        <ele>1664.18</ele>
        <time>2017-03-01T09:08:14Z</time>
      </trkpt>
      <trkpt lat="46.83407" lon="12.26643">
        <ele>1666.58</ele>
        <time>2017-03-01T09:08:31Z</time>
      </trkpt>
      <trkpt lat="46.83407" lon="12.26655">
        <ele>1668.51</ele>
        <time>2017-03-01T09:08:45Z</time>
      </trkpt>
      <trkpt lat="46.83409" lon="12.26667">
        <ele>1668.99</ele>
        <time>2017-03-01T09:08:58Z</time>
      </trkpt>
      <trkpt lat="46.8341" lon="12.26679">
        <ele>1670.43</ele>
        <time>2017-03-01T09:09:12Z</time>
      </trkpt>
      <trkpt lat="46.83412" lon="12.26686">
        <ele>1670.91</ele>
        <time>2017-03-01T09:09:28Z</time>
      </trkpt>
      <trkpt lat="46.83406" lon="12.26693">
        <ele>1670.91</ele>
        <time>2017-03-01T09:09:47Z</time>
      </trkpt>
      <trkpt lat="46.83402" lon="12.26693">
        <ele>1671.39</ele>
        <time>2017-03-01T09:10:02Z</time>
      </trkpt>
      <trkpt lat="46.83397" lon="12.267">
        <ele>1671.87</ele>
        <time>2017-03-01T09:10:11Z</time>
      </trkpt>
      <trkpt lat="46.83387" lon="12.26711">
        <ele>1673.31</ele>
        <time>2017-03-01T09:10:25Z</time>
      </trkpt>
      <trkpt lat="46.83371" lon="12.26713">
        <ele>1673.31</ele>
        <time>2017-03-01T09:10:39Z</time>
      </trkpt>
      <trkpt lat="46.83362" lon="12.26712">
        <ele>1673.79</ele>
        <time>2017-03-01T09:10:52Z</time>
      </trkpt>
      <trkpt lat="46.83353" lon="12.26707">
        <ele>1674.75</ele>
        <time>2017-03-01T09:11:06Z</time>
      </trkpt>
      <trkpt lat="46.83346" lon="12.267">
        <ele>1675.23</ele>
        <time>2017-03-01T09:11:14Z</time>
      </trkpt>
      <trkpt lat="46.8334" lon="12.26688">
        <ele>1677.16</ele>
        <time>2017-03-01T09:11:29Z</time>
      </trkpt>
      <trkpt lat="46.83337" lon="12.26682">
        <ele>1678.6</ele>
        <time>2017-03-01T09:11:43Z</time>
      </trkpt>
      <trkpt lat="46.83333" lon="12.26666">
        <ele>1681</ele>
        <time>2017-03-01T09:12:00Z</time>
      </trkpt>
      <trkpt lat="46.83334" lon="12.26652">
        <ele>1682.44</ele>
        <time>2017-03-01T09:12:11Z</time>
      </trkpt>
      <trkpt lat="46.83333" lon="12.2664">
        <ele>1684.37</ele>
        <time>2017-03-01T09:12:26Z</time>
      </trkpt>
      <trkpt lat="46.83333" lon="12.26635">
        <ele>1684.85</ele>
        <time>2017-03-01T09:12:30Z</time>
      </trkpt>
      <trkpt lat="46.83333" lon="12.2662">
        <ele>1686.77</ele>
        <time>2017-03-01T09:12:45Z</time>
      </trkpt>
      <trkpt lat="46.83328" lon="12.26605">
        <ele>1688.69</ele>
        <time>2017-03-01T09:13:02Z</time>
      </trkpt>
      <trkpt lat="46.83325" lon="12.26592">
        <ele>1690.14</ele>
        <time>2017-03-01T09:13:19Z</time>
      </trkpt>
      <trkpt lat="46.83321" lon="12.26582">
        <ele>1691.58</ele>
        <time>2017-03-01T09:13:33Z</time>
      </trkpt>
      <trkpt lat="46.83314" lon="12.26575">
        <ele>1693.5</ele>
        <time>2017-03-01T09:13:49Z</time>
      </trkpt>
      <trkpt lat="46.83306" lon="12.26563">
        <ele>1694.94</ele>
        <time>2017-03-01T09:14:07Z</time>
      </trkpt>
      <trkpt lat="46.83301" lon="12.26554">
        <ele>1695.9</ele>
        <time>2017-03-01T09:14:23Z</time>
      </trkpt>
      <trkpt lat="46.83297" lon="12.26543">
        <ele>1697.34</ele>
        <time>2017-03-01T09:14:38Z</time>
      </trkpt>
      <trkpt lat="46.83287" lon="12.26529">
        <ele>1699.27</ele>
        <time>2017-03-01T09:14:57Z</time>
      </trkpt>
      <trkpt lat="46.83277" lon="12.2652">
        <ele>1701.19</ele>
        <time>2017-03-01T09:15:14Z</time>
      </trkpt>
      <trkpt lat="46.8327" lon="12.26517">
        <ele>1704.07</ele>
        <time>2017-03-01T09:15:30Z</time>
      </trkpt>
      <trkpt lat="46.83267" lon="12.26517">
        <ele>1703.11</ele>
        <time>2017-03-01T09:15:33Z</time>
      </trkpt>
      <trkpt lat="46.83255" lon="12.26514">
        <ele>1705.04</ele>
        <time>2017-03-01T09:15:52Z</time>
      </trkpt>
      <trkpt lat="46.83246" lon="12.26511">
        <ele>1706.48</ele>
        <time>2017-03-01T09:16:08Z</time>
      </trkpt>
      <trkpt lat="46.83238" lon="12.26508">
        <ele>1708.4</ele>
        <time>2017-03-01T09:16:24Z</time>
      </trkpt>
      <trkpt lat="46.83228" lon="12.26506">
        <ele>1710.32</ele>
        <time>2017-03-01T09:16:40Z</time>
      </trkpt>
      <trkpt lat="46.83218" lon="12.26499">
        <ele>1712.25</ele>
        <time>2017-03-01T09:16:59Z</time>
      </trkpt>
      <trkpt lat="46.83209" lon="12.26498">
        <ele>1713.69</ele>
        <time>2017-03-01T09:17:18Z</time>
      </trkpt>
      <trkpt lat="46.83201" lon="12.26495">
        <ele>1717.05</ele>
        <time>2017-03-01T09:17:31Z</time>
      </trkpt>
      <trkpt lat="46.8319" lon="12.26487">
        <ele>1717.05</ele>
        <time>2017-03-01T09:17:45Z</time>
      </trkpt>
      <trkpt lat="46.83183" lon="12.26482">
        <ele>1718.49</ele>
        <time>2017-03-01T09:18:00Z</time>
      </trkpt>
      <trkpt lat="46.83171" lon="12.26478">
        <ele>1719.94</ele>
        <time>2017-03-01T09:18:17Z</time>
      </trkpt>
      <trkpt lat="46.83164" lon="12.26474">
        <ele>1721.38</ele>
        <time>2017-03-01T09:18:32Z</time>
      </trkpt>
      <trkpt lat="46.83153" lon="12.2647">
        <ele>1723.78</ele>
        <time>2017-03-01T09:18:49Z</time>
      </trkpt>
      <trkpt lat="46.83142" lon="12.26465">
        <ele>1725.22</ele>
        <time>2017-03-01T09:19:06Z</time>
      </trkpt>
      <trkpt lat="46.83131" lon="12.26461">
        <ele>1726.67</ele>
        <time>2017-03-01T09:19:23Z</time>
      </trkpt>
      <trkpt lat="46.83126" lon="12.26459">
        <ele>1729.55</ele>
        <time>2017-03-01T09:19:33Z</time>
      </trkpt>
      <trkpt lat="46.83118" lon="12.26457">
        <ele>1729.55</ele>
        <time>2017-03-01T09:19:48Z</time>
      </trkpt>
      <trkpt lat="46.83109" lon="12.26454">
        <ele>1730.99</ele>
        <time>2017-03-01T09:20:03Z</time>
      </trkpt>
      <trkpt lat="46.83099" lon="12.26452">
        <ele>1732.91</ele>
        <time>2017-03-01T09:20:19Z</time>
      </trkpt>
      <trkpt lat="46.83089" lon="12.26451">
        <ele>1734.36</ele>
        <time>2017-03-01T09:20:35Z</time>
      </trkpt>
      <trkpt lat="46.83082" lon="12.26448">
        <ele>1735.32</ele>
        <time>2017-03-01T09:20:48Z</time>
      </trkpt>
      <trkpt lat="46.83072" lon="12.26443">
        <ele>1737.24</ele>
        <time>2017-03-01T09:21:05Z</time>
      </trkpt>
      <trkpt lat="46.83064" lon="12.26442">
        <ele>1739.16</ele>
        <time>2017-03-01T09:21:20Z</time>
      </trkpt>
      <trkpt lat="46.83054" lon="12.26438">
        <ele>1742.05</ele>
        <time>2017-03-01T09:21:34Z</time>
      </trkpt>
      <trkpt lat="46.83044" lon="12.2643">
        <ele>1741.57</ele>
        <time>2017-03-01T09:21:51Z</time>
      </trkpt>
      <trkpt lat="46.83035" lon="12.26423">
        <ele>1743.01</ele>
        <time>2017-03-01T09:22:05Z</time>
      </trkpt>
      <trkpt lat="46.83029" lon="12.26421">
        <ele>1743.97</ele>
        <time>2017-03-01T09:22:15Z</time>
      </trkpt>
      <trkpt lat="46.83021" lon="12.26417">
        <ele>1745.41</ele>
        <time>2017-03-01T09:22:26Z</time>
      </trkpt>
      <trkpt lat="46.83011" lon="12.26414">
        <ele>1746.85</ele>
        <time>2017-03-01T09:22:41Z</time>
      </trkpt>
      <trkpt lat="46.83004" lon="12.26414">
        <ele>1747.81</ele>
        <time>2017-03-01T09:22:52Z</time>
      </trkpt>
      <trkpt lat="46.83003" lon="12.26426">
        <ele>1748.78</ele>
        <time>2017-03-01T09:22:59Z</time>
      </trkpt>
      <trkpt lat="46.83009" lon="12.26434">
        <ele>1750.22</ele>
        <time>2017-03-01T09:23:13Z</time>
      </trkpt>
      <trkpt lat="46.83015" lon="12.26446">
        <ele>1752.14</ele>
        <time>2017-03-01T09:23:30Z</time>
      </trkpt>
      <trkpt lat="46.83018" lon="12.26449">
        <ele>1753.1</ele>
        <time>2017-03-01T09:23:37Z</time>
      </trkpt>
      <trkpt lat="46.83027" lon="12.26466">
        <ele>1754.54</ele>
        <time>2017-03-01T09:23:53Z</time>
      </trkpt>
      <trkpt lat="46.83031" lon="12.26478">
        <ele>1755.99</ele>
        <time>2017-03-01T09:24:08Z</time>
      </trkpt>
      <trkpt lat="46.83036" lon="12.26489">
        <ele>1757.43</ele>
        <time>2017-03-01T09:24:23Z</time>
      </trkpt>
      <trkpt lat="46.83041" lon="12.26498">
        <ele>1758.87</ele>
        <time>2017-03-01T09:24:37Z</time>
      </trkpt>
      <trkpt lat="46.83046" lon="12.2651">
        <ele>1760.79</ele>
        <time>2017-03-01T09:24:52Z</time>
      </trkpt>
      <trkpt lat="46.83055" lon="12.26519">
        <ele>1762.71</ele>
        <time>2017-03-01T09:25:07Z</time>
      </trkpt>
      <trkpt lat="46.83066" lon="12.26522">
        <ele>1764.64</ele>
        <time>2017-03-01T09:25:23Z</time>
      </trkpt>
      <trkpt lat="46.83069" lon="12.26519">
        <ele>1765.12</ele>
        <time>2017-03-01T09:25:35Z</time>
      </trkpt>
      <trkpt lat="46.8306" lon="12.26519">
        <ele>1767.52</ele>
        <time>2017-03-01T09:25:51Z</time>
      </trkpt>
      <trkpt lat="46.83052" lon="12.26514">
        <ele>1768.96</ele>
        <time>2017-03-01T09:26:07Z</time>
      </trkpt>
      <trkpt lat="46.83042" lon="12.26513">
        <ele>1770.41</ele>
        <time>2017-03-01T09:26:20Z</time>
      </trkpt>
      <trkpt lat="46.83031" lon="12.26519">
        <ele>1772.33</ele>
        <time>2017-03-01T09:26:36Z</time>
      </trkpt>
      <trkpt lat="46.8302" lon="12.26522">
        <ele>1773.77</ele>
        <time>2017-03-01T09:26:51Z</time>
      </trkpt>
      <trkpt lat="46.8302" lon="12.26522">
        <ele>1773.77</ele>
        <time>2017-03-01T09:26:52Z</time>
      </trkpt>
      <trkpt lat="46.83007" lon="12.26523">
        <ele>1776.17</ele>
        <time>2017-03-01T09:27:09Z</time>
      </trkpt>
      <trkpt lat="46.83" lon="12.26523">
        <ele>1778.1</ele>
        <time>2017-03-01T09:27:22Z</time>
      </trkpt>
      <trkpt lat="46.82989" lon="12.2652">
        <ele>1779.06</ele>
        <time>2017-03-01T09:27:36Z</time>
      </trkpt>
      <trkpt lat="46.8298" lon="12.26519">
        <ele>1779.54</ele>
        <time>2017-03-01T09:27:50Z</time>
      </trkpt>
      <trkpt lat="46.82977" lon="12.26519">
        <ele>1781.46</ele>
        <time>2017-03-01T09:27:58Z</time>
      </trkpt>
      <trkpt lat="46.82967" lon="12.26518">
        <ele>1782.9</ele>
        <time>2017-03-01T09:28:13Z</time>
      </trkpt>
      <trkpt lat="46.82959" lon="12.26517">
        <ele>1784.82</ele>
        <time>2017-03-01T09:28:27Z</time>
      </trkpt>
      <trkpt lat="46.82951" lon="12.26523">
        <ele>1786.27</ele>
        <time>2017-03-01T09:28:43Z</time>
      </trkpt>
      <trkpt lat="46.82943" lon="12.26527">
        <ele>1788.19</ele>
        <time>2017-03-01T09:28:57Z</time>
      </trkpt>
      <trkpt lat="46.82934" lon="12.26535">
        <ele>1790.59</ele>
        <time>2017-03-01T09:29:16Z</time>
      </trkpt>
      <trkpt lat="46.82933" lon="12.26538">
        <ele>1791.07</ele>
        <time>2017-03-01T09:29:19Z</time>
      </trkpt>
      <trkpt lat="46.82926" lon="12.26549">
        <ele>1792.52</ele>
        <time>2017-03-01T09:29:33Z</time>
      </trkpt>
      <trkpt lat="46.82917" lon="12.26556">
        <ele>1793.96</ele>
        <time>2017-03-01T09:29:48Z</time>
      </trkpt>
      <trkpt lat="46.82907" lon="12.26559">
        <ele>1795.4</ele>
        <time>2017-03-01T09:30:03Z</time>
      </trkpt>
      <trkpt lat="46.82898" lon="12.26559">
        <ele>1797.32</ele>
        <time>2017-03-01T09:30:18Z</time>
      </trkpt>
      <trkpt lat="46.82888" lon="12.2656">
        <ele>1799.73</ele>
        <time>2017-03-01T09:30:36Z</time>
      </trkpt>
      <trkpt lat="46.82887" lon="12.2656">
        <ele>1799.73</ele>
        <time>2017-03-01T09:30:41Z</time>
      </trkpt>
      <trkpt lat="46.82877" lon="12.26561">
        <ele>1801.17</ele>
        <time>2017-03-01T09:30:55Z</time>
      </trkpt>
      <trkpt lat="46.82868" lon="12.26562">
        <ele>1803.09</ele>
        <time>2017-03-01T09:31:09Z</time>
      </trkpt>
      <trkpt lat="46.82858" lon="12.26566">
        <ele>1805.01</ele>
        <time>2017-03-01T09:31:25Z</time>
      </trkpt>
      <trkpt lat="46.8285" lon="12.26569">
        <ele>1806.94</ele>
        <time>2017-03-01T09:31:41Z</time>
      </trkpt>
      <trkpt lat="46.82842" lon="12.26577">
        <ele>1808.86</ele>
        <time>2017-03-01T09:31:58Z</time>
      </trkpt>
      <trkpt lat="46.82833" lon="12.26585">
        <ele>1810.78</ele>
        <time>2017-03-01T09:32:16Z</time>
      </trkpt>
      <trkpt lat="46.82826" lon="12.26592">
        <ele>1812.22</ele>
        <time>2017-03-01T09:32:31Z</time>
      </trkpt>
      <trkpt lat="46.82817" lon="12.26603">
        <ele>1814.63</ele>
        <time>2017-03-01T09:32:48Z</time>
      </trkpt>
      <trkpt lat="46.82813" lon="12.26609">
        <ele>1815.59</ele>
        <time>2017-03-01T09:33:02Z</time>
      </trkpt>
      <trkpt lat="46.82806" lon="12.26621">
        <ele>1817.51</ele>
        <time>2017-03-01T09:33:16Z</time>
      </trkpt>
      <trkpt lat="46.82798" lon="12.26633">
        <ele>1818.95</ele>
        <time>2017-03-01T09:33:33Z</time>
      </trkpt>
      <trkpt lat="46.82789" lon="12.26643">
        <ele>1820.39</ele>
        <time>2017-03-01T09:33:48Z</time>
      </trkpt>
      <trkpt lat="46.82779" lon="12.2665">
        <ele>1821.84</ele>
        <time>2017-03-01T09:34:03Z</time>
      </trkpt>
      <trkpt lat="46.82772" lon="12.26652">
        <ele>1822.8</ele>
        <time>2017-03-01T09:34:14Z</time>
      </trkpt>
      <trkpt lat="46.82764" lon="12.26655">
        <ele>1823.76</ele>
        <time>2017-03-01T09:34:30Z</time>
      </trkpt>
      <trkpt lat="46.82764" lon="12.26656">
        <ele>1824.24</ele>
        <time>2017-03-01T09:34:48Z</time>
      </trkpt>
      <trkpt lat="46.82762" lon="12.26655">
        <ele>1823.76</ele>
        <time>2017-03-01T09:35:09Z</time>
      </trkpt>
      <trkpt lat="46.82763" lon="12.2666">
        <ele>1823.28</ele>
        <time>2017-03-01T09:35:32Z</time>
      </trkpt>
      <trkpt lat="46.8276" lon="12.26662">
        <ele>1824.72</ele>
        <time>2017-03-01T09:35:43Z</time>
      </trkpt>
      <trkpt lat="46.8276" lon="12.26667">
        <ele>1824.24</ele>
        <time>2017-03-01T09:36:03Z</time>
      </trkpt>
      <trkpt lat="46.82747" lon="12.26677">
        <ele>1823.76</ele>
        <time>2017-03-01T09:36:27Z</time>
      </trkpt>
      <trkpt lat="46.82756" lon="12.26671">
        <ele>1823.76</ele>
        <time>2017-03-01T09:36:46Z</time>
      </trkpt>
      <trkpt lat="46.82762" lon="12.26664">
        <ele>1824.24</ele>
        <time>2017-03-01T09:37:04Z</time>
      </trkpt>
      <trkpt lat="46.82762" lon="12.26671">
        <ele>1823.76</ele>
        <time>2017-03-01T09:37:25Z</time>
      </trkpt>
      <trkpt lat="46.82763" lon="12.26667">
        <ele>1825.2</ele>
        <time>2017-03-01T09:37:43Z</time>
      </trkpt>
      <trkpt lat="46.82754" lon="12.2667">
        <ele>1827.12</ele>
        <time>2017-03-01T09:37:58Z</time>
      </trkpt>
      <trkpt lat="46.82747" lon="12.26677">
        <ele>1829.53</ele>
        <time>2017-03-01T09:38:15Z</time>
      </trkpt>
      <trkpt lat="46.82741" lon="12.26688">
        <ele>1831.45</ele>
        <time>2017-03-01T09:38:31Z</time>
      </trkpt>
      <trkpt lat="46.82735" lon="12.26694">
        <ele>1833.37</ele>
        <time>2017-03-01T09:38:47Z</time>
      </trkpt>
      <trkpt lat="46.82729" lon="12.267">
        <ele>1835.29</ele>
        <time>2017-03-01T09:39:02Z</time>
      </trkpt>
      <trkpt lat="46.82725" lon="12.26705">
        <ele>1837.22</ele>
        <time>2017-03-01T09:39:16Z</time>
      </trkpt>
      <trkpt lat="46.82722" lon="12.26712">
        <ele>1839.14</ele>
        <time>2017-03-01T09:39:29Z</time>
      </trkpt>
      <trkpt lat="46.82718" lon="12.2672">
        <ele>1842.5</ele>
        <time>2017-03-01T09:39:44Z</time>
      </trkpt>
      <trkpt lat="46.82708" lon="12.26724">
        <ele>1842.5</ele>
        <time>2017-03-01T09:40:01Z</time>
      </trkpt>
      <trkpt lat="46.82704" lon="12.26728">
        <ele>1844.43</ele>
        <time>2017-03-01T09:40:15Z</time>
      </trkpt>
      <trkpt lat="46.82699" lon="12.26737">
        <ele>1845.87</ele>
        <time>2017-03-01T09:40:28Z</time>
      </trkpt>
      <trkpt lat="46.82696" lon="12.26743">
        <ele>1846.83</ele>
        <time>2017-03-01T09:40:42Z</time>
      </trkpt>
      <trkpt lat="46.82693" lon="12.26746">
        <ele>1847.31</ele>
        <time>2017-03-01T09:40:57Z</time>
      </trkpt>
      <trkpt lat="46.82688" lon="12.26751">
        <ele>1849.23</ele>
        <time>2017-03-01T09:41:11Z</time>
      </trkpt>
      <trkpt lat="46.82682" lon="12.26756">
        <ele>1851.16</ele>
        <time>2017-03-01T09:41:25Z</time>
      </trkpt>
      <trkpt lat="46.82679" lon="12.26767">
        <ele>1852.6</ele>
        <time>2017-03-01T09:41:39Z</time>
      </trkpt>
      <trkpt lat="46.82674" lon="12.26771">
        <ele>1854.52</ele>
        <time>2017-03-01T09:41:54Z</time>
      </trkpt>
      <trkpt lat="46.82668" lon="12.26781">
        <ele>1856.44</ele>
        <time>2017-03-01T09:42:10Z</time>
      </trkpt>
      <trkpt lat="46.82661" lon="12.26785">
        <ele>1858.37</ele>
        <time>2017-03-01T09:42:28Z</time>
      </trkpt>
      <trkpt lat="46.82654" lon="12.26788">
        <ele>1860.29</ele>
        <time>2017-03-01T09:42:43Z</time>
      </trkpt>
      <trkpt lat="46.82646" lon="12.26793">
        <ele>1861.73</ele>
        <time>2017-03-01T09:42:59Z</time>
      </trkpt>
      <trkpt lat="46.8264" lon="12.26796">
        <ele>1864.61</ele>
        <time>2017-03-01T09:43:16Z</time>
      </trkpt>
      <trkpt lat="46.82634" lon="12.26802">
        <ele>1866.54</ele>
        <time>2017-03-01T09:43:31Z</time>
      </trkpt>
      <trkpt lat="46.8263" lon="12.26808">
        <ele>1867.98</ele>
        <time>2017-03-01T09:43:45Z</time>
      </trkpt>
      <trkpt lat="46.82627" lon="12.2682">
        <ele>1869.42</ele>
        <time>2017-03-01T09:44:00Z</time>
      </trkpt>
      <trkpt lat="46.82622" lon="12.26828">
        <ele>1870.86</ele>
        <time>2017-03-01T09:44:14Z</time>
      </trkpt>
      <trkpt lat="46.82619" lon="12.26832">
        <ele>1872.3</ele>
        <time>2017-03-01T09:44:26Z</time>
      </trkpt>
      <trkpt lat="46.82616" lon="12.26838">
        <ele>1873.75</ele>
        <time>2017-03-01T09:44:39Z</time>
      </trkpt>
      <trkpt lat="46.82612" lon="12.26842">
        <ele>1875.67</ele>
        <time>2017-03-01T09:44:53Z</time>
      </trkpt>
      <trkpt lat="46.82609" lon="12.26848">
        <ele>1877.11</ele>
        <time>2017-03-01T09:45:07Z</time>
      </trkpt>
      <trkpt lat="46.82606" lon="12.26855">
        <ele>1878.55</ele>
        <time>2017-03-01T09:45:21Z</time>
      </trkpt>
      <trkpt lat="46.82604" lon="12.26861">
        <ele>1880.48</ele>
        <time>2017-03-01T09:45:35Z</time>
      </trkpt>
      <trkpt lat="46.82601" lon="12.26871">
        <ele>1883.36</ele>
        <time>2017-03-01T09:45:47Z</time>
      </trkpt>
      <trkpt lat="46.82598" lon="12.26881">
        <ele>1883.84</ele>
        <time>2017-03-01T09:46:02Z</time>
      </trkpt>
      <trkpt lat="46.82594" lon="12.26887">
        <ele>1885.28</ele>
        <time>2017-03-01T09:46:15Z</time>
      </trkpt>
      <trkpt lat="46.82588" lon="12.26893">
        <ele>1886.72</ele>
        <time>2017-03-01T09:46:28Z</time>
      </trkpt>
      <trkpt lat="46.82584" lon="12.26896">
        <ele>1887.69</ele>
        <time>2017-03-01T09:46:41Z</time>
      </trkpt>
      <trkpt lat="46.82581" lon="12.26902">
        <ele>1889.13</ele>
        <time>2017-03-01T09:46:56Z</time>
      </trkpt>
      <trkpt lat="46.82575" lon="12.26911">
        <ele>1891.53</ele>
        <time>2017-03-01T09:47:12Z</time>
      </trkpt>
      <trkpt lat="46.82571" lon="12.26918">
        <ele>1892.97</ele>
        <time>2017-03-01T09:47:26Z</time>
      </trkpt>
      <trkpt lat="46.8257" lon="12.2692">
        <ele>1892.97</ele>
        <time>2017-03-01T09:47:40Z</time>
      </trkpt>
      <trkpt lat="46.82566" lon="12.26926">
        <ele>1894.42</ele>
        <time>2017-03-01T09:47:54Z</time>
      </trkpt>
      <trkpt lat="46.82563" lon="12.2693">
        <ele>1894.9</ele>
        <time>2017-03-01T09:48:08Z</time>
      </trkpt>
      <trkpt lat="46.82559" lon="12.26937">
        <ele>1896.34</ele>
        <time>2017-03-01T09:48:23Z</time>
      </trkpt>
      <trkpt lat="46.82557" lon="12.26947">
        <ele>1898.26</ele>
        <time>2017-03-01T09:48:38Z</time>
      </trkpt>
      <trkpt lat="46.82553" lon="12.26956">
        <ele>1900.18</ele>
        <time>2017-03-01T09:48:53Z</time>
      </trkpt>
      <trkpt lat="46.8255" lon="12.26967">
        <ele>1902.59</ele>
        <time>2017-03-01T09:49:08Z</time>
      </trkpt>
      <trkpt lat="46.82546" lon="12.26973">
        <ele>1904.03</ele>
        <time>2017-03-01T09:49:22Z</time>
      </trkpt>
      <trkpt lat="46.82543" lon="12.26981">
        <ele>1905.95</ele>
        <time>2017-03-01T09:49:37Z</time>
      </trkpt>
      <trkpt lat="46.82537" lon="12.2699">
        <ele>1908.35</ele>
        <time>2017-03-01T09:49:52Z</time>
      </trkpt>
      <trkpt lat="46.82532" lon="12.27002">
        <ele>1909.8</ele>
        <time>2017-03-01T09:50:10Z</time>
      </trkpt>
      <trkpt lat="46.82528" lon="12.27011">
        <ele>1911.72</ele>
        <time>2017-03-01T09:50:25Z</time>
      </trkpt>
      <trkpt lat="46.82525" lon="12.2702">
        <ele>1913.64</ele>
        <time>2017-03-01T09:50:40Z</time>
      </trkpt>
      <trkpt lat="46.82517" lon="12.27025">
        <ele>1915.08</ele>
        <time>2017-03-01T09:50:57Z</time>
      </trkpt>
      <trkpt lat="46.8251" lon="12.2703">
        <ele>1916.53</ele>
        <time>2017-03-01T09:51:11Z</time>
      </trkpt>
      <trkpt lat="46.82507" lon="12.27041">
        <ele>1918.93</ele>
        <time>2017-03-01T09:51:26Z</time>
      </trkpt>
      <trkpt lat="46.82507" lon="12.27049">
        <ele>1919.89</ele>
        <time>2017-03-01T09:51:39Z</time>
      </trkpt>
      <trkpt lat="46.82506" lon="12.27052">
        <ele>1923.25</ele>
        <time>2017-03-01T09:51:51Z</time>
      </trkpt>
      <trkpt lat="46.82503" lon="12.27058">
        <ele>1923.25</ele>
        <time>2017-03-01T09:52:05Z</time>
      </trkpt>
      <trkpt lat="46.82497" lon="12.27067">
        <ele>1924.7</ele>
        <time>2017-03-01T09:52:19Z</time>
      </trkpt>
      <trkpt lat="46.82493" lon="12.2707">
        <ele>1926.62</ele>
        <time>2017-03-01T09:52:34Z</time>
      </trkpt>
      <trkpt lat="46.82489" lon="12.27078">
        <ele>1929.02</ele>
        <time>2017-03-01T09:52:49Z</time>
      </trkpt>
      <trkpt lat="46.8249" lon="12.27091">
        <ele>1929.98</ele>
        <time>2017-03-01T09:53:03Z</time>
      </trkpt>
      <trkpt lat="46.82486" lon="12.27096">
        <ele>1930.95</ele>
        <time>2017-03-01T09:53:16Z</time>
      </trkpt>
      <trkpt lat="46.82484" lon="12.27105">
        <ele>1932.87</ele>
        <time>2017-03-01T09:53:30Z</time>
      </trkpt>
      <trkpt lat="46.8248" lon="12.27114">
        <ele>1934.31</ele>
        <time>2017-03-01T09:53:44Z</time>
      </trkpt>
      <trkpt lat="46.82477" lon="12.2712">
        <ele>1935.75</ele>
        <time>2017-03-01T09:53:57Z</time>
      </trkpt>
      <trkpt lat="46.82472" lon="12.27128">
        <ele>1937.19</ele>
        <time>2017-03-01T09:54:12Z</time>
      </trkpt>
      <trkpt lat="46.82468" lon="12.27135">
        <ele>1938.16</ele>
        <time>2017-03-01T09:54:25Z</time>
      </trkpt>
      <trkpt lat="46.82463" lon="12.27141">
        <ele>1939.6</ele>
        <time>2017-03-01T09:54:39Z</time>
      </trkpt>
      <trkpt lat="46.8246" lon="12.27149">
        <ele>1941.52</ele>
        <time>2017-03-01T09:54:57Z</time>
      </trkpt>
      <trkpt lat="46.82456" lon="12.2716">
        <ele>1942.96</ele>
        <time>2017-03-01T09:55:11Z</time>
      </trkpt>
      <trkpt lat="46.82453" lon="12.27171">
        <ele>1944.88</ele>
        <time>2017-03-01T09:55:28Z</time>
      </trkpt>
      <trkpt lat="46.82451" lon="12.2718">
        <ele>1945.85</ele>
        <time>2017-03-01T09:55:40Z</time>
      </trkpt>
      <trkpt lat="46.82449" lon="12.27187">
        <ele>1949.21</ele>
        <time>2017-03-01T09:55:53Z</time>
      </trkpt>
      <trkpt lat="46.82444" lon="12.27194">
        <ele>1949.21</ele>
        <time>2017-03-01T09:56:08Z</time>
      </trkpt>
      <trkpt lat="46.8244" lon="12.27201">
        <ele>1950.65</ele>
        <time>2017-03-01T09:56:21Z</time>
      </trkpt>
      <trkpt lat="46.82438" lon="12.27209">
        <ele>1952.09</ele>
        <time>2017-03-01T09:56:34Z</time>
      </trkpt>
      <trkpt lat="46.82437" lon="12.27216">
        <ele>1953.54</ele>
        <time>2017-03-01T09:56:49Z</time>
      </trkpt>
      <trkpt lat="46.82434" lon="12.27224">
        <ele>1954.98</ele>
        <time>2017-03-01T09:57:04Z</time>
      </trkpt>
      <trkpt lat="46.82428" lon="12.27233">
        <ele>1956.9</ele>
        <time>2017-03-01T09:57:19Z</time>
      </trkpt>
      <trkpt lat="46.82426" lon="12.27239">
        <ele>1958.34</ele>
        <time>2017-03-01T09:57:32Z</time>
      </trkpt>
      <trkpt lat="46.82424" lon="12.27246">
        <ele>1959.3</ele>
        <time>2017-03-01T09:57:44Z</time>
      </trkpt>
      <trkpt lat="46.8242" lon="12.27258">
        <ele>1961.23</ele>
        <time>2017-03-01T09:58:02Z</time>
      </trkpt>
      <trkpt lat="46.82416" lon="12.27267">
        <ele>1962.67</ele>
        <time>2017-03-01T09:58:18Z</time>
      </trkpt>
      <trkpt lat="46.82413" lon="12.27276">
        <ele>1964.59</ele>
        <time>2017-03-01T09:58:31Z</time>
      </trkpt>
      <trkpt lat="46.82411" lon="12.27285">
        <ele>1966.03</ele>
        <time>2017-03-01T09:58:46Z</time>
      </trkpt>
      <trkpt lat="46.82405" lon="12.27295">
        <ele>1967.96</ele>
        <time>2017-03-01T09:59:03Z</time>
      </trkpt>
      <trkpt lat="46.82402" lon="12.27304">
        <ele>1968.92</ele>
        <time>2017-03-01T09:59:18Z</time>
      </trkpt>
      <trkpt lat="46.82399" lon="12.27313">
        <ele>1970.84</ele>
        <time>2017-03-01T09:59:32Z</time>
      </trkpt>
      <trkpt lat="46.824" lon="12.2732">
        <ele>1972.28</ele>
        <time>2017-03-01T09:59:45Z</time>
      </trkpt>
      <trkpt lat="46.82397" lon="12.27325">
        <ele>1972.76</ele>
        <time>2017-03-01T09:59:59Z</time>
      </trkpt>
      <trkpt lat="46.82396" lon="12.27331">
        <ele>1974.2</ele>
        <time>2017-03-01T10:00:16Z</time>
      </trkpt>
      <trkpt lat="46.82395" lon="12.27338">
        <ele>1975.65</ele>
        <time>2017-03-01T10:00:30Z</time>
      </trkpt>
      <trkpt lat="46.82396" lon="12.27346">
        <ele>1978.05</ele>
        <time>2017-03-01T10:00:45Z</time>
      </trkpt>
      <trkpt lat="46.82397" lon="12.27354">
        <ele>1980.45</ele>
        <time>2017-03-01T10:01:01Z</time>
      </trkpt>
      <trkpt lat="46.82394" lon="12.27363">
        <ele>1981.9</ele>
        <time>2017-03-01T10:01:16Z</time>
      </trkpt>
      <trkpt lat="46.8239" lon="12.27374">
        <ele>1984.3</ele>
        <time>2017-03-01T10:01:34Z</time>
      </trkpt>
      <trkpt lat="46.82386" lon="12.27382">
        <ele>1986.22</ele>
        <time>2017-03-01T10:01:52Z</time>
      </trkpt>
      <trkpt lat="46.82383" lon="12.27387">
        <ele>1988.14</ele>
        <time>2017-03-01T10:02:08Z</time>
      </trkpt>
      <trkpt lat="46.8238" lon="12.27395">
        <ele>1989.59</ele>
        <time>2017-03-01T10:02:21Z</time>
      </trkpt>
      <trkpt lat="46.82378" lon="12.274">
        <ele>1991.03</ele>
        <time>2017-03-01T10:02:32Z</time>
      </trkpt>
      <trkpt lat="46.82378" lon="12.27401">
        <ele>1992.95</ele>
        <time>2017-03-01T10:02:33Z</time>
      </trkpt>
      <trkpt lat="46.82378" lon="12.27403">
        <ele>1991.51</ele>
        <time>2017-03-01T10:02:35Z</time>
      </trkpt>
      <trkpt lat="46.82378" lon="12.27405">
        <ele>1991.99</ele>
        <time>2017-03-01T10:02:41Z</time>
      </trkpt>
      <trkpt lat="46.82376" lon="12.27415">
        <ele>1993.43</ele>
        <time>2017-03-01T10:02:54Z</time>
      </trkpt>
      <trkpt lat="46.82375" lon="12.27423">
        <ele>1994.87</ele>
        <time>2017-03-01T10:03:08Z</time>
      </trkpt>
      <trkpt lat="46.82374" lon="12.27428">
        <ele>1996.8</ele>
        <time>2017-03-01T10:03:21Z</time>
      </trkpt>
      <trkpt lat="46.82373" lon="12.27433">
        <ele>1997.76</ele>
        <time>2017-03-01T10:03:32Z</time>
      </trkpt>
      <trkpt lat="46.82373" lon="12.27441">
        <ele>1999.2</ele>
        <time>2017-03-01T10:03:47Z</time>
      </trkpt>
      <trkpt lat="46.82371" lon="12.27448">
        <ele>2000.64</ele>
        <time>2017-03-01T10:04:01Z</time>
      </trkpt>
      <trkpt lat="46.82371" lon="12.27453">
        <ele>2002.08</ele>
        <time>2017-03-01T10:04:14Z</time>
      </trkpt>
      <trkpt lat="46.82371" lon="12.27461">
        <ele>2003.52</ele>
        <time>2017-03-01T10:04:28Z</time>
      </trkpt>
      <trkpt lat="46.82374" lon="12.27467">
        <ele>2004.97</ele>
        <time>2017-03-01T10:04:40Z</time>
      </trkpt>
      <trkpt lat="46.82372" lon="12.27472">
        <ele>2007.37</ele>
        <time>2017-03-01T10:04:54Z</time>
      </trkpt>
      <trkpt lat="46.8237" lon="12.27482">
        <ele>2008.81</ele>
        <time>2017-03-01T10:05:10Z</time>
      </trkpt>
      <trkpt lat="46.82369" lon="12.27477">
        <ele>2009.29</ele>
        <time>2017-03-01T10:05:31Z</time>
      </trkpt>
      <trkpt lat="46.82368" lon="12.27481">
        <ele>2008.33</ele>
        <time>2017-03-01T10:05:46Z</time>
      </trkpt>
      <trkpt lat="46.82367" lon="12.27477">
        <ele>2007.85</ele>
        <time>2017-03-01T10:06:15Z</time>
      </trkpt>
      <trkpt lat="46.82368" lon="12.27481">
        <ele>2007.85</ele>
        <time>2017-03-01T10:06:47Z</time>
      </trkpt>
      <trkpt lat="46.82366" lon="12.2748">
        <ele>2008.33</ele>
        <time>2017-03-01T10:07:14Z</time>
      </trkpt>
      <trkpt lat="46.82367" lon="12.2748">
        <ele>2008.33</ele>
        <time>2017-03-01T10:07:35Z</time>
      </trkpt>
      <trkpt lat="46.8237" lon="12.27477">
        <ele>2008.33</ele>
        <time>2017-03-01T10:08:06Z</time>
      </trkpt>
      <trkpt lat="46.82368" lon="12.27479">
        <ele>2008.33</ele>
        <time>2017-03-01T10:08:25Z</time>
      </trkpt>
      <trkpt lat="46.82366" lon="12.27479">
        <ele>2008.33</ele>
        <time>2017-03-01T10:08:52Z</time>
      </trkpt>
      <trkpt lat="46.82365" lon="12.27475">
        <ele>2008.33</ele>
        <time>2017-03-01T10:09:20Z</time>
      </trkpt>
      <trkpt lat="46.82372" lon="12.27476">
        <ele>2007.85</ele>
        <time>2017-03-01T10:09:42Z</time>
      </trkpt>
      <trkpt lat="46.82371" lon="12.27479">
        <ele>2007.85</ele>
        <time>2017-03-01T10:09:55Z</time>
      </trkpt>
      <trkpt lat="46.82369" lon="12.27477">
        <ele>2009.29</ele>
        <time>2017-03-01T10:09:58Z</time>
      </trkpt>
      <trkpt lat="46.82372" lon="12.27478">
        <ele>2008.81</ele>
        <time>2017-03-01T10:10:21Z</time>
      </trkpt>
      <trkpt lat="46.82377" lon="12.27475">
        <ele>2009.29</ele>
        <time>2017-03-01T10:10:41Z</time>
      </trkpt>
      <trkpt lat="46.82374" lon="12.27477">
        <ele>2009.29</ele>
        <time>2017-03-01T10:11:00Z</time>
      </trkpt>
      <trkpt lat="46.82371" lon="12.27485">
        <ele>2009.29</ele>
        <time>2017-03-01T10:11:09Z</time>
      </trkpt>
      <trkpt lat="46.82364" lon="12.27489">
        <ele>2011.7</ele>
        <time>2017-03-01T10:11:24Z</time>
      </trkpt>
      <trkpt lat="46.82364" lon="12.27499">
        <ele>2013.62</ele>
        <time>2017-03-01T10:11:39Z</time>
      </trkpt>
      <trkpt lat="46.82363" lon="12.27507">
        <ele>2015.06</ele>
        <time>2017-03-01T10:11:53Z</time>
      </trkpt>
      <trkpt lat="46.82365" lon="12.27514">
        <ele>2016.5</ele>
        <time>2017-03-01T10:12:08Z</time>
      </trkpt>
      <trkpt lat="46.82364" lon="12.27518">
        <ele>2017.46</ele>
        <time>2017-03-01T10:12:22Z</time>
      </trkpt>
      <trkpt lat="46.82364" lon="12.27525">
        <ele>2019.39</ele>
        <time>2017-03-01T10:12:37Z</time>
      </trkpt>
      <trkpt lat="46.82364" lon="12.27525">
        <ele>2021.31</ele>
        <time>2017-03-01T10:12:39Z</time>
      </trkpt>
      <trkpt lat="46.82363" lon="12.27525">
        <ele>2019.87</ele>
        <time>2017-03-01T10:12:40Z</time>
      </trkpt>
      <trkpt lat="46.82359" lon="12.27526">
        <ele>2021.31</ele>
        <time>2017-03-01T10:12:56Z</time>
      </trkpt>
      <trkpt lat="46.82354" lon="12.27525">
        <ele>2022.75</ele>
        <time>2017-03-01T10:13:10Z</time>
      </trkpt>
      <trkpt lat="46.82349" lon="12.27525">
        <ele>2024.19</ele>
        <time>2017-03-01T10:13:25Z</time>
      </trkpt>
      <trkpt lat="46.82343" lon="12.27527">
        <ele>2025.64</ele>
        <time>2017-03-01T10:13:42Z</time>
      </trkpt>
      <trkpt lat="46.82343" lon="12.2753">
        <ele>2026.12</ele>
        <time>2017-03-01T10:14:04Z</time>
      </trkpt>
      <trkpt lat="46.82343" lon="12.2754">
        <ele>2028.52</ele>
        <time>2017-03-01T10:14:20Z</time>
      </trkpt>
      <trkpt lat="46.82343" lon="12.27547">
        <ele>2029.96</ele>
        <time>2017-03-01T10:14:33Z</time>
      </trkpt>
      <trkpt lat="46.8234" lon="12.27545">
        <ele>2031.4</ele>
        <time>2017-03-01T10:14:47Z</time>
      </trkpt>
      <trkpt lat="46.82334" lon="12.27546">
        <ele>2033.33</ele>
        <time>2017-03-01T10:15:00Z</time>
      </trkpt>
      <trkpt lat="46.8233" lon="12.27551">
        <ele>2034.77</ele>
        <time>2017-03-01T10:15:16Z</time>
      </trkpt>
      <trkpt lat="46.82329" lon="12.27558">
        <ele>2036.69</ele>
        <time>2017-03-01T10:15:28Z</time>
      </trkpt>
      <trkpt lat="46.82328" lon="12.27562">
        <ele>2037.65</ele>
        <time>2017-03-01T10:15:40Z</time>
      </trkpt>
      <trkpt lat="46.82329" lon="12.27571">
        <ele>2039.57</ele>
        <time>2017-03-01T10:15:54Z</time>
      </trkpt>
      <trkpt lat="46.82328" lon="12.27575">
        <ele>2040.54</ele>
        <time>2017-03-01T10:16:06Z</time>
      </trkpt>
      <trkpt lat="46.82322" lon="12.27571">
        <ele>2041.98</ele>
        <time>2017-03-01T10:16:22Z</time>
      </trkpt>
      <trkpt lat="46.82315" lon="12.27569">
        <ele>2043.9</ele>
        <time>2017-03-01T10:16:38Z</time>
      </trkpt>
      <trkpt lat="46.8231" lon="12.27569">
        <ele>2045.34</ele>
        <time>2017-03-01T10:16:54Z</time>
      </trkpt>
      <trkpt lat="46.82304" lon="12.2757">
        <ele>2047.26</ele>
        <time>2017-03-01T10:17:09Z</time>
      </trkpt>
      <trkpt lat="46.82304" lon="12.27581">
        <ele>2049.19</ele>
        <time>2017-03-01T10:17:26Z</time>
      </trkpt>
      <trkpt lat="46.82303" lon="12.27583">
        <ele>2051.11</ele>
        <time>2017-03-01T10:17:39Z</time>
      </trkpt>
      <trkpt lat="46.82293" lon="12.27579">
        <ele>2053.03</ele>
        <time>2017-03-01T10:17:58Z</time>
      </trkpt>
      <trkpt lat="46.82291" lon="12.27576">
        <ele>2054.47</ele>
        <time>2017-03-01T10:18:12Z</time>
      </trkpt>
      <trkpt lat="46.82292" lon="12.27587">
        <ele>2055.92</ele>
        <time>2017-03-01T10:18:26Z</time>
      </trkpt>
      <trkpt lat="46.82289" lon="12.27598">
        <ele>2057.36</ele>
        <time>2017-03-01T10:18:42Z</time>
      </trkpt>
      <trkpt lat="46.8229" lon="12.27603">
        <ele>2059.28</ele>
        <time>2017-03-01T10:18:55Z</time>
      </trkpt>
      <trkpt lat="46.82284" lon="12.27602">
        <ele>2060.72</ele>
        <time>2017-03-01T10:19:11Z</time>
      </trkpt>
      <trkpt lat="46.82281" lon="12.2761">
        <ele>2062.65</ele>
        <time>2017-03-01T10:19:25Z</time>
      </trkpt>
      <trkpt lat="46.82286" lon="12.2762">
        <ele>2064.09</ele>
        <time>2017-03-01T10:19:39Z</time>
      </trkpt>
      <trkpt lat="46.82285" lon="12.27629">
        <ele>2065.53</ele>
        <time>2017-03-01T10:19:54Z</time>
      </trkpt>
      <trkpt lat="46.82282" lon="12.27634">
        <ele>2067.45</ele>
        <time>2017-03-01T10:20:08Z</time>
      </trkpt>
      <trkpt lat="46.82278" lon="12.27632">
        <ele>2068.89</ele>
        <time>2017-03-01T10:20:22Z</time>
      </trkpt>
      <trkpt lat="46.8227" lon="12.27633">
        <ele>2071.3</ele>
        <time>2017-03-01T10:20:37Z</time>
      </trkpt>
      <trkpt lat="46.82268" lon="12.27637">
        <ele>2072.74</ele>
        <time>2017-03-01T10:20:53Z</time>
      </trkpt>
      <trkpt lat="46.82263" lon="12.27641">
        <ele>2074.66</ele>
        <time>2017-03-01T10:21:08Z</time>
      </trkpt>
      <trkpt lat="46.82264" lon="12.2765">
        <ele>2076.59</ele>
        <time>2017-03-01T10:21:20Z</time>
      </trkpt>
      <trkpt lat="46.82267" lon="12.27659">
        <ele>2077.55</ele>
        <time>2017-03-01T10:21:32Z</time>
      </trkpt>
      <trkpt lat="46.82262" lon="12.27659">
        <ele>2079.47</ele>
        <time>2017-03-01T10:21:47Z</time>
      </trkpt>
      <trkpt lat="46.82257" lon="12.27666">
        <ele>2080.91</ele>
        <time>2017-03-01T10:22:03Z</time>
      </trkpt>
      <trkpt lat="46.82251" lon="12.27674">
        <ele>2082.35</ele>
        <time>2017-03-01T10:22:18Z</time>
      </trkpt>
      <trkpt lat="46.82249" lon="12.2768">
        <ele>2083.79</ele>
        <time>2017-03-01T10:22:30Z</time>
      </trkpt>
      <trkpt lat="46.82249" lon="12.27689">
        <ele>2085.24</ele>
        <time>2017-03-01T10:22:44Z</time>
      </trkpt>
      <trkpt lat="46.82249" lon="12.27689">
        <ele>2086.68</ele>
        <time>2017-03-01T10:22:45Z</time>
      </trkpt>
      <trkpt lat="46.8225" lon="12.27695">
        <ele>2086.2</ele>
        <time>2017-03-01T10:23:03Z</time>
      </trkpt>
      <trkpt lat="46.82244" lon="12.27698">
        <ele>2087.64</ele>
        <time>2017-03-01T10:23:19Z</time>
      </trkpt>
      <trkpt lat="46.82236" lon="12.27692">
        <ele>2089.56</ele>
        <time>2017-03-01T10:23:34Z</time>
      </trkpt>
      <trkpt lat="46.82232" lon="12.27697">
        <ele>2091</ele>
        <time>2017-03-01T10:23:49Z</time>
      </trkpt>
      <trkpt lat="46.82235" lon="12.27705">
        <ele>2091.97</ele>
        <time>2017-03-01T10:24:02Z</time>
      </trkpt>
      <trkpt lat="46.82233" lon="12.27711">
        <ele>2093.41</ele>
        <time>2017-03-01T10:24:15Z</time>
      </trkpt>
      <trkpt lat="46.8223" lon="12.27716">
        <ele>2094.85</ele>
        <time>2017-03-01T10:24:29Z</time>
      </trkpt>
      <trkpt lat="46.82229" lon="12.27725">
        <ele>2096.77</ele>
        <time>2017-03-01T10:24:45Z</time>
      </trkpt>
      <trkpt lat="46.82228" lon="12.27734">
        <ele>2097.25</ele>
        <time>2017-03-01T10:24:58Z</time>
      </trkpt>
      <trkpt lat="46.82225" lon="12.27738">
        <ele>2098.21</ele>
        <time>2017-03-01T10:25:09Z</time>
      </trkpt>
      <trkpt lat="46.82222" lon="12.27744">
        <ele>2099.66</ele>
        <time>2017-03-01T10:25:25Z</time>
      </trkpt>
      <trkpt lat="46.82223" lon="12.27751">
        <ele>2101.58</ele>
        <time>2017-03-01T10:25:38Z</time>
      </trkpt>
      <trkpt lat="46.8222" lon="12.27755">
        <ele>2102.54</ele>
        <time>2017-03-01T10:25:51Z</time>
      </trkpt>
      <trkpt lat="46.82218" lon="12.27759">
        <ele>2103.02</ele>
        <time>2017-03-01T10:26:06Z</time>
      </trkpt>
      <trkpt lat="46.82216" lon="12.27757">
        <ele>2103.98</ele>
        <time>2017-03-01T10:26:20Z</time>
      </trkpt>
      <trkpt lat="46.82214" lon="12.27763">
        <ele>2105.42</ele>
        <time>2017-03-01T10:26:35Z</time>
      </trkpt>
      <trkpt lat="46.82214" lon="12.27766">
        <ele>2106.87</ele>
        <time>2017-03-01T10:26:50Z</time>
      </trkpt>
      <trkpt lat="46.82214" lon="12.27771">
        <ele>2107.35</ele>
        <time>2017-03-01T10:27:10Z</time>
      </trkpt>
      <trkpt lat="46.82216" lon="12.27783">
        <ele>2108.79</ele>
        <time>2017-03-01T10:27:23Z</time>
      </trkpt>
      <trkpt lat="46.82216" lon="12.27795">
        <ele>2108.31</ele>
        <time>2017-03-01T10:27:38Z</time>
      </trkpt>
      <trkpt lat="46.82218" lon="12.27805">
        <ele>2109.27</ele>
        <time>2017-03-01T10:27:51Z</time>
      </trkpt>
      <trkpt lat="46.82221" lon="12.27816">
        <ele>2110.23</ele>
        <time>2017-03-01T10:28:06Z</time>
      </trkpt>
      <trkpt lat="46.82225" lon="12.27823">
        <ele>2111.67</ele>
        <time>2017-03-01T10:28:23Z</time>
      </trkpt>
      <trkpt lat="46.82233" lon="12.27823">
        <ele>2112.15</ele>
        <time>2017-03-01T10:28:46Z</time>
      </trkpt>
      <trkpt lat="46.82241" lon="12.27824">
        <ele>2114.08</ele>
        <time>2017-03-01T10:29:00Z</time>
      </trkpt>
      <trkpt lat="46.82242" lon="12.27828">
        <ele>2116</ele>
        <time>2017-03-01T10:29:16Z</time>
      </trkpt>
      <trkpt lat="46.82243" lon="12.27832">
        <ele>2117.44</ele>
        <time>2017-03-01T10:29:31Z</time>
      </trkpt>
      <trkpt lat="46.8224" lon="12.27833">
        <ele>2117.92</ele>
        <time>2017-03-01T10:29:42Z</time>
      </trkpt>
      <trkpt lat="46.82238" lon="12.27836">
        <ele>2118.88</ele>
        <time>2017-03-01T10:29:59Z</time>
      </trkpt>
      <trkpt lat="46.82237" lon="12.27841">
        <ele>2120.32</ele>
        <time>2017-03-01T10:30:14Z</time>
      </trkpt>
      <trkpt lat="46.82237" lon="12.27843">
        <ele>2120.32</ele>
        <time>2017-03-01T10:30:32Z</time>
      </trkpt>
      <trkpt lat="46.82231" lon="12.27847">
        <ele>2121.77</ele>
        <time>2017-03-01T10:30:48Z</time>
      </trkpt>
      <trkpt lat="46.82232" lon="12.27849">
        <ele>2122.25</ele>
        <time>2017-03-01T10:30:52Z</time>
      </trkpt>
      <trkpt lat="46.82235" lon="12.27852">
        <ele>2123.69</ele>
        <time>2017-03-01T10:31:03Z</time>
      </trkpt>
      <trkpt lat="46.8224" lon="12.27854">
        <ele>2125.13</ele>
        <time>2017-03-01T10:31:18Z</time>
      </trkpt>
      <trkpt lat="46.82244" lon="12.27855">
        <ele>2125.61</ele>
        <time>2017-03-01T10:31:32Z</time>
      </trkpt>
      <trkpt lat="46.82248" lon="12.27856">
        <ele>2126.57</ele>
        <time>2017-03-01T10:31:46Z</time>
      </trkpt>
      <trkpt lat="46.82252" lon="12.27855">
        <ele>2128.98</ele>
        <time>2017-03-01T10:32:01Z</time>
      </trkpt>
      <trkpt lat="46.82254" lon="12.27856">
        <ele>2128.98</ele>
        <time>2017-03-01T10:32:13Z</time>
      </trkpt>
      <trkpt lat="46.82257" lon="12.27859">
        <ele>2130.42</ele>
        <time>2017-03-01T10:32:27Z</time>
      </trkpt>
      <trkpt lat="46.82255" lon="12.27863">
        <ele>2131.86</ele>
        <time>2017-03-01T10:32:41Z</time>
      </trkpt>
      <trkpt lat="46.82255" lon="12.27869">
        <ele>2133.3</ele>
        <time>2017-03-01T10:32:55Z</time>
      </trkpt>
      <trkpt lat="46.82255" lon="12.27875">
        <ele>2134.74</ele>
        <time>2017-03-01T10:33:09Z</time>
      </trkpt>
      <trkpt lat="46.82253" lon="12.27882">
        <ele>2136.19</ele>
        <time>2017-03-01T10:33:24Z</time>
      </trkpt>
      <trkpt lat="46.82251" lon="12.27888">
        <ele>2138.11</ele>
        <time>2017-03-01T10:33:39Z</time>
      </trkpt>
      <trkpt lat="46.8225" lon="12.27892">
        <ele>2139.07</ele>
        <time>2017-03-01T10:33:52Z</time>
      </trkpt>
      <trkpt lat="46.8225" lon="12.27901">
        <ele>2141.47</ele>
        <time>2017-03-01T10:34:08Z</time>
      </trkpt>
      <trkpt lat="46.82252" lon="12.27905">
        <ele>2142.44</ele>
        <time>2017-03-01T10:34:22Z</time>
      </trkpt>
      <trkpt lat="46.82256" lon="12.27907">
        <ele>2143.4</ele>
        <time>2017-03-01T10:34:34Z</time>
      </trkpt>
      <trkpt lat="46.82259" lon="12.27909">
        <ele>2145.32</ele>
        <time>2017-03-01T10:34:47Z</time>
      </trkpt>
      <trkpt lat="46.82263" lon="12.27915">
        <ele>2146.28</ele>
        <time>2017-03-01T10:35:03Z</time>
      </trkpt>
      <trkpt lat="46.82262" lon="12.27919">
        <ele>2147.24</ele>
        <time>2017-03-01T10:35:16Z</time>
      </trkpt>
      <trkpt lat="46.82261" lon="12.27924">
        <ele>2149.16</ele>
        <time>2017-03-01T10:35:29Z</time>
      </trkpt>
      <trkpt lat="46.82258" lon="12.27929">
        <ele>2150.61</ele>
        <time>2017-03-01T10:35:43Z</time>
      </trkpt>
      <trkpt lat="46.82256" lon="12.27935">
        <ele>2152.05</ele>
        <time>2017-03-01T10:35:56Z</time>
      </trkpt>
      <trkpt lat="46.82253" lon="12.27941">
        <ele>2153.49</ele>
        <time>2017-03-01T10:36:13Z</time>
      </trkpt>
      <trkpt lat="46.82249" lon="12.27946">
        <ele>2155.41</ele>
        <time>2017-03-01T10:36:26Z</time>
      </trkpt>
      <trkpt lat="46.82246" lon="12.2795">
        <ele>2156.86</ele>
        <time>2017-03-01T10:36:41Z</time>
      </trkpt>
      <trkpt lat="46.82245" lon="12.27957">
        <ele>2158.3</ele>
        <time>2017-03-01T10:36:56Z</time>
      </trkpt>
      <trkpt lat="46.82247" lon="12.27962">
        <ele>2159.74</ele>
        <time>2017-03-01T10:37:08Z</time>
      </trkpt>
      <trkpt lat="46.82251" lon="12.27965">
        <ele>2160.7</ele>
        <time>2017-03-01T10:37:22Z</time>
      </trkpt>
      <trkpt lat="46.82255" lon="12.27967">
        <ele>2162.14</ele>
        <time>2017-03-01T10:37:36Z</time>
      </trkpt>
      <trkpt lat="46.82259" lon="12.2797">
        <ele>2163.58</ele>
        <time>2017-03-01T10:37:52Z</time>
      </trkpt>
      <trkpt lat="46.82263" lon="12.27973">
        <ele>2165.03</ele>
        <time>2017-03-01T10:38:08Z</time>
      </trkpt>
      <trkpt lat="46.82269" lon="12.27978">
        <ele>2166.95</ele>
        <time>2017-03-01T10:38:26Z</time>
      </trkpt>
      <trkpt lat="46.82274" lon="12.2798">
        <ele>2169.83</ele>
        <time>2017-03-01T10:38:45Z</time>
      </trkpt>
      <trkpt lat="46.82278" lon="12.27981">
        <ele>2170.79</ele>
        <time>2017-03-01T10:39:00Z</time>
      </trkpt>
      <trkpt lat="46.82283" lon="12.27988">
        <ele>2172.24</ele>
        <time>2017-03-01T10:39:16Z</time>
      </trkpt>
      <trkpt lat="46.82287" lon="12.27994">
        <ele>2173.2</ele>
        <time>2017-03-01T10:39:31Z</time>
      </trkpt>
      <trkpt lat="46.82289" lon="12.27999">
        <ele>2174.16</ele>
        <time>2017-03-01T10:39:46Z</time>
      </trkpt>
      <trkpt lat="46.82293" lon="12.28003">
        <ele>2175.6</ele>
        <time>2017-03-01T10:40:02Z</time>
      </trkpt>
      <trkpt lat="46.82295" lon="12.28006">
        <ele>2176.56</ele>
        <time>2017-03-01T10:40:15Z</time>
      </trkpt>
      <trkpt lat="46.82297" lon="12.28011">
        <ele>2178</ele>
        <time>2017-03-01T10:40:30Z</time>
      </trkpt>
      <trkpt lat="46.82298" lon="12.28013">
        <ele>2178.97</ele>
        <time>2017-03-01T10:40:50Z</time>
      </trkpt>
      <trkpt lat="46.82296" lon="12.28021">
        <ele>2180.89</ele>
        <time>2017-03-01T10:41:06Z</time>
      </trkpt>
      <trkpt lat="46.8229" lon="12.28026">
        <ele>2182.33</ele>
        <time>2017-03-01T10:41:23Z</time>
      </trkpt>
      <trkpt lat="46.82289" lon="12.28029">
        <ele>2183.29</ele>
        <time>2017-03-01T10:41:37Z</time>
      </trkpt>
      <trkpt lat="46.82284" lon="12.28031">
        <ele>2184.25</ele>
        <time>2017-03-01T10:41:55Z</time>
      </trkpt>
      <trkpt lat="46.82284" lon="12.28036">
        <ele>2186.18</ele>
        <time>2017-03-01T10:42:11Z</time>
      </trkpt>
      <trkpt lat="46.82285" lon="12.28041">
        <ele>2187.14</ele>
        <time>2017-03-01T10:42:24Z</time>
      </trkpt>
      <trkpt lat="46.82287" lon="12.28045">
        <ele>2188.1</ele>
        <time>2017-03-01T10:42:38Z</time>
      </trkpt>
      <trkpt lat="46.82288" lon="12.28049">
        <ele>2189.54</ele>
        <time>2017-03-01T10:42:53Z</time>
      </trkpt>
      <trkpt lat="46.82286" lon="12.28052">
        <ele>2190.98</ele>
        <time>2017-03-01T10:43:06Z</time>
      </trkpt>
      <trkpt lat="46.82283" lon="12.28055">
        <ele>2191.94</ele>
        <time>2017-03-01T10:43:19Z</time>
      </trkpt>
      <trkpt lat="46.82278" lon="12.28057">
        <ele>2193.39</ele>
        <time>2017-03-01T10:43:35Z</time>
      </trkpt>
      <trkpt lat="46.82279" lon="12.28064">
        <ele>2194.83</ele>
        <time>2017-03-01T10:43:49Z</time>
      </trkpt>
      <trkpt lat="46.8228" lon="12.28067">
        <ele>2195.79</ele>
        <time>2017-03-01T10:44:03Z</time>
      </trkpt>
      <trkpt lat="46.82282" lon="12.28072">
        <ele>2196.75</ele>
        <time>2017-03-01T10:44:19Z</time>
      </trkpt>
      <trkpt lat="46.8228" lon="12.28075">
        <ele>2198.67</ele>
        <time>2017-03-01T10:44:33Z</time>
      </trkpt>
      <trkpt lat="46.82277" lon="12.28076">
        <ele>2199.63</ele>
        <time>2017-03-01T10:44:47Z</time>
      </trkpt>
      <trkpt lat="46.82275" lon="12.28079">
        <ele>2201.08</ele>
        <time>2017-03-01T10:45:02Z</time>
      </trkpt>
      <trkpt lat="46.82276" lon="12.28086">
        <ele>2203</ele>
        <time>2017-03-01T10:45:16Z</time>
      </trkpt>
      <trkpt lat="46.82277" lon="12.28089">
        <ele>2203.96</ele>
        <time>2017-03-01T10:45:29Z</time>
      </trkpt>
      <trkpt lat="46.82279" lon="12.28094">
        <ele>2205.4</ele>
        <time>2017-03-01T10:45:45Z</time>
      </trkpt>
      <trkpt lat="46.8228" lon="12.28098">
        <ele>2207.32</ele>
        <time>2017-03-01T10:46:00Z</time>
      </trkpt>
      <trkpt lat="46.82276" lon="12.28103">
        <ele>2208.77</ele>
        <time>2017-03-01T10:46:14Z</time>
      </trkpt>
      <trkpt lat="46.82275" lon="12.28111">
        <ele>2210.21</ele>
        <time>2017-03-01T10:46:27Z</time>
      </trkpt>
      <trkpt lat="46.82274" lon="12.28119">
        <ele>2212.61</ele>
        <time>2017-03-01T10:46:42Z</time>
      </trkpt>
      <trkpt lat="46.82274" lon="12.28127">
        <ele>2214.05</ele>
        <time>2017-03-01T10:46:56Z</time>
      </trkpt>
      <trkpt lat="46.82274" lon="12.28134">
        <ele>2215.5</ele>
        <time>2017-03-01T10:47:12Z</time>
      </trkpt>
      <trkpt lat="46.82275" lon="12.28141">
        <ele>2216.46</ele>
        <time>2017-03-01T10:47:27Z</time>
      </trkpt>
      <trkpt lat="46.82274" lon="12.28149">
        <ele>2217.42</ele>
        <time>2017-03-01T10:47:41Z</time>
      </trkpt>
      <trkpt lat="46.82273" lon="12.28154">
        <ele>2218.38</ele>
        <time>2017-03-01T10:47:57Z</time>
      </trkpt>
      <trkpt lat="46.82272" lon="12.28161">
        <ele>2219.82</ele>
        <time>2017-03-01T10:48:14Z</time>
      </trkpt>
      <trkpt lat="46.82266" lon="12.28167">
        <ele>2221.74</ele>
        <time>2017-03-01T10:48:29Z</time>
      </trkpt>
      <trkpt lat="46.8226" lon="12.28171">
        <ele>2223.67</ele>
        <time>2017-03-01T10:48:45Z</time>
      </trkpt>
      <trkpt lat="46.82256" lon="12.28177">
        <ele>2224.15</ele>
        <time>2017-03-01T10:48:58Z</time>
      </trkpt>
      <trkpt lat="46.82253" lon="12.28181">
        <ele>2225.11</ele>
        <time>2017-03-01T10:49:13Z</time>
      </trkpt>
      <trkpt lat="46.82251" lon="12.28187">
        <ele>2227.03</ele>
        <time>2017-03-01T10:49:28Z</time>
      </trkpt>
      <trkpt lat="46.82251" lon="12.28196">
        <ele>2228.47</ele>
        <time>2017-03-01T10:49:44Z</time>
      </trkpt>
      <trkpt lat="46.82251" lon="12.28202">
        <ele>2229.92</ele>
        <time>2017-03-01T10:49:58Z</time>
      </trkpt>
      <trkpt lat="46.8225" lon="12.28209">
        <ele>2231.36</ele>
        <time>2017-03-01T10:50:12Z</time>
      </trkpt>
      <trkpt lat="46.82249" lon="12.28217">
        <ele>2232.32</ele>
        <time>2017-03-01T10:50:26Z</time>
      </trkpt>
      <trkpt lat="46.82248" lon="12.28224">
        <ele>2233.28</ele>
        <time>2017-03-01T10:50:39Z</time>
      </trkpt>
      <trkpt lat="46.82246" lon="12.2823">
        <ele>2234.72</ele>
        <time>2017-03-01T10:50:54Z</time>
      </trkpt>
      <trkpt lat="46.82246" lon="12.28239">
        <ele>2235.68</ele>
        <time>2017-03-01T10:51:09Z</time>
      </trkpt>
      <trkpt lat="46.82246" lon="12.28247">
        <ele>2237.61</ele>
        <time>2017-03-01T10:51:24Z</time>
      </trkpt>
      <trkpt lat="46.82243" lon="12.28252">
        <ele>2239.53</ele>
        <time>2017-03-01T10:51:39Z</time>
      </trkpt>
      <trkpt lat="46.82239" lon="12.28258">
        <ele>2240.01</ele>
        <time>2017-03-01T10:51:55Z</time>
      </trkpt>
      <trkpt lat="46.82235" lon="12.28262">
        <ele>2241.45</ele>
        <time>2017-03-01T10:52:10Z</time>
      </trkpt>
      <trkpt lat="46.8223" lon="12.28265">
        <ele>2243.37</ele>
        <time>2017-03-01T10:52:25Z</time>
      </trkpt>
      <trkpt lat="46.82228" lon="12.28271">
        <ele>2243.85</ele>
        <time>2017-03-01T10:52:40Z</time>
      </trkpt>
      <trkpt lat="46.82224" lon="12.2828">
        <ele>2245.78</ele>
        <time>2017-03-01T10:52:56Z</time>
      </trkpt>
      <trkpt lat="46.82223" lon="12.28285">
        <ele>2245.78</ele>
        <time>2017-03-01T10:53:10Z</time>
      </trkpt>
      <trkpt lat="46.82219" lon="12.28298">
        <ele>2246.74</ele>
        <time>2017-03-01T10:53:23Z</time>
      </trkpt>
      <trkpt lat="46.82216" lon="12.28307">
        <ele>2248.66</ele>
        <time>2017-03-01T10:53:38Z</time>
      </trkpt>
      <trkpt lat="46.82213" lon="12.28315">
        <ele>2249.62</ele>
        <time>2017-03-01T10:53:52Z</time>
      </trkpt>
      <trkpt lat="46.82209" lon="12.28327">
        <ele>2251.06</ele>
        <time>2017-03-01T10:54:08Z</time>
      </trkpt>
      <trkpt lat="46.82208" lon="12.2833">
        <ele>2251.06</ele>
        <time>2017-03-01T10:54:12Z</time>
      </trkpt>
      <trkpt lat="46.82203" lon="12.28341">
        <ele>2252.51</ele>
        <time>2017-03-01T10:54:26Z</time>
      </trkpt>
      <trkpt lat="46.82198" lon="12.28354">
        <ele>2254.91</ele>
        <time>2017-03-01T10:54:44Z</time>
      </trkpt>
      <trkpt lat="46.82195" lon="12.28362">
        <ele>2256.83</ele>
        <time>2017-03-01T10:54:58Z</time>
      </trkpt>
      <trkpt lat="46.82193" lon="12.28371">
        <ele>2257.79</ele>
        <time>2017-03-01T10:55:12Z</time>
      </trkpt>
      <trkpt lat="46.8219" lon="12.28377">
        <ele>2259.24</ele>
        <time>2017-03-01T10:55:26Z</time>
      </trkpt>
      <trkpt lat="46.82186" lon="12.28384">
        <ele>2261.16</ele>
        <time>2017-03-01T10:55:40Z</time>
      </trkpt>
      <trkpt lat="46.82184" lon="12.28396">
        <ele>2262.12</ele>
        <time>2017-03-01T10:55:54Z</time>
      </trkpt>
      <trkpt lat="46.82182" lon="12.28407">
        <ele>2263.08</ele>
        <time>2017-03-01T10:56:08Z</time>
      </trkpt>
      <trkpt lat="46.82181" lon="12.28417">
        <ele>2264.04</ele>
        <time>2017-03-01T10:56:23Z</time>
      </trkpt>
      <trkpt lat="46.82182" lon="12.28426">
        <ele>2265.48</ele>
        <time>2017-03-01T10:56:36Z</time>
      </trkpt>
      <trkpt lat="46.82183" lon="12.28437">
        <ele>2266.45</ele>
        <time>2017-03-01T10:56:51Z</time>
      </trkpt>
      <trkpt lat="46.82184" lon="12.28448">
        <ele>2268.37</ele>
        <time>2017-03-01T10:57:06Z</time>
      </trkpt>
      <trkpt lat="46.82184" lon="12.28457">
        <ele>2270.29</ele>
        <time>2017-03-01T10:57:21Z</time>
      </trkpt>
      <trkpt lat="46.82186" lon="12.28465">
        <ele>2272.21</ele>
        <time>2017-03-01T10:57:35Z</time>
      </trkpt>
      <trkpt lat="46.82186" lon="12.28473">
        <ele>2273.66</ele>
        <time>2017-03-01T10:57:48Z</time>
      </trkpt>
      <trkpt lat="46.82184" lon="12.28481">
        <ele>2275.58</ele>
        <time>2017-03-01T10:58:03Z</time>
      </trkpt>
      <trkpt lat="46.82183" lon="12.2849">
        <ele>2277.5</ele>
        <time>2017-03-01T10:58:18Z</time>
      </trkpt>
      <trkpt lat="46.82184" lon="12.28499">
        <ele>2278.46</ele>
        <time>2017-03-01T10:58:32Z</time>
      </trkpt>
      <trkpt lat="46.82185" lon="12.2851">
        <ele>2279.42</ele>
        <time>2017-03-01T10:58:47Z</time>
      </trkpt>
      <trkpt lat="46.82185" lon="12.28521">
        <ele>2281.35</ele>
        <time>2017-03-01T10:59:02Z</time>
      </trkpt>
      <trkpt lat="46.82184" lon="12.28529">
        <ele>2283.27</ele>
        <time>2017-03-01T10:59:19Z</time>
      </trkpt>
      <trkpt lat="46.82183" lon="12.28537">
        <ele>2284.71</ele>
        <time>2017-03-01T10:59:33Z</time>
      </trkpt>
      <trkpt lat="46.82182" lon="12.28547">
        <ele>2287.11</ele>
        <time>2017-03-01T10:59:50Z</time>
      </trkpt>
      <trkpt lat="46.82184" lon="12.28556">
        <ele>2288.56</ele>
        <time>2017-03-01T11:00:05Z</time>
      </trkpt>
      <trkpt lat="46.82185" lon="12.28566">
        <ele>2290.48</ele>
        <time>2017-03-01T11:00:20Z</time>
      </trkpt>
      <trkpt lat="46.82187" lon="12.28573">
        <ele>2291.92</ele>
        <time>2017-03-01T11:00:35Z</time>
      </trkpt>
      <trkpt lat="46.8219" lon="12.28584">
        <ele>2293.36</ele>
        <time>2017-03-01T11:00:50Z</time>
      </trkpt>
      <trkpt lat="46.82193" lon="12.2859">
        <ele>2293.84</ele>
        <time>2017-03-01T11:01:03Z</time>
      </trkpt>
      <trkpt lat="46.82196" lon="12.28599">
        <ele>2295.28</ele>
        <time>2017-03-01T11:01:22Z</time>
      </trkpt>
      <trkpt lat="46.82195" lon="12.28611">
        <ele>2296.73</ele>
        <time>2017-03-01T11:01:38Z</time>
      </trkpt>
      <trkpt lat="46.82195" lon="12.28622">
        <ele>2298.65</ele>
        <time>2017-03-01T11:01:55Z</time>
      </trkpt>
      <trkpt lat="46.82195" lon="12.28633">
        <ele>2300.09</ele>
        <time>2017-03-01T11:02:09Z</time>
      </trkpt>
      <trkpt lat="46.82195" lon="12.28643">
        <ele>2302.01</ele>
        <time>2017-03-01T11:02:25Z</time>
      </trkpt>
      <trkpt lat="46.82197" lon="12.28656">
        <ele>2303.94</ele>
        <time>2017-03-01T11:02:43Z</time>
      </trkpt>
      <trkpt lat="46.82198" lon="12.28663">
        <ele>2306.82</ele>
        <time>2017-03-01T11:02:56Z</time>
      </trkpt>
      <trkpt lat="46.82199" lon="12.28671">
        <ele>2307.3</ele>
        <time>2017-03-01T11:03:10Z</time>
      </trkpt>
      <trkpt lat="46.82201" lon="12.2868">
        <ele>2309.22</ele>
        <time>2017-03-01T11:03:27Z</time>
      </trkpt>
      <trkpt lat="46.82202" lon="12.28686">
        <ele>2310.67</ele>
        <time>2017-03-01T11:03:44Z</time>
      </trkpt>
      <trkpt lat="46.82201" lon="12.28689">
        <ele>2311.15</ele>
        <time>2017-03-01T11:03:58Z</time>
      </trkpt>
      <trkpt lat="46.82206" lon="12.28694">
        <ele>2312.59</ele>
        <time>2017-03-01T11:04:06Z</time>
      </trkpt>
      <trkpt lat="46.82204" lon="12.287">
        <ele>2314.03</ele>
        <time>2017-03-01T11:04:18Z</time>
      </trkpt>
      <trkpt lat="46.82201" lon="12.28708">
        <ele>2315.95</ele>
        <time>2017-03-01T11:04:32Z</time>
      </trkpt>
      <trkpt lat="46.82199" lon="12.28714">
        <ele>2316.91</ele>
        <time>2017-03-01T11:04:46Z</time>
      </trkpt>
      <trkpt lat="46.822" lon="12.28722">
        <ele>2319.32</ele>
        <time>2017-03-01T11:05:00Z</time>
      </trkpt>
      <trkpt lat="46.82203" lon="12.28731">
        <ele>2321.24</ele>
        <time>2017-03-01T11:05:16Z</time>
      </trkpt>
      <trkpt lat="46.82207" lon="12.28739">
        <ele>2323.16</ele>
        <time>2017-03-01T11:05:32Z</time>
      </trkpt>
      <trkpt lat="46.8221" lon="12.28748">
        <ele>2325.09</ele>
        <time>2017-03-01T11:05:48Z</time>
      </trkpt>
      <trkpt lat="46.82214" lon="12.28758">
        <ele>2326.53</ele>
        <time>2017-03-01T11:06:03Z</time>
      </trkpt>
      <trkpt lat="46.82214" lon="12.28765">
        <ele>2328.45</ele>
        <time>2017-03-01T11:06:19Z</time>
      </trkpt>
      <trkpt lat="46.82214" lon="12.28773">
        <ele>2331.33</ele>
        <time>2017-03-01T11:06:36Z</time>
      </trkpt>
      <trkpt lat="46.82213" lon="12.28779">
        <ele>2332.78</ele>
        <time>2017-03-01T11:06:50Z</time>
      </trkpt>
      <trkpt lat="46.82208" lon="12.28784">
        <ele>2334.22</ele>
        <time>2017-03-01T11:07:07Z</time>
      </trkpt>
      <trkpt lat="46.82201" lon="12.28789">
        <ele>2336.14</ele>
        <time>2017-03-01T11:07:24Z</time>
      </trkpt>
      <trkpt lat="46.82197" lon="12.28793">
        <ele>2337.58</ele>
        <time>2017-03-01T11:07:39Z</time>
      </trkpt>
      <trkpt lat="46.82193" lon="12.28796">
        <ele>2340.95</ele>
        <time>2017-03-01T11:07:53Z</time>
      </trkpt>
      <trkpt lat="46.82191" lon="12.28802">
        <ele>2342.39</ele>
        <time>2017-03-01T11:08:06Z</time>
      </trkpt>
      <trkpt lat="46.82189" lon="12.2881">
        <ele>2344.31</ele>
        <time>2017-03-01T11:08:22Z</time>
      </trkpt>
      <trkpt lat="46.82189" lon="12.28818">
        <ele>2346.72</ele>
        <time>2017-03-01T11:08:37Z</time>
      </trkpt>
      <trkpt lat="46.82186" lon="12.28824">
        <ele>2348.64</ele>
        <time>2017-03-01T11:08:52Z</time>
      </trkpt>
      <trkpt lat="46.82184" lon="12.28827">
        <ele>2351.04</ele>
        <time>2017-03-01T11:09:00Z</time>
      </trkpt>
      <trkpt lat="46.8218" lon="12.28835">
        <ele>2352.96</ele>
        <time>2017-03-01T11:09:17Z</time>
      </trkpt>
      <trkpt lat="46.82177" lon="12.28845">
        <ele>2355.85</ele>
        <time>2017-03-01T11:09:32Z</time>
      </trkpt>
      <trkpt lat="46.82175" lon="12.28852">
        <ele>2353.93</ele>
        <time>2017-03-01T11:09:44Z</time>
      </trkpt>
      <trkpt lat="46.82175" lon="12.28854">
        <ele>2356.81</ele>
        <time>2017-03-01T11:09:51Z</time>
      </trkpt>
      <trkpt lat="46.82177" lon="12.28867">
        <ele>2360.17</ele>
        <time>2017-03-01T11:10:06Z</time>
      </trkpt>
      <trkpt lat="46.82178" lon="12.2887">
        <ele>2363.54</ele>
        <time>2017-03-01T11:10:15Z</time>
      </trkpt>
      <trkpt lat="46.82178" lon="12.28871">
        <ele>2364.02</ele>
        <time>2017-03-01T11:10:16Z</time>
      </trkpt>
      <trkpt lat="46.8218" lon="12.28877">
        <ele>2366.9</ele>
        <time>2017-03-01T11:10:25Z</time>
      </trkpt>
      <trkpt lat="46.82185" lon="12.28887">
        <ele>2366.9</ele>
        <time>2017-03-01T11:10:41Z</time>
      </trkpt>
      <trkpt lat="46.82186" lon="12.28885">
        <ele>2370.27</ele>
        <time>2017-03-01T11:10:49Z</time>
      </trkpt>
      <trkpt lat="46.82186" lon="12.28885">
        <ele>2369.31</ele>
        <time>2017-03-01T11:10:50Z</time>
      </trkpt>
      <trkpt lat="46.82185" lon="12.28886">
        <ele>2366.9</ele>
        <time>2017-03-01T11:10:58Z</time>
      </trkpt>
      <trkpt lat="46.82186" lon="12.28886">
        <ele>2362.58</ele>
        <time>2017-03-01T11:10:59Z</time>
      </trkpt>
      <trkpt lat="46.82186" lon="12.28886">
        <ele>2364.02</ele>
        <time>2017-03-01T11:11:00Z</time>
      </trkpt>
      <trkpt lat="46.82186" lon="12.28886">
        <ele>2362.58</ele>
        <time>2017-03-01T11:11:26Z</time>
      </trkpt>
      <trkpt lat="46.82185" lon="12.28886">
        <ele>2362.1</ele>
        <time>2017-03-01T11:11:39Z</time>
      </trkpt>
      <trkpt lat="46.82186" lon="12.28887">
        <ele>2362.1</ele>
        <time>2017-03-01T11:12:20Z</time>
      </trkpt>
      <trkpt lat="46.82184" lon="12.28885">
        <ele>2362.1</ele>
        <time>2017-03-01T11:12:57Z</time>
      </trkpt>
      <trkpt lat="46.82184" lon="12.28885">
        <ele>2363.54</ele>
        <time>2017-03-01T11:13:28Z</time>
      </trkpt>
      <trkpt lat="46.82185" lon="12.28888">
        <ele>2362.58</ele>
        <time>2017-03-01T11:13:57Z</time>
      </trkpt>
      <trkpt lat="46.82185" lon="12.28888">
        <ele>2364.5</ele>
        <time>2017-03-01T11:14:03Z</time>
      </trkpt>
      <trkpt lat="46.82185" lon="12.28888">
        <ele>2366.42</ele>
        <time>2017-03-01T11:14:06Z</time>
      </trkpt>
      <trkpt lat="46.82185" lon="12.28888">
        <ele>2362.1</ele>
        <time>2017-03-01T11:14:08Z</time>
      </trkpt>
      <trkpt lat="46.82185" lon="12.28888">
        <ele>2361.62</ele>
        <time>2017-03-01T11:14:09Z</time>
      </trkpt>
      <trkpt lat="46.82185" lon="12.28888">
        <ele>2365.94</ele>
        <time>2017-03-01T11:14:19Z</time>
      </trkpt>
      <trkpt lat="46.82186" lon="12.28888">
        <ele>2369.31</ele>
        <time>2017-03-01T11:14:21Z</time>
      </trkpt>
      <trkpt lat="46.82186" lon="12.28887">
        <ele>2364.98</ele>
        <time>2017-03-01T11:14:27Z</time>
      </trkpt>
      <trkpt lat="46.82186" lon="12.28886">
        <ele>2368.35</ele>
        <time>2017-03-01T11:14:30Z</time>
      </trkpt>
      <trkpt lat="46.82186" lon="12.28886">
        <ele>2367.38</ele>
        <time>2017-03-01T11:14:31Z</time>
      </trkpt>
      <trkpt lat="46.82186" lon="12.28887">
        <ele>2365.46</ele>
        <time>2017-03-01T11:14:33Z</time>
      </trkpt>
      <trkpt lat="46.82186" lon="12.28885">
        <ele>2364.5</ele>
        <time>2017-03-01T11:14:46Z</time>
      </trkpt>
      <trkpt lat="46.82186" lon="12.28888">
        <ele>2359.21</ele>
        <time>2017-03-01T11:14:59Z</time>
      </trkpt>
      <trkpt lat="46.82186" lon="12.28888">
        <ele>2357.77</ele>
        <time>2017-03-01T11:15:01Z</time>
      </trkpt>
      <trkpt lat="46.82186" lon="12.28889">
        <ele>2363.06</ele>
        <time>2017-03-01T11:15:03Z</time>
      </trkpt>
      <trkpt lat="46.82186" lon="12.2889">
        <ele>2363.54</ele>
        <time>2017-03-01T11:15:05Z</time>
      </trkpt>
      <trkpt lat="46.8219" lon="12.28896">
        <ele>2362.58</ele>
        <time>2017-03-01T11:15:19Z</time>
      </trkpt>
      <trkpt lat="46.82191" lon="12.289">
        <ele>2362.1</ele>
        <time>2017-03-01T11:15:36Z</time>
      </trkpt>
      <trkpt lat="46.82191" lon="12.28901">
        <ele>2361.62</ele>
        <time>2017-03-01T11:15:38Z</time>
      </trkpt>
      <trkpt lat="46.82202" lon="12.28916">
        <ele>2361.14</ele>
        <time>2017-03-01T11:15:52Z</time>
      </trkpt>
      <trkpt lat="46.82206" lon="12.28924">
        <ele>2359.21</ele>
        <time>2017-03-01T11:16:02Z</time>
      </trkpt>
      <trkpt lat="46.82206" lon="12.28925">
        <ele>2359.69</ele>
        <time>2017-03-01T11:16:15Z</time>
      </trkpt>
      <trkpt lat="46.82209" lon="12.28939">
        <ele>2359.69</ele>
        <time>2017-03-01T11:16:29Z</time>
      </trkpt>
      <trkpt lat="46.8221" lon="12.28948">
        <ele>2358.73</ele>
        <time>2017-03-01T11:16:38Z</time>
      </trkpt>
      <trkpt lat="46.82211" lon="12.28958">
        <ele>2356.81</ele>
        <time>2017-03-01T11:16:47Z</time>
      </trkpt>
      <trkpt lat="46.82213" lon="12.28975">
        <ele>2355.37</ele>
        <time>2017-03-01T11:17:04Z</time>
      </trkpt>
      <trkpt lat="46.82214" lon="12.28986">
        <ele>2353.93</ele>
        <time>2017-03-01T11:17:11Z</time>
      </trkpt>
      <trkpt lat="46.82218" lon="12.29003">
        <ele>2351.52</ele>
        <time>2017-03-01T11:17:29Z</time>
      </trkpt>
      <trkpt lat="46.82219" lon="12.2901">
        <ele>2350.08</ele>
        <time>2017-03-01T11:17:35Z</time>
      </trkpt>
      <trkpt lat="46.8222" lon="12.29014">
        <ele>2348.64</ele>
        <time>2017-03-01T11:17:38Z</time>
      </trkpt>
      <trkpt lat="46.82221" lon="12.2902">
        <ele>2347.2</ele>
        <time>2017-03-01T11:17:41Z</time>
      </trkpt>
      <trkpt lat="46.82223" lon="12.29032">
        <ele>2344.31</ele>
        <time>2017-03-01T11:17:53Z</time>
      </trkpt>
      <trkpt lat="46.82223" lon="12.29035">
        <ele>2344.31</ele>
        <time>2017-03-01T11:17:59Z</time>
      </trkpt>
      <trkpt lat="46.82223" lon="12.29039">
        <ele>2342.39</ele>
        <time>2017-03-01T11:18:04Z</time>
      </trkpt>
      <trkpt lat="46.82227" lon="12.2905">
        <ele>2340.47</ele>
        <time>2017-03-01T11:18:18Z</time>
      </trkpt>
      <trkpt lat="46.82227" lon="12.29051">
        <ele>2339.99</ele>
        <time>2017-03-01T11:18:33Z</time>
      </trkpt>
      <trkpt lat="46.82228" lon="12.29054">
        <ele>2340.95</ele>
        <time>2017-03-01T11:18:42Z</time>
      </trkpt>
      <trkpt lat="46.82228" lon="12.29055">
        <ele>2339.02</ele>
        <time>2017-03-01T11:18:53Z</time>
      </trkpt>
      <trkpt lat="46.82231" lon="12.29063">
        <ele>2339.99</ele>
        <time>2017-03-01T11:19:01Z</time>
      </trkpt>
      <trkpt lat="46.82234" lon="12.29069">
        <ele>2339.99</ele>
        <time>2017-03-01T11:19:06Z</time>
      </trkpt>
      <trkpt lat="46.82241" lon="12.29083">
        <ele>2339.99</ele>
        <time>2017-03-01T11:19:19Z</time>
      </trkpt>
      <trkpt lat="46.82245" lon="12.29093">
        <ele>2339.99</ele>
        <time>2017-03-01T11:19:28Z</time>
      </trkpt>
      <trkpt lat="46.82251" lon="12.291">
        <ele>2340.47</ele>
        <time>2017-03-01T11:19:38Z</time>
      </trkpt>
      <trkpt lat="46.82252" lon="12.29103">
        <ele>2339.02</ele>
        <time>2017-03-01T11:19:41Z</time>
      </trkpt>
      <trkpt lat="46.82259" lon="12.29113">
        <ele>2337.58</ele>
        <time>2017-03-01T11:19:56Z</time>
      </trkpt>
      <trkpt lat="46.8226" lon="12.29113">
        <ele>2337.58</ele>
        <time>2017-03-01T11:19:57Z</time>
      </trkpt>
      <trkpt lat="46.82269" lon="12.29118">
        <ele>2337.58</ele>
        <time>2017-03-01T11:20:09Z</time>
      </trkpt>
      <trkpt lat="46.82275" lon="12.29123">
        <ele>2337.1</ele>
        <time>2017-03-01T11:20:17Z</time>
      </trkpt>
      <trkpt lat="46.82289" lon="12.29131">
        <ele>2334.7</ele>
        <time>2017-03-01T11:20:33Z</time>
      </trkpt>
      <trkpt lat="46.823" lon="12.2914">
        <ele>2336.14</ele>
        <time>2017-03-01T11:20:48Z</time>
      </trkpt>
      <trkpt lat="46.82309" lon="12.29148">
        <ele>2335.66</ele>
        <time>2017-03-01T11:21:03Z</time>
      </trkpt>
      <trkpt lat="46.82312" lon="12.29149">
        <ele>2336.62</ele>
        <time>2017-03-01T11:21:15Z</time>
      </trkpt>
      <trkpt lat="46.82319" lon="12.29155">
        <ele>2337.58</ele>
        <time>2017-03-01T11:21:29Z</time>
      </trkpt>
      <trkpt lat="46.82322" lon="12.29155">
        <ele>2339.99</ele>
        <time>2017-03-01T11:21:36Z</time>
      </trkpt>
      <trkpt lat="46.82327" lon="12.2916">
        <ele>2340.47</ele>
        <time>2017-03-01T11:21:51Z</time>
      </trkpt>
      <trkpt lat="46.82332" lon="12.29167">
        <ele>2341.91</ele>
        <time>2017-03-01T11:22:06Z</time>
      </trkpt>
      <trkpt lat="46.82338" lon="12.29177">
        <ele>2343.83</ele>
        <time>2017-03-01T11:22:26Z</time>
      </trkpt>
      <trkpt lat="46.82343" lon="12.29185">
        <ele>2345.27</ele>
        <time>2017-03-01T11:22:39Z</time>
      </trkpt>
      <trkpt lat="46.82347" lon="12.29193">
        <ele>2345.27</ele>
        <time>2017-03-01T11:22:58Z</time>
      </trkpt>
      <trkpt lat="46.82353" lon="12.29202">
        <ele>2345.27</ele>
        <time>2017-03-01T11:23:14Z</time>
      </trkpt>
      <trkpt lat="46.82356" lon="12.29209">
        <ele>2346.72</ele>
        <time>2017-03-01T11:23:28Z</time>
      </trkpt>
      <trkpt lat="46.8236" lon="12.29218">
        <ele>2347.68</ele>
        <time>2017-03-01T11:23:41Z</time>
      </trkpt>
      <trkpt lat="46.8236" lon="12.29222">
        <ele>2347.68</ele>
        <time>2017-03-01T11:23:48Z</time>
      </trkpt>
      <trkpt lat="46.82361" lon="12.2923">
        <ele>2347.2</ele>
        <time>2017-03-01T11:24:00Z</time>
      </trkpt>
      <trkpt lat="46.82364" lon="12.29239">
        <ele>2347.2</ele>
        <time>2017-03-01T11:24:17Z</time>
      </trkpt>
      <trkpt lat="46.8237" lon="12.29237">
        <ele>2348.16</ele>
        <time>2017-03-01T11:24:29Z</time>
      </trkpt>
      <trkpt lat="46.82371" lon="12.29238">
        <ele>2348.16</ele>
        <time>2017-03-01T11:24:38Z</time>
      </trkpt>
      <trkpt lat="46.82374" lon="12.29237">
        <ele>2352</ele>
        <time>2017-03-01T11:24:47Z</time>
      </trkpt>
      <trkpt lat="46.82375" lon="12.29247">
        <ele>2352</ele>
        <time>2017-03-01T11:25:04Z</time>
      </trkpt>
      <trkpt lat="46.82373" lon="12.29257">
        <ele>2352.96</ele>
        <time>2017-03-01T11:25:21Z</time>
      </trkpt>
      <trkpt lat="46.82372" lon="12.29263">
        <ele>2356.33</ele>
        <time>2017-03-01T11:25:30Z</time>
      </trkpt>
      <trkpt lat="46.82376" lon="12.29268">
        <ele>2358.25</ele>
        <time>2017-03-01T11:25:42Z</time>
      </trkpt>
      <trkpt lat="46.82381" lon="12.29263">
        <ele>2359.21</ele>
        <time>2017-03-01T11:25:55Z</time>
      </trkpt>
      <trkpt lat="46.82383" lon="12.29262">
        <ele>2360.17</ele>
        <time>2017-03-01T11:26:01Z</time>
      </trkpt>
      <trkpt lat="46.82384" lon="12.29266">
        <ele>2359.21</ele>
        <time>2017-03-01T11:26:16Z</time>
      </trkpt>
      <trkpt lat="46.82387" lon="12.29274">
        <ele>2359.21</ele>
        <time>2017-03-01T11:26:32Z</time>
      </trkpt>
      <trkpt lat="46.82387" lon="12.29274">
        <ele>2360.65</ele>
        <time>2017-03-01T11:26:35Z</time>
      </trkpt>
      <trkpt lat="46.82388" lon="12.29279">
        <ele>2361.62</ele>
        <time>2017-03-01T11:26:48Z</time>
      </trkpt>
      <trkpt lat="46.82393" lon="12.29279">
        <ele>2363.54</ele>
        <time>2017-03-01T11:27:01Z</time>
      </trkpt>
      <trkpt lat="46.82398" lon="12.29277">
        <ele>2364.02</ele>
        <time>2017-03-01T11:27:16Z</time>
      </trkpt>
      <trkpt lat="46.82396" lon="12.29282">
        <ele>2364.5</ele>
        <time>2017-03-01T11:27:28Z</time>
      </trkpt>
      <trkpt lat="46.82397" lon="12.2929">
        <ele>2364.5</ele>
        <time>2017-03-01T11:27:42Z</time>
      </trkpt>
      <trkpt lat="46.82397" lon="12.29296">
        <ele>2366.42</ele>
        <time>2017-03-01T11:27:56Z</time>
      </trkpt>
      <trkpt lat="46.82399" lon="12.29303">
        <ele>2366.9</ele>
        <time>2017-03-01T11:28:08Z</time>
      </trkpt>
      <trkpt lat="46.824" lon="12.29306">
        <ele>2369.31</ele>
        <time>2017-03-01T11:28:18Z</time>
      </trkpt>
      <trkpt lat="46.824" lon="12.29307">
        <ele>2368.35</ele>
        <time>2017-03-01T11:28:20Z</time>
      </trkpt>
      <trkpt lat="46.824" lon="12.29314">
        <ele>2369.31</ele>
        <time>2017-03-01T11:28:34Z</time>
      </trkpt>
      <trkpt lat="46.82403" lon="12.29313">
        <ele>2370.27</ele>
        <time>2017-03-01T11:28:47Z</time>
      </trkpt>
      <trkpt lat="46.82406" lon="12.2931">
        <ele>2373.63</ele>
        <time>2017-03-01T11:28:59Z</time>
      </trkpt>
      <trkpt lat="46.82411" lon="12.29307">
        <ele>2374.11</ele>
        <time>2017-03-01T11:29:13Z</time>
      </trkpt>
      <trkpt lat="46.82414" lon="12.29305">
        <ele>2376.52</ele>
        <time>2017-03-01T11:29:20Z</time>
      </trkpt>
      <trkpt lat="46.82417" lon="12.29301">
        <ele>2376.52</ele>
        <time>2017-03-01T11:29:36Z</time>
      </trkpt>
      <trkpt lat="46.82419" lon="12.29305">
        <ele>2378.92</ele>
        <time>2017-03-01T11:29:45Z</time>
      </trkpt>
      <trkpt lat="46.8242" lon="12.29313">
        <ele>2377.96</ele>
        <time>2017-03-01T11:30:00Z</time>
      </trkpt>
      <trkpt lat="46.8242" lon="12.29317">
        <ele>2379.4</ele>
        <time>2017-03-01T11:30:09Z</time>
      </trkpt>
      <trkpt lat="46.82421" lon="12.29323">
        <ele>2379.88</ele>
        <time>2017-03-01T11:30:23Z</time>
      </trkpt>
      <trkpt lat="46.8242" lon="12.29329">
        <ele>2381.8</ele>
        <time>2017-03-01T11:30:35Z</time>
      </trkpt>
      <trkpt lat="46.8242" lon="12.29332">
        <ele>2383.73</ele>
        <time>2017-03-01T11:30:43Z</time>
      </trkpt>
      <trkpt lat="46.82422" lon="12.29332">
        <ele>2382.28</ele>
        <time>2017-03-01T11:30:52Z</time>
      </trkpt>
      <trkpt lat="46.82427" lon="12.2933">
        <ele>2384.69</ele>
        <time>2017-03-01T11:31:06Z</time>
      </trkpt>
      <trkpt lat="46.82426" lon="12.29337">
        <ele>2384.21</ele>
        <time>2017-03-01T11:31:19Z</time>
      </trkpt>
      <trkpt lat="46.82426" lon="12.29343">
        <ele>2386.61</ele>
        <time>2017-03-01T11:31:32Z</time>
      </trkpt>
      <trkpt lat="46.82425" lon="12.29347">
        <ele>2388.53</ele>
        <time>2017-03-01T11:31:49Z</time>
      </trkpt>
      <trkpt lat="46.82425" lon="12.29352">
        <ele>2389.01</ele>
        <time>2017-03-01T11:32:02Z</time>
      </trkpt>
      <trkpt lat="46.82426" lon="12.29361">
        <ele>2390.94</ele>
        <time>2017-03-01T11:32:16Z</time>
      </trkpt>
      <trkpt lat="46.82427" lon="12.29367">
        <ele>2392.86</ele>
        <time>2017-03-01T11:32:29Z</time>
      </trkpt>
      <trkpt lat="46.82431" lon="12.29372">
        <ele>2394.3</ele>
        <time>2017-03-01T11:32:44Z</time>
      </trkpt>
      <trkpt lat="46.82434" lon="12.29372">
        <ele>2395.26</ele>
        <time>2017-03-01T11:32:58Z</time>
      </trkpt>
      <trkpt lat="46.82439" lon="12.29372">
        <ele>2396.7</ele>
        <time>2017-03-01T11:33:13Z</time>
      </trkpt>
      <trkpt lat="46.82443" lon="12.29371">
        <ele>2398.63</ele>
        <time>2017-03-01T11:33:27Z</time>
      </trkpt>
      <trkpt lat="46.82448" lon="12.29371">
        <ele>2399.59</ele>
        <time>2017-03-01T11:33:43Z</time>
      </trkpt>
      <trkpt lat="46.82454" lon="12.29368">
        <ele>2400.55</ele>
        <time>2017-03-01T11:33:59Z</time>
      </trkpt>
      <trkpt lat="46.82454" lon="12.29371">
        <ele>2401.99</ele>
        <time>2017-03-01T11:34:13Z</time>
      </trkpt>
      <trkpt lat="46.82454" lon="12.29379">
        <ele>2404.39</ele>
        <time>2017-03-01T11:34:30Z</time>
      </trkpt>
      <trkpt lat="46.82454" lon="12.29387">
        <ele>2406.32</ele>
        <time>2017-03-01T11:34:45Z</time>
      </trkpt>
      <trkpt lat="46.82454" lon="12.29393">
        <ele>2407.28</ele>
        <time>2017-03-01T11:34:58Z</time>
      </trkpt>
      <trkpt lat="46.82457" lon="12.29398">
        <ele>2408.72</ele>
        <time>2017-03-01T11:35:12Z</time>
      </trkpt>
      <trkpt lat="46.82463" lon="12.29394">
        <ele>2410.64</ele>
        <time>2017-03-01T11:35:27Z</time>
      </trkpt>
      <trkpt lat="46.82468" lon="12.29391">
        <ele>2413.05</ele>
        <time>2017-03-01T11:35:43Z</time>
      </trkpt>
      <trkpt lat="46.82474" lon="12.29388">
        <ele>2413.05</ele>
        <time>2017-03-01T11:35:59Z</time>
      </trkpt>
      <trkpt lat="46.82477" lon="12.2939">
        <ele>2415.45</ele>
        <time>2017-03-01T11:36:15Z</time>
      </trkpt>
      <trkpt lat="46.82479" lon="12.29396">
        <ele>2417.37</ele>
        <time>2017-03-01T11:36:32Z</time>
      </trkpt>
      <trkpt lat="46.82482" lon="12.29399">
        <ele>2418.81</ele>
        <time>2017-03-01T11:36:50Z</time>
      </trkpt>
      <trkpt lat="46.82487" lon="12.29402">
        <ele>2420.74</ele>
        <time>2017-03-01T11:37:09Z</time>
      </trkpt>
      <trkpt lat="46.82491" lon="12.29403">
        <ele>2422.66</ele>
        <time>2017-03-01T11:37:22Z</time>
      </trkpt>
      <trkpt lat="46.82494" lon="12.29404">
        <ele>2423.62</ele>
        <time>2017-03-01T11:37:40Z</time>
      </trkpt>
      <trkpt lat="46.82497" lon="12.29405">
        <ele>2424.58</ele>
        <time>2017-03-01T11:37:55Z</time>
      </trkpt>
      <trkpt lat="46.825" lon="12.29408">
        <ele>2426.5</ele>
        <time>2017-03-01T11:38:15Z</time>
      </trkpt>
      <trkpt lat="46.82501" lon="12.29414">
        <ele>2429.39</ele>
        <time>2017-03-01T11:38:29Z</time>
      </trkpt>
      <trkpt lat="46.82503" lon="12.29413">
        <ele>2430.83</ele>
        <time>2017-03-01T11:38:33Z</time>
      </trkpt>
      <trkpt lat="46.82504" lon="12.2942">
        <ele>2430.83</ele>
        <time>2017-03-01T11:38:48Z</time>
      </trkpt>
      <trkpt lat="46.82504" lon="12.29426">
        <ele>2431.31</ele>
        <time>2017-03-01T11:39:02Z</time>
      </trkpt>
      <trkpt lat="46.82504" lon="12.29432">
        <ele>2432.27</ele>
        <time>2017-03-01T11:39:16Z</time>
      </trkpt>
      <trkpt lat="46.82502" lon="12.29439">
        <ele>2434.2</ele>
        <time>2017-03-01T11:39:31Z</time>
      </trkpt>
      <trkpt lat="46.82501" lon="12.29443">
        <ele>2436.6</ele>
        <time>2017-03-01T11:39:42Z</time>
      </trkpt>
      <trkpt lat="46.82499" lon="12.29451">
        <ele>2439</ele>
        <time>2017-03-01T11:39:58Z</time>
      </trkpt>
      <trkpt lat="46.82499" lon="12.29456">
        <ele>2440.44</ele>
        <time>2017-03-01T11:40:13Z</time>
      </trkpt>
      <trkpt lat="46.82501" lon="12.29459">
        <ele>2442.85</ele>
        <time>2017-03-01T11:40:26Z</time>
      </trkpt>
      <trkpt lat="46.82506" lon="12.29458">
        <ele>2442.85</ele>
        <time>2017-03-01T11:40:41Z</time>
      </trkpt>
      <trkpt lat="46.8251" lon="12.29458">
        <ele>2444.29</ele>
        <time>2017-03-01T11:40:53Z</time>
      </trkpt>
      <trkpt lat="46.82515" lon="12.29459">
        <ele>2445.73</ele>
        <time>2017-03-01T11:41:08Z</time>
      </trkpt>
      <trkpt lat="46.82519" lon="12.29462">
        <ele>2446.69</ele>
        <time>2017-03-01T11:41:21Z</time>
      </trkpt>
      <trkpt lat="46.82523" lon="12.29464">
        <ele>2449.58</ele>
        <time>2017-03-01T11:41:36Z</time>
      </trkpt>
      <trkpt lat="46.82527" lon="12.29468">
        <ele>2451.02</ele>
        <time>2017-03-01T11:41:50Z</time>
      </trkpt>
      <trkpt lat="46.82531" lon="12.29471">
        <ele>2452.46</ele>
        <time>2017-03-01T11:42:06Z</time>
      </trkpt>
      <trkpt lat="46.82534" lon="12.29476">
        <ele>2455.34</ele>
        <time>2017-03-01T11:42:19Z</time>
      </trkpt>
      <trkpt lat="46.82536" lon="12.29478">
        <ele>2454.86</ele>
        <time>2017-03-01T11:42:34Z</time>
      </trkpt>
      <trkpt lat="46.8254" lon="12.29477">
        <ele>2454.86</ele>
        <time>2017-03-01T11:42:43Z</time>
      </trkpt>
      <trkpt lat="46.82542" lon="12.29478">
        <ele>2452.94</ele>
        <time>2017-03-01T11:42:48Z</time>
      </trkpt>
      <trkpt lat="46.82547" lon="12.29485">
        <ele>2452.94</ele>
        <time>2017-03-01T11:43:03Z</time>
      </trkpt>
      <trkpt lat="46.8255" lon="12.29487">
        <ele>2454.38</ele>
        <time>2017-03-01T11:43:20Z</time>
      </trkpt>
      <trkpt lat="46.82551" lon="12.29494">
        <ele>2455.34</ele>
        <time>2017-03-01T11:43:32Z</time>
      </trkpt>
      <trkpt lat="46.82547" lon="12.29494">
        <ele>2455.82</ele>
        <time>2017-03-01T11:43:45Z</time>
      </trkpt>
      <trkpt lat="46.82544" lon="12.29494">
        <ele>2456.79</ele>
        <time>2017-03-01T11:43:54Z</time>
      </trkpt>
      <trkpt lat="46.82543" lon="12.29495">
        <ele>2458.71</ele>
        <time>2017-03-01T11:43:56Z</time>
      </trkpt>
      <trkpt lat="46.82544" lon="12.29498">
        <ele>2459.19</ele>
        <time>2017-03-01T11:44:07Z</time>
      </trkpt>
      <trkpt lat="46.82544" lon="12.29497">
        <ele>2458.71</ele>
        <time>2017-03-01T11:44:25Z</time>
      </trkpt>
      <trkpt lat="46.82543" lon="12.29496">
        <ele>2459.19</ele>
        <time>2017-03-01T11:44:44Z</time>
      </trkpt>
      <trkpt lat="46.82544" lon="12.29498">
        <ele>2459.67</ele>
        <time>2017-03-01T11:44:46Z</time>
      </trkpt>
      <trkpt lat="46.82546" lon="12.29502">
        <ele>2461.11</ele>
        <time>2017-03-01T11:44:58Z</time>
      </trkpt>
      <trkpt lat="46.82547" lon="12.2951">
        <ele>2461.59</ele>
        <time>2017-03-01T11:45:14Z</time>
      </trkpt>
      <trkpt lat="46.82549" lon="12.29514">
        <ele>2465.44</ele>
        <time>2017-03-01T11:45:23Z</time>
      </trkpt>
      <trkpt lat="46.82549" lon="12.29514">
        <ele>2464</ele>
        <time>2017-03-01T11:45:24Z</time>
      </trkpt>
      <trkpt lat="46.82552" lon="12.29519">
        <ele>2464.96</ele>
        <time>2017-03-01T11:45:41Z</time>
      </trkpt>
      <trkpt lat="46.82553" lon="12.29523">
        <ele>2464.48</ele>
        <time>2017-03-01T11:45:57Z</time>
      </trkpt>
      <trkpt lat="46.82555" lon="12.29524">
        <ele>2464.48</ele>
        <time>2017-03-01T11:46:17Z</time>
      </trkpt>
      <trkpt lat="46.82555" lon="12.29521">
        <ele>2464.48</ele>
        <time>2017-03-01T11:46:42Z</time>
      </trkpt>
      <trkpt lat="46.82557" lon="12.29522">
        <ele>2464.48</ele>
        <time>2017-03-01T11:47:05Z</time>
      </trkpt>
      <trkpt lat="46.8256" lon="12.29523">
        <ele>2463.04</ele>
        <time>2017-03-01T11:47:20Z</time>
      </trkpt>
      <trkpt lat="46.82561" lon="12.29528">
        <ele>2462.07</ele>
        <time>2017-03-01T11:47:35Z</time>
      </trkpt>
      <trkpt lat="46.82564" lon="12.29531">
        <ele>2461.59</ele>
        <time>2017-03-01T11:47:42Z</time>
      </trkpt>
      <trkpt lat="46.8257" lon="12.29537">
        <ele>2461.59</ele>
        <time>2017-03-01T11:47:55Z</time>
      </trkpt>
      <trkpt lat="46.82575" lon="12.29542">
        <ele>2463.52</ele>
        <time>2017-03-01T11:48:09Z</time>
      </trkpt>
      <trkpt lat="46.82585" lon="12.29546">
        <ele>2464.96</ele>
        <time>2017-03-01T11:48:26Z</time>
      </trkpt>
      <trkpt lat="46.82593" lon="12.29551">
        <ele>2463.52</ele>
        <time>2017-03-01T11:48:41Z</time>
      </trkpt>
      <trkpt lat="46.826" lon="12.2955">
        <ele>2464</ele>
        <time>2017-03-01T11:48:59Z</time>
      </trkpt>
      <trkpt lat="46.82602" lon="12.29554">
        <ele>2464</ele>
        <time>2017-03-01T11:49:15Z</time>
      </trkpt>
      <trkpt lat="46.82601" lon="12.29552">
        <ele>2462.55</ele>
        <time>2017-03-01T11:49:27Z</time>
      </trkpt>
      <trkpt lat="46.82601" lon="12.29553">
        <ele>2462.55</ele>
        <time>2017-03-01T11:49:41Z</time>
      </trkpt>
      <trkpt lat="46.82601" lon="12.29551">
        <ele>2462.55</ele>
        <time>2017-03-01T11:50:11Z</time>
      </trkpt>
      <trkpt lat="46.82603" lon="12.29552">
        <ele>2462.55</ele>
        <time>2017-03-01T11:50:33Z</time>
      </trkpt>
      <trkpt lat="46.82601" lon="12.29552">
        <ele>2463.04</ele>
        <time>2017-03-01T11:51:08Z</time>
      </trkpt>
      <trkpt lat="46.82602" lon="12.29553">
        <ele>2466.4</ele>
        <time>2017-03-01T11:51:26Z</time>
      </trkpt>
      <trkpt lat="46.82601" lon="12.29553">
        <ele>2463.52</ele>
        <time>2017-03-01T11:51:38Z</time>
      </trkpt>
      <trkpt lat="46.82602" lon="12.29555">
        <ele>2464.48</ele>
        <time>2017-03-01T11:51:50Z</time>
      </trkpt>
      <trkpt lat="46.82607" lon="12.29553">
        <ele>2466.88</ele>
        <time>2017-03-01T11:52:08Z</time>
      </trkpt>
      <trkpt lat="46.82609" lon="12.29552">
        <ele>2468.8</ele>
        <time>2017-03-01T11:52:20Z</time>
      </trkpt>
      <trkpt lat="46.82612" lon="12.29553">
        <ele>2470.24</ele>
        <time>2017-03-01T11:52:34Z</time>
      </trkpt>
      <trkpt lat="46.82616" lon="12.29553">
        <ele>2472.65</ele>
        <time>2017-03-01T11:52:51Z</time>
      </trkpt>
      <trkpt lat="46.82616" lon="12.29552">
        <ele>2470.73</ele>
        <time>2017-03-01T11:52:57Z</time>
      </trkpt>
      <trkpt lat="46.82616" lon="12.29552">
        <ele>2473.13</ele>
        <time>2017-03-01T11:53:02Z</time>
      </trkpt>
      <trkpt lat="46.82619" lon="12.29552">
        <ele>2473.61</ele>
        <time>2017-03-01T11:53:15Z</time>
      </trkpt>
      <trkpt lat="46.82623" lon="12.29549">
        <ele>2474.57</ele>
        <time>2017-03-01T11:53:29Z</time>
      </trkpt>
      <trkpt lat="46.82624" lon="12.29549">
        <ele>2476.49</ele>
        <time>2017-03-01T11:53:44Z</time>
      </trkpt>
      <trkpt lat="46.82626" lon="12.29549">
        <ele>2476.97</ele>
        <time>2017-03-01T11:53:54Z</time>
      </trkpt>
      <trkpt lat="46.82628" lon="12.29548">
        <ele>2477.45</ele>
        <time>2017-03-01T11:54:08Z</time>
      </trkpt>
      <trkpt lat="46.82626" lon="12.29548">
        <ele>2478.42</ele>
        <time>2017-03-01T11:54:22Z</time>
      </trkpt>
      <trkpt lat="46.82625" lon="12.29552">
        <ele>2478.9</ele>
        <time>2017-03-01T11:54:41Z</time>
      </trkpt>
      <trkpt lat="46.82629" lon="12.29555">
        <ele>2480.34</ele>
        <time>2017-03-01T11:54:55Z</time>
      </trkpt>
      <trkpt lat="46.82629" lon="12.29556">
        <ele>2482.26</ele>
        <time>2017-03-01T11:55:10Z</time>
      </trkpt>
      <trkpt lat="46.82634" lon="12.29552">
        <ele>2482.74</ele>
        <time>2017-03-01T11:55:26Z</time>
      </trkpt>
      <trkpt lat="46.82634" lon="12.29552">
        <ele>2481.3</ele>
        <time>2017-03-01T11:55:48Z</time>
      </trkpt>
      <trkpt lat="46.82634" lon="12.29552">
        <ele>2481.78</ele>
        <time>2017-03-01T11:56:07Z</time>
      </trkpt>
      <trkpt lat="46.82634" lon="12.2955">
        <ele>2483.7</ele>
        <time>2017-03-01T11:56:24Z</time>
      </trkpt>
      <trkpt lat="46.82635" lon="12.2955">
        <ele>2482.74</ele>
        <time>2017-03-01T11:56:36Z</time>
      </trkpt>
      <trkpt lat="46.82635" lon="12.2955">
        <ele>2483.7</ele>
        <time>2017-03-01T11:56:38Z</time>
      </trkpt>
      <trkpt lat="46.82635" lon="12.2955">
        <ele>2482.74</ele>
        <time>2017-03-01T11:56:42Z</time>
      </trkpt>
      <trkpt lat="46.82636" lon="12.2955">
        <ele>2482.74</ele>
        <time>2017-03-01T11:56:55Z</time>
      </trkpt>
      <trkpt lat="46.82638" lon="12.29551">
        <ele>2484.66</ele>
        <time>2017-03-01T11:57:13Z</time>
      </trkpt>
      <trkpt lat="46.82638" lon="12.2955">
        <ele>2485.63</ele>
        <time>2017-03-01T11:57:25Z</time>
      </trkpt>
      <trkpt lat="46.82638" lon="12.29552">
        <ele>2486.59</ele>
        <time>2017-03-01T11:57:41Z</time>
      </trkpt>
      <trkpt lat="46.82637" lon="12.29557">
        <ele>2488.51</ele>
        <time>2017-03-01T11:57:53Z</time>
      </trkpt>
      <trkpt lat="46.82638" lon="12.29555">
        <ele>2488.99</ele>
        <time>2017-03-01T11:58:14Z</time>
      </trkpt>
      <trkpt lat="46.8264" lon="12.29559">
        <ele>2490.43</ele>
        <time>2017-03-01T11:58:31Z</time>
      </trkpt>
      <trkpt lat="46.82642" lon="12.29561">
        <ele>2491.87</ele>
        <time>2017-03-01T11:58:44Z</time>
      </trkpt>
      <trkpt lat="46.82644" lon="12.2956">
        <ele>2493.8</ele>
        <time>2017-03-01T11:58:57Z</time>
      </trkpt>
      <trkpt lat="46.82646" lon="12.29561">
        <ele>2493.32</ele>
        <time>2017-03-01T11:59:10Z</time>
      </trkpt>
      <trkpt lat="46.82649" lon="12.29561">
        <ele>2493.8</ele>
        <time>2017-03-01T11:59:23Z</time>
      </trkpt>
      <trkpt lat="46.82652" lon="12.29558">
        <ele>2494.76</ele>
        <time>2017-03-01T11:59:37Z</time>
      </trkpt>
      <trkpt lat="46.82653" lon="12.29558">
        <ele>2494.76</ele>
        <time>2017-03-01T11:59:54Z</time>
      </trkpt>
      <trkpt lat="46.82655" lon="12.29558">
        <ele>2493.8</ele>
        <time>2017-03-01T12:00:10Z</time>
      </trkpt>
      <trkpt lat="46.82656" lon="12.29556">
        <ele>2493.8</ele>
        <time>2017-03-01T12:00:25Z</time>
      </trkpt>
      <trkpt lat="46.82657" lon="12.29554">
        <ele>2493.8</ele>
        <time>2017-03-01T12:00:49Z</time>
      </trkpt>
      <trkpt lat="46.82661" lon="12.2955">
        <ele>2493.8</ele>
        <time>2017-03-01T12:01:07Z</time>
      </trkpt>
      <trkpt lat="46.82661" lon="12.29545">
        <ele>2492.84</ele>
        <time>2017-03-01T12:01:23Z</time>
      </trkpt>
      <trkpt lat="46.8266" lon="12.29546">
        <ele>2493.32</ele>
        <time>2017-03-01T12:01:45Z</time>
      </trkpt>
      <trkpt lat="46.8266" lon="12.2955">
        <ele>2493.8</ele>
        <time>2017-03-01T12:02:08Z</time>
      </trkpt>
      <trkpt lat="46.82663" lon="12.29548">
        <ele>2493.8</ele>
        <time>2017-03-01T12:02:21Z</time>
      </trkpt>
      <trkpt lat="46.82661" lon="12.29545">
        <ele>2493.32</ele>
        <time>2017-03-01T12:02:41Z</time>
      </trkpt>
      <trkpt lat="46.8266" lon="12.29545">
        <ele>2494.28</ele>
        <time>2017-03-01T12:02:46Z</time>
      </trkpt>
      <trkpt lat="46.82661" lon="12.29546">
        <ele>2493.8</ele>
        <time>2017-03-01T12:03:11Z</time>
      </trkpt>
      <trkpt lat="46.82662" lon="12.29546">
        <ele>2492.36</ele>
        <time>2017-03-01T12:03:16Z</time>
      </trkpt>
      <trkpt lat="46.82663" lon="12.29546">
        <ele>2493.8</ele>
        <time>2017-03-01T12:03:22Z</time>
      </trkpt>
      <trkpt lat="46.82663" lon="12.29545">
        <ele>2495.24</ele>
        <time>2017-03-01T12:03:40Z</time>
      </trkpt>
      <trkpt lat="46.82663" lon="12.29543">
        <ele>2495.24</ele>
        <time>2017-03-01T12:03:53Z</time>
      </trkpt>
      <trkpt lat="46.8266" lon="12.29547">
        <ele>2495.24</ele>
        <time>2017-03-01T12:04:11Z</time>
      </trkpt>
      <trkpt lat="46.82661" lon="12.29548">
        <ele>2496.2</ele>
        <time>2017-03-01T12:04:23Z</time>
      </trkpt>
      <trkpt lat="46.82662" lon="12.29546">
        <ele>2495.24</ele>
        <time>2017-03-01T12:04:44Z</time>
      </trkpt>
      <trkpt lat="46.82663" lon="12.29544">
        <ele>2494.76</ele>
        <time>2017-03-01T12:04:59Z</time>
      </trkpt>
      <trkpt lat="46.82661" lon="12.29547">
        <ele>2494.76</ele>
        <time>2017-03-01T12:05:20Z</time>
      </trkpt>
      <trkpt lat="46.82661" lon="12.29545">
        <ele>2494.76</ele>
        <time>2017-03-01T12:05:39Z</time>
      </trkpt>
      <trkpt lat="46.82662" lon="12.29543">
        <ele>2494.76</ele>
        <time>2017-03-01T12:06:13Z</time>
      </trkpt>
      <trkpt lat="46.82661" lon="12.29544">
        <ele>2495.72</ele>
        <time>2017-03-01T12:06:39Z</time>
      </trkpt>
      <trkpt lat="46.82662" lon="12.29543">
        <ele>2494.76</ele>
        <time>2017-03-01T12:07:09Z</time>
      </trkpt>
      <trkpt lat="46.82662" lon="12.29541">
        <ele>2493.8</ele>
        <time>2017-03-01T12:07:34Z</time>
      </trkpt>
      <trkpt lat="46.82662" lon="12.29543">
        <ele>2494.28</ele>
        <time>2017-03-01T12:08:06Z</time>
      </trkpt>
      <trkpt lat="46.82661" lon="12.29547">
        <ele>2494.28</ele>
        <time>2017-03-01T12:08:17Z</time>
      </trkpt>
      <trkpt lat="46.82661" lon="12.29546">
        <ele>2494.28</ele>
        <time>2017-03-01T12:08:18Z</time>
      </trkpt>
      <trkpt lat="46.82663" lon="12.29543">
        <ele>2494.76</ele>
        <time>2017-03-01T12:08:24Z</time>
      </trkpt>
      <trkpt lat="46.82662" lon="12.29544">
        <ele>2492.84</ele>
        <time>2017-03-01T12:08:38Z</time>
      </trkpt>
      <trkpt lat="46.82662" lon="12.29544">
        <ele>2492.36</ele>
        <time>2017-03-01T12:08:39Z</time>
      </trkpt>
      <trkpt lat="46.82663" lon="12.29545">
        <ele>2493.8</ele>
        <time>2017-03-01T12:08:52Z</time>
      </trkpt>
      <trkpt lat="46.82661" lon="12.29548">
        <ele>2494.28</ele>
        <time>2017-03-01T12:09:09Z</time>
      </trkpt>
      <trkpt lat="46.82663" lon="12.29543">
        <ele>2493.32</ele>
        <time>2017-03-01T12:09:24Z</time>
      </trkpt>
      <trkpt lat="46.82662" lon="12.29547">
        <ele>2493.8</ele>
        <time>2017-03-01T12:09:38Z</time>
      </trkpt>
      <trkpt lat="46.82663" lon="12.29546">
        <ele>2493.8</ele>
        <time>2017-03-01T12:09:52Z</time>
      </trkpt>
      <trkpt lat="46.82664" lon="12.29546">
        <ele>2493.8</ele>
        <time>2017-03-01T12:10:07Z</time>
      </trkpt>
      <trkpt lat="46.82665" lon="12.29542">
        <ele>2494.28</ele>
        <time>2017-03-01T12:10:21Z</time>
      </trkpt>
      <trkpt lat="46.82666" lon="12.29543">
        <ele>2493.32</ele>
        <time>2017-03-01T12:10:44Z</time>
      </trkpt>
      <trkpt lat="46.82666" lon="12.29542">
        <ele>2493.8</ele>
        <time>2017-03-01T12:10:59Z</time>
      </trkpt>
      <trkpt lat="46.82665" lon="12.29542">
        <ele>2492.84</ele>
        <time>2017-03-01T12:11:18Z</time>
      </trkpt>
      <trkpt lat="46.82664" lon="12.29542">
        <ele>2491.87</ele>
        <time>2017-03-01T12:11:29Z</time>
      </trkpt>
      <trkpt lat="46.82661" lon="12.29543">
        <ele>2494.28</ele>
        <time>2017-03-01T12:11:44Z</time>
      </trkpt>
      <trkpt lat="46.82662" lon="12.29542">
        <ele>2494.76</ele>
        <time>2017-03-01T12:11:56Z</time>
      </trkpt>
      <trkpt lat="46.82662" lon="12.29542">
        <ele>2492.36</ele>
        <time>2017-03-01T12:12:03Z</time>
      </trkpt>
      <trkpt lat="46.82661" lon="12.29542">
        <ele>2494.28</ele>
        <time>2017-03-01T12:12:05Z</time>
      </trkpt>
      <trkpt lat="46.82661" lon="12.29544">
        <ele>2493.32</ele>
        <time>2017-03-01T12:12:23Z</time>
      </trkpt>
      <trkpt lat="46.82661" lon="12.29545">
        <ele>2493.8</ele>
        <time>2017-03-01T12:12:51Z</time>
      </trkpt>
      <trkpt lat="46.82662" lon="12.29546">
        <ele>2494.28</ele>
        <time>2017-03-01T12:13:19Z</time>
      </trkpt>
      <trkpt lat="46.82662" lon="12.29545">
        <ele>2494.28</ele>
        <time>2017-03-01T12:13:38Z</time>
      </trkpt>
      <trkpt lat="46.82662" lon="12.29545">
        <ele>2494.28</ele>
        <time>2017-03-01T12:13:56Z</time>
      </trkpt>
      <trkpt lat="46.82662" lon="12.29546">
        <ele>2495.72</ele>
        <time>2017-03-01T12:14:19Z</time>
      </trkpt>
      <trkpt lat="46.82661" lon="12.29549">
        <ele>2495.72</ele>
        <time>2017-03-01T12:14:34Z</time>
      </trkpt>
      <trkpt lat="46.8266" lon="12.29549">
        <ele>2494.76</ele>
        <time>2017-03-01T12:14:56Z</time>
      </trkpt>
      <trkpt lat="46.82656" lon="12.29555">
        <ele>2494.28</ele>
        <time>2017-03-01T12:15:10Z</time>
      </trkpt>
      <trkpt lat="46.82654" lon="12.29555">
        <ele>2493.8</ele>
        <time>2017-03-01T12:15:26Z</time>
      </trkpt>
      <trkpt lat="46.82652" lon="12.29559">
        <ele>2492.84</ele>
        <time>2017-03-01T12:15:45Z</time>
      </trkpt>
      <trkpt lat="46.82651" lon="12.2956">
        <ele>2491.87</ele>
        <time>2017-03-01T12:15:52Z</time>
      </trkpt>
      <trkpt lat="46.8265" lon="12.2956">
        <ele>2492.84</ele>
        <time>2017-03-01T12:15:58Z</time>
      </trkpt>
      <trkpt lat="46.8265" lon="12.2956">
        <ele>2492.84</ele>
        <time>2017-03-01T12:16:12Z</time>
      </trkpt>
      <trkpt lat="46.82643" lon="12.2956">
        <ele>2490.43</ele>
        <time>2017-03-01T12:16:26Z</time>
      </trkpt>
      <trkpt lat="46.82639" lon="12.2956">
        <ele>2486.59</ele>
        <time>2017-03-01T12:16:37Z</time>
      </trkpt>
      <trkpt lat="46.82639" lon="12.29561">
        <ele>2486.59</ele>
        <time>2017-03-01T12:16:38Z</time>
      </trkpt>
      <trkpt lat="46.82639" lon="12.29559">
        <ele>2489.95</ele>
        <time>2017-03-01T12:16:55Z</time>
      </trkpt>
      <trkpt lat="46.82638" lon="12.29559">
        <ele>2487.07</ele>
        <time>2017-03-01T12:16:57Z</time>
      </trkpt>
      <trkpt lat="46.82637" lon="12.29559">
        <ele>2485.63</ele>
        <time>2017-03-01T12:17:01Z</time>
      </trkpt>
      <trkpt lat="46.82637" lon="12.29558">
        <ele>2488.51</ele>
        <time>2017-03-01T12:17:02Z</time>
      </trkpt>
      <trkpt lat="46.82637" lon="12.29558">
        <ele>2487.55</ele>
        <time>2017-03-01T12:17:03Z</time>
      </trkpt>
      <trkpt lat="46.82638" lon="12.29556">
        <ele>2484.66</ele>
        <time>2017-03-01T12:17:11Z</time>
      </trkpt>
      <trkpt lat="46.82638" lon="12.29554">
        <ele>2482.74</ele>
        <time>2017-03-01T12:17:16Z</time>
      </trkpt>
      <trkpt lat="46.82638" lon="12.29553">
        <ele>2486.11</ele>
        <time>2017-03-01T12:17:26Z</time>
      </trkpt>
      <trkpt lat="46.82638" lon="12.29551">
        <ele>2482.74</ele>
        <time>2017-03-01T12:17:40Z</time>
      </trkpt>
      <trkpt lat="46.82638" lon="12.29551">
        <ele>2483.22</ele>
        <time>2017-03-01T12:17:41Z</time>
      </trkpt>
      <trkpt lat="46.82636" lon="12.29552">
        <ele>2479.86</ele>
        <time>2017-03-01T12:17:51Z</time>
      </trkpt>
      <trkpt lat="46.82633" lon="12.29554">
        <ele>2478.9</ele>
        <time>2017-03-01T12:18:03Z</time>
      </trkpt>
      <trkpt lat="46.82633" lon="12.29555">
        <ele>2477.45</ele>
        <time>2017-03-01T12:18:08Z</time>
      </trkpt>
      <trkpt lat="46.82632" lon="12.29558">
        <ele>2478.9</ele>
        <time>2017-03-01T12:18:19Z</time>
      </trkpt>
      <trkpt lat="46.82629" lon="12.29557">
        <ele>2479.86</ele>
        <time>2017-03-01T12:18:28Z</time>
      </trkpt>
      <trkpt lat="46.82628" lon="12.29554">
        <ele>2476.49</ele>
        <time>2017-03-01T12:18:37Z</time>
      </trkpt>
      <trkpt lat="46.82628" lon="12.29554">
        <ele>2476.01</ele>
        <time>2017-03-01T12:18:38Z</time>
      </trkpt>
      <trkpt lat="46.82625" lon="12.29559">
        <ele>2475.53</ele>
        <time>2017-03-01T12:18:52Z</time>
      </trkpt>
      <trkpt lat="46.82621" lon="12.2956">
        <ele>2472.65</ele>
        <time>2017-03-01T12:19:10Z</time>
      </trkpt>
      <trkpt lat="46.82619" lon="12.29558">
        <ele>2471.69</ele>
        <time>2017-03-01T12:19:29Z</time>
      </trkpt>
      <trkpt lat="46.82615" lon="12.29551">
        <ele>2468.32</ele>
        <time>2017-03-01T12:19:43Z</time>
      </trkpt>
      <trkpt lat="46.8261" lon="12.29554">
        <ele>2466.88</ele>
        <time>2017-03-01T12:19:55Z</time>
      </trkpt>
      <trkpt lat="46.82609" lon="12.29554">
        <ele>2465.44</ele>
        <time>2017-03-01T12:19:58Z</time>
      </trkpt>
      <trkpt lat="46.82605" lon="12.29555">
        <ele>2463.52</ele>
        <time>2017-03-01T12:20:10Z</time>
      </trkpt>
      <trkpt lat="46.82599" lon="12.29553">
        <ele>2460.63</ele>
        <time>2017-03-01T12:20:23Z</time>
      </trkpt>
      <trkpt lat="46.82597" lon="12.29552">
        <ele>2459.67</ele>
        <time>2017-03-01T12:20:28Z</time>
      </trkpt>
      <trkpt lat="46.82585" lon="12.29548">
        <ele>2459.19</ele>
        <time>2017-03-01T12:20:44Z</time>
      </trkpt>
      <trkpt lat="46.8258" lon="12.29547">
        <ele>2461.59</ele>
        <time>2017-03-01T12:20:54Z</time>
      </trkpt>
      <trkpt lat="46.82578" lon="12.29545">
        <ele>2458.23</ele>
        <time>2017-03-01T12:21:01Z</time>
      </trkpt>
      <trkpt lat="46.82578" lon="12.29544">
        <ele>2458.23</ele>
        <time>2017-03-01T12:21:02Z</time>
      </trkpt>
      <trkpt lat="46.82576" lon="12.29542">
        <ele>2458.71</ele>
        <time>2017-03-01T12:21:05Z</time>
      </trkpt>
      <trkpt lat="46.82565" lon="12.29533">
        <ele>2458.23</ele>
        <time>2017-03-01T12:21:20Z</time>
      </trkpt>
      <trkpt lat="46.82562" lon="12.29528">
        <ele>2460.15</ele>
        <time>2017-03-01T12:21:27Z</time>
      </trkpt>
      <trkpt lat="46.82561" lon="12.29528">
        <ele>2458.71</ele>
        <time>2017-03-01T12:21:29Z</time>
      </trkpt>
      <trkpt lat="46.82557" lon="12.29523">
        <ele>2461.11</ele>
        <time>2017-03-01T12:21:42Z</time>
      </trkpt>
      <trkpt lat="46.82556" lon="12.29524">
        <ele>2464.48</ele>
        <time>2017-03-01T12:21:44Z</time>
      </trkpt>
      <trkpt lat="46.82556" lon="12.29524">
        <ele>2464.48</ele>
        <time>2017-03-01T12:21:45Z</time>
      </trkpt>
      <trkpt lat="46.82556" lon="12.29526">
        <ele>2461.11</ele>
        <time>2017-03-01T12:21:48Z</time>
      </trkpt>
      <trkpt lat="46.82552" lon="12.29524">
        <ele>2463.04</ele>
        <time>2017-03-01T12:21:58Z</time>
      </trkpt>
      <trkpt lat="46.82551" lon="12.29525">
        <ele>2465.92</ele>
        <time>2017-03-01T12:22:02Z</time>
      </trkpt>
      <trkpt lat="46.82548" lon="12.29527">
        <ele>2465.44</ele>
        <time>2017-03-01T12:22:25Z</time>
      </trkpt>
      <trkpt lat="46.82551" lon="12.2952">
        <ele>2466.4</ele>
        <time>2017-03-01T12:22:50Z</time>
      </trkpt>
      <trkpt lat="46.82551" lon="12.2952">
        <ele>2461.59</ele>
        <time>2017-03-01T12:22:51Z</time>
      </trkpt>
      <trkpt lat="46.8255" lon="12.29521">
        <ele>2464.96</ele>
        <time>2017-03-01T12:22:55Z</time>
      </trkpt>
      <trkpt lat="46.8255" lon="12.29521">
        <ele>2464.96</ele>
        <time>2017-03-01T12:22:56Z</time>
      </trkpt>
      <trkpt lat="46.82551" lon="12.2952">
        <ele>2465.92</ele>
        <time>2017-03-01T12:23:06Z</time>
      </trkpt>
      <trkpt lat="46.82552" lon="12.29518">
        <ele>2467.36</ele>
        <time>2017-03-01T12:23:14Z</time>
      </trkpt>
      <trkpt lat="46.82551" lon="12.29516">
        <ele>2463.52</ele>
        <time>2017-03-01T12:23:17Z</time>
      </trkpt>
      <trkpt lat="46.8255" lon="12.29516">
        <ele>2459.19</ele>
        <time>2017-03-01T12:23:18Z</time>
      </trkpt>
      <trkpt lat="46.82549" lon="12.29516">
        <ele>2459.67</ele>
        <time>2017-03-01T12:23:19Z</time>
      </trkpt>
      <trkpt lat="46.82547" lon="12.29511">
        <ele>2462.55</ele>
        <time>2017-03-01T12:23:29Z</time>
      </trkpt>
      <trkpt lat="46.82547" lon="12.29511">
        <ele>2462.07</ele>
        <time>2017-03-01T12:23:30Z</time>
      </trkpt>
      <trkpt lat="46.82547" lon="12.2951">
        <ele>2457.75</ele>
        <time>2017-03-01T12:23:31Z</time>
      </trkpt>
      <trkpt lat="46.82547" lon="12.29509">
        <ele>2462.55</ele>
        <time>2017-03-01T12:23:32Z</time>
      </trkpt>
      <trkpt lat="46.82547" lon="12.29506">
        <ele>2459.19</ele>
        <time>2017-03-01T12:23:35Z</time>
      </trkpt>
      <trkpt lat="46.82546" lon="12.29504">
        <ele>2455.82</ele>
        <time>2017-03-01T12:23:37Z</time>
      </trkpt>
      <trkpt lat="46.82545" lon="12.29504">
        <ele>2454.86</ele>
        <time>2017-03-01T12:23:39Z</time>
      </trkpt>
      <trkpt lat="46.82542" lon="12.295">
        <ele>2456.31</ele>
        <time>2017-03-01T12:23:47Z</time>
      </trkpt>
      <trkpt lat="46.82541" lon="12.29496">
        <ele>2459.67</ele>
        <time>2017-03-01T12:23:51Z</time>
      </trkpt>
      <trkpt lat="46.8254" lon="12.29497">
        <ele>2457.75</ele>
        <time>2017-03-01T12:24:05Z</time>
      </trkpt>
      <trkpt lat="46.8254" lon="12.29498">
        <ele>2457.75</ele>
        <time>2017-03-01T12:24:17Z</time>
      </trkpt>
      <trkpt lat="46.82539" lon="12.29499">
        <ele>2457.75</ele>
        <time>2017-03-01T12:24:35Z</time>
      </trkpt>
      <trkpt lat="46.82541" lon="12.29496">
        <ele>2457.27</ele>
        <time>2017-03-01T12:24:58Z</time>
      </trkpt>
      <trkpt lat="46.82541" lon="12.29495">
        <ele>2456.31</ele>
        <time>2017-03-01T12:25:00Z</time>
      </trkpt>
      <trkpt lat="46.82542" lon="12.29497">
        <ele>2457.27</ele>
        <time>2017-03-01T12:25:34Z</time>
      </trkpt>
      <trkpt lat="46.82543" lon="12.29498">
        <ele>2457.75</ele>
        <time>2017-03-01T12:26:14Z</time>
      </trkpt>
      <trkpt lat="46.82539" lon="12.295">
        <ele>2457.27</ele>
        <time>2017-03-01T12:26:52Z</time>
      </trkpt>
      <trkpt lat="46.82539" lon="12.29499">
        <ele>2455.82</ele>
        <time>2017-03-01T12:27:24Z</time>
      </trkpt>
      <trkpt lat="46.8254" lon="12.29499">
        <ele>2460.63</ele>
        <time>2017-03-01T12:27:40Z</time>
      </trkpt>
      <trkpt lat="46.8254" lon="12.29499">
        <ele>2453.42</ele>
        <time>2017-03-01T12:27:41Z</time>
      </trkpt>
      <trkpt lat="46.8254" lon="12.29499">
        <ele>2453.42</ele>
        <time>2017-03-01T12:27:42Z</time>
      </trkpt>
      <trkpt lat="46.8254" lon="12.29499">
        <ele>2457.27</ele>
        <time>2017-03-01T12:27:43Z</time>
      </trkpt>
      <trkpt lat="46.8254" lon="12.29498">
        <ele>2455.82</ele>
        <time>2017-03-01T12:27:47Z</time>
      </trkpt>
      <trkpt lat="46.82542" lon="12.29497">
        <ele>2456.79</ele>
        <time>2017-03-01T12:28:05Z</time>
      </trkpt>
      <trkpt lat="46.82542" lon="12.29495">
        <ele>2457.75</ele>
        <time>2017-03-01T12:28:27Z</time>
      </trkpt>
      <trkpt lat="46.82541" lon="12.29494">
        <ele>2456.31</ele>
        <time>2017-03-01T12:29:00Z</time>
      </trkpt>
      <trkpt lat="46.82541" lon="12.29495">
        <ele>2456.31</ele>
        <time>2017-03-01T12:29:20Z</time>
      </trkpt>
      <trkpt lat="46.82542" lon="12.29495">
        <ele>2456.79</ele>
        <time>2017-03-01T12:29:46Z</time>
      </trkpt>
      <trkpt lat="46.82541" lon="12.29496">
        <ele>2452.94</ele>
        <time>2017-03-01T12:29:50Z</time>
      </trkpt>
      <trkpt lat="46.82542" lon="12.29496">
        <ele>2461.11</ele>
        <time>2017-03-01T12:29:51Z</time>
      </trkpt>
      <trkpt lat="46.82542" lon="12.29495">
        <ele>2458.71</ele>
        <time>2017-03-01T12:29:52Z</time>
      </trkpt>
      <trkpt lat="46.82542" lon="12.29497">
        <ele>2457.27</ele>
        <time>2017-03-01T12:29:54Z</time>
      </trkpt>
      <trkpt lat="46.82541" lon="12.29496">
        <ele>2457.27</ele>
        <time>2017-03-01T12:30:22Z</time>
      </trkpt>
      <trkpt lat="46.82542" lon="12.29497">
        <ele>2453.9</ele>
        <time>2017-03-01T12:30:31Z</time>
      </trkpt>
      <trkpt lat="46.82542" lon="12.29497">
        <ele>2454.86</ele>
        <time>2017-03-01T12:30:32Z</time>
      </trkpt>
      <trkpt lat="46.82542" lon="12.29496">
        <ele>2458.71</ele>
        <time>2017-03-01T12:30:36Z</time>
      </trkpt>
      <trkpt lat="46.82542" lon="12.29496">
        <ele>2457.75</ele>
        <time>2017-03-01T12:30:37Z</time>
      </trkpt>
      <trkpt lat="46.82542" lon="12.29498">
        <ele>2456.79</ele>
        <time>2017-03-01T12:30:53Z</time>
      </trkpt>
      <trkpt lat="46.82541" lon="12.29497">
        <ele>2457.27</ele>
        <time>2017-03-01T12:31:13Z</time>
      </trkpt>
      <trkpt lat="46.82546" lon="12.29495">
        <ele>2457.27</ele>
        <time>2017-03-01T12:31:29Z</time>
      </trkpt>
      <trkpt lat="46.82552" lon="12.29492">
        <ele>2453.9</ele>
        <time>2017-03-01T12:31:41Z</time>
      </trkpt>
      <trkpt lat="46.82552" lon="12.29488">
        <ele>2451.02</ele>
        <time>2017-03-01T12:31:51Z</time>
      </trkpt>
      <trkpt lat="46.8255" lon="12.29487">
        <ele>2450.54</ele>
        <time>2017-03-01T12:32:06Z</time>
      </trkpt>
      <trkpt lat="46.82551" lon="12.29488">
        <ele>2451.98</ele>
        <time>2017-03-01T12:32:09Z</time>
      </trkpt>
      <trkpt lat="46.8255" lon="12.29487">
        <ele>2451.5</ele>
        <time>2017-03-01T12:32:27Z</time>
      </trkpt>
      <trkpt lat="46.8255" lon="12.29488">
        <ele>2451.98</ele>
        <time>2017-03-01T12:32:45Z</time>
      </trkpt>
      <trkpt lat="46.8255" lon="12.29486">
        <ele>2450.06</ele>
        <time>2017-03-01T12:32:57Z</time>
      </trkpt>
      <trkpt lat="46.82547" lon="12.29482">
        <ele>2450.06</ele>
        <time>2017-03-01T12:33:12Z</time>
      </trkpt>
      <trkpt lat="46.82546" lon="12.29481">
        <ele>2449.1</ele>
        <time>2017-03-01T12:33:20Z</time>
      </trkpt>
      <trkpt lat="46.82546" lon="12.29479">
        <ele>2447.65</ele>
        <time>2017-03-01T12:33:35Z</time>
      </trkpt>
      <trkpt lat="46.82546" lon="12.2948">
        <ele>2448.62</ele>
        <time>2017-03-01T12:33:54Z</time>
      </trkpt>
      <trkpt lat="46.82545" lon="12.2948">
        <ele>2448.62</ele>
        <time>2017-03-01T12:34:15Z</time>
      </trkpt>
      <trkpt lat="46.82545" lon="12.2948">
        <ele>2446.69</ele>
        <time>2017-03-01T12:34:25Z</time>
      </trkpt>
      <trkpt lat="46.82545" lon="12.29479">
        <ele>2448.13</ele>
        <time>2017-03-01T12:34:35Z</time>
      </trkpt>
      <trkpt lat="46.82544" lon="12.29478">
        <ele>2448.62</ele>
        <time>2017-03-01T12:34:49Z</time>
      </trkpt>
      <trkpt lat="46.82539" lon="12.29472">
        <ele>2447.17</ele>
        <time>2017-03-01T12:34:54Z</time>
      </trkpt>
      <trkpt lat="46.82535" lon="12.29471">
        <ele>2448.13</ele>
        <time>2017-03-01T12:35:04Z</time>
      </trkpt>
      <trkpt lat="46.82535" lon="12.29472">
        <ele>2447.17</ele>
        <time>2017-03-01T12:35:29Z</time>
      </trkpt>
      <trkpt lat="46.82525" lon="12.29469">
        <ele>2445.73</ele>
        <time>2017-03-01T12:35:41Z</time>
      </trkpt>
      <trkpt lat="46.82523" lon="12.29464">
        <ele>2446.21</ele>
        <time>2017-03-01T12:35:52Z</time>
      </trkpt>
      <trkpt lat="46.82523" lon="12.29462">
        <ele>2444.29</ele>
        <time>2017-03-01T12:36:13Z</time>
      </trkpt>
      <trkpt lat="46.82521" lon="12.29464">
        <ele>2445.73</ele>
        <time>2017-03-01T12:36:27Z</time>
      </trkpt>
      <trkpt lat="46.82521" lon="12.29463">
        <ele>2446.21</ele>
        <time>2017-03-01T12:36:50Z</time>
      </trkpt>
      <trkpt lat="46.82522" lon="12.29463">
        <ele>2446.69</ele>
        <time>2017-03-01T12:37:11Z</time>
      </trkpt>
      <trkpt lat="46.82521" lon="12.29463">
        <ele>2445.73</ele>
        <time>2017-03-01T12:37:32Z</time>
      </trkpt>
      <trkpt lat="46.82521" lon="12.29463">
        <ele>2445.73</ele>
        <time>2017-03-01T12:37:56Z</time>
      </trkpt>
      <trkpt lat="46.82522" lon="12.29463">
        <ele>2445.73</ele>
        <time>2017-03-01T12:38:15Z</time>
      </trkpt>
      <trkpt lat="46.82522" lon="12.29463">
        <ele>2445.25</ele>
        <time>2017-03-01T12:38:30Z</time>
      </trkpt>
      <trkpt lat="46.8252" lon="12.29448">
        <ele>2441.41</ele>
        <time>2017-03-01T12:38:35Z</time>
      </trkpt>
      <trkpt lat="46.82515" lon="12.29443">
        <ele>2439.96</ele>
        <time>2017-03-01T12:38:37Z</time>
      </trkpt>
      <trkpt lat="46.82514" lon="12.29434">
        <ele>2436.12</ele>
        <time>2017-03-01T12:38:39Z</time>
      </trkpt>
      <trkpt lat="46.82508" lon="12.29432">
        <ele>2432.27</ele>
        <time>2017-03-01T12:38:41Z</time>
      </trkpt>
      <trkpt lat="46.82507" lon="12.29425">
        <ele>2432.75</ele>
        <time>2017-03-01T12:38:43Z</time>
      </trkpt>
      <trkpt lat="46.82508" lon="12.29417">
        <ele>2430.83</ele>
        <time>2017-03-01T12:38:46Z</time>
      </trkpt>
      <trkpt lat="46.82508" lon="12.29415">
        <ele>2428.91</ele>
        <time>2017-03-01T12:38:47Z</time>
      </trkpt>
      <trkpt lat="46.82501" lon="12.29413">
        <ele>2424.58</ele>
        <time>2017-03-01T12:38:49Z</time>
      </trkpt>
      <trkpt lat="46.82496" lon="12.29411">
        <ele>2428.43</ele>
        <time>2017-03-01T12:38:51Z</time>
      </trkpt>
      <trkpt lat="46.82497" lon="12.29407">
        <ele>2427.47</ele>
        <time>2017-03-01T12:38:52Z</time>
      </trkpt>
      <trkpt lat="46.82493" lon="12.29401">
        <ele>2418.81</ele>
        <time>2017-03-01T12:38:54Z</time>
      </trkpt>
      <trkpt lat="46.8249" lon="12.29403">
        <ele>2418.33</ele>
        <time>2017-03-01T12:38:55Z</time>
      </trkpt>
      <trkpt lat="46.82478" lon="12.29412">
        <ele>2415.93</ele>
        <time>2017-03-01T12:38:59Z</time>
      </trkpt>
      <trkpt lat="46.82463" lon="12.29402">
        <ele>2409.2</ele>
        <time>2017-03-01T12:39:04Z</time>
      </trkpt>
      <trkpt lat="46.82459" lon="12.29394">
        <ele>2407.76</ele>
        <time>2017-03-01T12:39:09Z</time>
      </trkpt>
      <trkpt lat="46.82461" lon="12.29393">
        <ele>2406.8</ele>
        <time>2017-03-01T12:39:29Z</time>
      </trkpt>
      <trkpt lat="46.82461" lon="12.29393">
        <ele>2407.76</ele>
        <time>2017-03-01T12:39:59Z</time>
      </trkpt>
      <trkpt lat="46.82461" lon="12.29392">
        <ele>2407.28</ele>
        <time>2017-03-01T12:40:22Z</time>
      </trkpt>
      <trkpt lat="46.82461" lon="12.29393">
        <ele>2408.24</ele>
        <time>2017-03-01T12:40:47Z</time>
      </trkpt>
      <trkpt lat="46.82461" lon="12.29392">
        <ele>2407.28</ele>
        <time>2017-03-01T12:40:51Z</time>
      </trkpt>
      <trkpt lat="46.82461" lon="12.29394">
        <ele>2406.8</ele>
        <time>2017-03-01T12:41:18Z</time>
      </trkpt>
      <trkpt lat="46.82462" lon="12.29392">
        <ele>2406.32</ele>
        <time>2017-03-01T12:41:47Z</time>
      </trkpt>
      <trkpt lat="46.82462" lon="12.29391">
        <ele>2407.28</ele>
        <time>2017-03-01T12:41:52Z</time>
      </trkpt>
      <trkpt lat="46.82456" lon="12.29371">
        <ele>2403.43</ele>
        <time>2017-03-01T12:41:59Z</time>
      </trkpt>
      <trkpt lat="46.82456" lon="12.29366">
        <ele>2402.47</ele>
        <time>2017-03-01T12:42:01Z</time>
      </trkpt>
      <trkpt lat="46.82453" lon="12.29364">
        <ele>2400.07</ele>
        <time>2017-03-01T12:42:02Z</time>
      </trkpt>
      <trkpt lat="46.8245" lon="12.29365">
        <ele>2397.67</ele>
        <time>2017-03-01T12:42:03Z</time>
      </trkpt>
      <trkpt lat="46.82438" lon="12.29377">
        <ele>2394.3</ele>
        <time>2017-03-01T12:42:07Z</time>
      </trkpt>
      <trkpt lat="46.82431" lon="12.29369">
        <ele>2390.94</ele>
        <time>2017-03-01T12:42:12Z</time>
      </trkpt>
      <trkpt lat="46.82432" lon="12.29354">
        <ele>2392.86</ele>
        <time>2017-03-01T12:42:19Z</time>
      </trkpt>
      <trkpt lat="46.82435" lon="12.29344">
        <ele>2391.42</ele>
        <time>2017-03-01T12:42:25Z</time>
      </trkpt>
      <trkpt lat="46.82437" lon="12.29335">
        <ele>2393.34</ele>
        <time>2017-03-01T12:42:29Z</time>
      </trkpt>
      <trkpt lat="46.82439" lon="12.2933">
        <ele>2394.78</ele>
        <time>2017-03-01T12:42:31Z</time>
      </trkpt>
      <trkpt lat="46.8244" lon="12.29329">
        <ele>2389.97</ele>
        <time>2017-03-01T12:42:32Z</time>
      </trkpt>
      <trkpt lat="46.82441" lon="12.29321">
        <ele>2385.65</ele>
        <time>2017-03-01T12:42:37Z</time>
      </trkpt>
      <trkpt lat="46.8244" lon="12.29319">
        <ele>2384.69</ele>
        <time>2017-03-01T12:42:38Z</time>
      </trkpt>
      <trkpt lat="46.82439" lon="12.29319">
        <ele>2383.25</ele>
        <time>2017-03-01T12:42:40Z</time>
      </trkpt>
      <trkpt lat="46.8244" lon="12.29319">
        <ele>2382.28</ele>
        <time>2017-03-01T12:42:58Z</time>
      </trkpt>
      <trkpt lat="46.82438" lon="12.2932">
        <ele>2382.76</ele>
        <time>2017-03-01T12:43:26Z</time>
      </trkpt>
      <trkpt lat="46.82435" lon="12.29314">
        <ele>2380.84</ele>
        <time>2017-03-01T12:43:31Z</time>
      </trkpt>
      <trkpt lat="46.82434" lon="12.29309">
        <ele>2381.8</ele>
        <time>2017-03-01T12:43:32Z</time>
      </trkpt>
      <trkpt lat="46.82431" lon="12.29307">
        <ele>2380.84</ele>
        <time>2017-03-01T12:43:33Z</time>
      </trkpt>
      <trkpt lat="46.82428" lon="12.29308">
        <ele>2379.4</ele>
        <time>2017-03-01T12:43:34Z</time>
      </trkpt>
      <trkpt lat="46.82425" lon="12.29307">
        <ele>2377.96</ele>
        <time>2017-03-01T12:43:35Z</time>
      </trkpt>
      <trkpt lat="46.82424" lon="12.29303">
        <ele>2377</ele>
        <time>2017-03-01T12:43:36Z</time>
      </trkpt>
      <trkpt lat="46.82423" lon="12.29298">
        <ele>2376.04</ele>
        <time>2017-03-01T12:43:37Z</time>
      </trkpt>
      <trkpt lat="46.82421" lon="12.29295">
        <ele>2375.55</ele>
        <time>2017-03-01T12:43:38Z</time>
      </trkpt>
      <trkpt lat="46.82418" lon="12.29295">
        <ele>2375.07</ele>
        <time>2017-03-01T12:43:39Z</time>
      </trkpt>
      <trkpt lat="46.82415" lon="12.29293">
        <ele>2375.07</ele>
        <time>2017-03-01T12:43:40Z</time>
      </trkpt>
      <trkpt lat="46.82414" lon="12.2929">
        <ele>2374.59</ele>
        <time>2017-03-01T12:43:41Z</time>
      </trkpt>
      <trkpt lat="46.82413" lon="12.29287">
        <ele>2371.71</ele>
        <time>2017-03-01T12:43:42Z</time>
      </trkpt>
      <trkpt lat="46.82412" lon="12.29284">
        <ele>2370.27</ele>
        <time>2017-03-01T12:43:43Z</time>
      </trkpt>
      <trkpt lat="46.8241" lon="12.29285">
        <ele>2369.79</ele>
        <time>2017-03-01T12:43:44Z</time>
      </trkpt>
      <trkpt lat="46.82409" lon="12.29288">
        <ele>2367.38</ele>
        <time>2017-03-01T12:43:51Z</time>
      </trkpt>
      <trkpt lat="46.82406" lon="12.29282">
        <ele>2367.38</ele>
        <time>2017-03-01T12:43:54Z</time>
      </trkpt>
      <trkpt lat="46.82406" lon="12.29278">
        <ele>2365.94</ele>
        <time>2017-03-01T12:43:55Z</time>
      </trkpt>
      <trkpt lat="46.824" lon="12.29275">
        <ele>2362.58</ele>
        <time>2017-03-01T12:43:57Z</time>
      </trkpt>
      <trkpt lat="46.82396" lon="12.29272">
        <ele>2363.06</ele>
        <time>2017-03-01T12:43:58Z</time>
      </trkpt>
      <trkpt lat="46.82394" lon="12.29267">
        <ele>2361.62</ele>
        <time>2017-03-01T12:43:59Z</time>
      </trkpt>
      <trkpt lat="46.82392" lon="12.29261">
        <ele>2356.81</ele>
        <time>2017-03-01T12:44:02Z</time>
      </trkpt>
      <trkpt lat="46.82392" lon="12.29261">
        <ele>2356.81</ele>
        <time>2017-03-01T12:44:03Z</time>
      </trkpt>
      <trkpt lat="46.82392" lon="12.29261">
        <ele>2353.44</ele>
        <time>2017-03-01T12:44:14Z</time>
      </trkpt>
      <trkpt lat="46.82392" lon="12.29261">
        <ele>2353.93</ele>
        <time>2017-03-01T12:44:15Z</time>
      </trkpt>
      <trkpt lat="46.82392" lon="12.29261">
        <ele>2358.25</ele>
        <time>2017-03-01T12:44:21Z</time>
      </trkpt>
      <trkpt lat="46.82395" lon="12.2926">
        <ele>2354.41</ele>
        <time>2017-03-01T12:44:34Z</time>
      </trkpt>
      <trkpt lat="46.8239" lon="12.29259">
        <ele>2352.96</ele>
        <time>2017-03-01T12:44:41Z</time>
      </trkpt>
      <trkpt lat="46.82389" lon="12.29256">
        <ele>2357.29</ele>
        <time>2017-03-01T12:44:42Z</time>
      </trkpt>
      <trkpt lat="46.82388" lon="12.2925">
        <ele>2354.89</ele>
        <time>2017-03-01T12:44:43Z</time>
      </trkpt>
      <trkpt lat="46.82389" lon="12.29245">
        <ele>2354.41</ele>
        <time>2017-03-01T12:44:44Z</time>
      </trkpt>
      <trkpt lat="46.8239" lon="12.29235">
        <ele>2349.6</ele>
        <time>2017-03-01T12:44:46Z</time>
      </trkpt>
      <trkpt lat="46.82389" lon="12.29225">
        <ele>2349.12</ele>
        <time>2017-03-01T12:44:48Z</time>
      </trkpt>
      <trkpt lat="46.82373" lon="12.29231">
        <ele>2345.27</ele>
        <time>2017-03-01T12:44:53Z</time>
      </trkpt>
      <trkpt lat="46.82368" lon="12.2923">
        <ele>2344.31</ele>
        <time>2017-03-01T12:44:54Z</time>
      </trkpt>
      <trkpt lat="46.82366" lon="12.29227">
        <ele>2344.31</ele>
        <time>2017-03-01T12:44:55Z</time>
      </trkpt>
      <trkpt lat="46.82361" lon="12.29212">
        <ele>2343.83</ele>
        <time>2017-03-01T12:44:59Z</time>
      </trkpt>
      <trkpt lat="46.8236" lon="12.29208">
        <ele>2341.43</ele>
        <time>2017-03-01T12:45:00Z</time>
      </trkpt>
      <trkpt lat="46.82358" lon="12.29205">
        <ele>2339.51</ele>
        <time>2017-03-01T12:45:01Z</time>
      </trkpt>
      <trkpt lat="46.82355" lon="12.292">
        <ele>2339.99</ele>
        <time>2017-03-01T12:45:02Z</time>
      </trkpt>
      <trkpt lat="46.82352" lon="12.29194">
        <ele>2340.95</ele>
        <time>2017-03-01T12:45:03Z</time>
      </trkpt>
      <trkpt lat="46.82348" lon="12.29189">
        <ele>2339.99</ele>
        <time>2017-03-01T12:45:04Z</time>
      </trkpt>
      <trkpt lat="46.82344" lon="12.29183">
        <ele>2339.02</ele>
        <time>2017-03-01T12:45:05Z</time>
      </trkpt>
      <trkpt lat="46.82337" lon="12.29181">
        <ele>2333.74</ele>
        <time>2017-03-01T12:45:07Z</time>
      </trkpt>
      <trkpt lat="46.82335" lon="12.29181">
        <ele>2333.74</ele>
        <time>2017-03-01T12:45:08Z</time>
      </trkpt>
      <trkpt lat="46.82334" lon="12.29179">
        <ele>2337.1</ele>
        <time>2017-03-01T12:45:09Z</time>
      </trkpt>
      <trkpt lat="46.82334" lon="12.29177">
        <ele>2338.54</ele>
        <time>2017-03-01T12:45:11Z</time>
      </trkpt>
      <trkpt lat="46.82334" lon="12.29175">
        <ele>2340.47</ele>
        <time>2017-03-01T12:45:14Z</time>
      </trkpt>
      <trkpt lat="46.82332" lon="12.29171">
        <ele>2334.22</ele>
        <time>2017-03-01T12:45:17Z</time>
      </trkpt>
      <trkpt lat="46.8233" lon="12.29169">
        <ele>2334.22</ele>
        <time>2017-03-01T12:45:18Z</time>
      </trkpt>
      <trkpt lat="46.82309" lon="12.29145">
        <ele>2328.93</ele>
        <time>2017-03-01T12:45:23Z</time>
      </trkpt>
      <trkpt lat="46.82295" lon="12.29135">
        <ele>2326.05</ele>
        <time>2017-03-01T12:45:27Z</time>
      </trkpt>
      <trkpt lat="46.82281" lon="12.29125">
        <ele>2327.01</ele>
        <time>2017-03-01T12:45:38Z</time>
      </trkpt>
      <trkpt lat="46.82278" lon="12.29122">
        <ele>2327.01</ele>
        <time>2017-03-01T12:45:45Z</time>
      </trkpt>
      <trkpt lat="46.82269" lon="12.29118">
        <ele>2327.01</ele>
        <time>2017-03-01T12:46:00Z</time>
      </trkpt>
      <trkpt lat="46.82258" lon="12.29111">
        <ele>2327.49</ele>
        <time>2017-03-01T12:46:18Z</time>
      </trkpt>
      <trkpt lat="46.82254" lon="12.29101">
        <ele>2328.45</ele>
        <time>2017-03-01T12:46:32Z</time>
      </trkpt>
      <trkpt lat="46.82252" lon="12.29099">
        <ele>2328.93</ele>
        <time>2017-03-01T12:46:44Z</time>
      </trkpt>
      <trkpt lat="46.82252" lon="12.291">
        <ele>2327.49</ele>
        <time>2017-03-01T12:46:53Z</time>
      </trkpt>
      <trkpt lat="46.82252" lon="12.29099">
        <ele>2329.41</ele>
        <time>2017-03-01T12:47:07Z</time>
      </trkpt>
      <trkpt lat="46.82252" lon="12.29102">
        <ele>2331.81</ele>
        <time>2017-03-01T12:47:29Z</time>
      </trkpt>
      <trkpt lat="46.8225" lon="12.29099">
        <ele>2335.18</ele>
        <time>2017-03-01T12:47:43Z</time>
      </trkpt>
      <trkpt lat="46.82251" lon="12.29099">
        <ele>2331.81</ele>
        <time>2017-03-01T12:47:48Z</time>
      </trkpt>
      <trkpt lat="46.82251" lon="12.29099">
        <ele>2330.85</ele>
        <time>2017-03-01T12:47:50Z</time>
      </trkpt>
      <trkpt lat="46.82252" lon="12.29099">
        <ele>2329.41</ele>
        <time>2017-03-01T12:47:53Z</time>
      </trkpt>
      <trkpt lat="46.82253" lon="12.29098">
        <ele>2331.33</ele>
        <time>2017-03-01T12:47:57Z</time>
      </trkpt>
      <trkpt lat="46.82252" lon="12.291">
        <ele>2328.45</ele>
        <time>2017-03-01T12:48:03Z</time>
      </trkpt>
      <trkpt lat="46.82252" lon="12.29102">
        <ele>2330.85</ele>
        <time>2017-03-01T12:48:12Z</time>
      </trkpt>
      <trkpt lat="46.82253" lon="12.29102">
        <ele>2329.41</ele>
        <time>2017-03-01T12:48:14Z</time>
      </trkpt>
      <trkpt lat="46.82251" lon="12.291">
        <ele>2329.89</ele>
        <time>2017-03-01T12:48:51Z</time>
      </trkpt>
      <trkpt lat="46.82251" lon="12.291">
        <ele>2326.53</ele>
        <time>2017-03-01T12:48:54Z</time>
      </trkpt>
      <trkpt lat="46.82251" lon="12.291">
        <ele>2331.33</ele>
        <time>2017-03-01T12:48:55Z</time>
      </trkpt>
      <trkpt lat="46.82251" lon="12.291">
        <ele>2335.66</ele>
        <time>2017-03-01T12:48:57Z</time>
      </trkpt>
      <trkpt lat="46.82252" lon="12.29101">
        <ele>2331.81</ele>
        <time>2017-03-01T12:48:58Z</time>
      </trkpt>
      <trkpt lat="46.82255" lon="12.29099">
        <ele>2330.37</ele>
        <time>2017-03-01T12:49:13Z</time>
      </trkpt>
      <trkpt lat="46.82256" lon="12.29099">
        <ele>2330.37</ele>
        <time>2017-03-01T12:49:14Z</time>
      </trkpt>
      <trkpt lat="46.82256" lon="12.29099">
        <ele>2334.22</ele>
        <time>2017-03-01T12:49:16Z</time>
      </trkpt>
      <trkpt lat="46.82256" lon="12.29099">
        <ele>2334.22</ele>
        <time>2017-03-01T12:49:17Z</time>
      </trkpt>
      <trkpt lat="46.82253" lon="12.29098">
        <ele>2329.89</ele>
        <time>2017-03-01T12:49:22Z</time>
      </trkpt>
      <trkpt lat="46.82249" lon="12.29092">
        <ele>2328.45</ele>
        <time>2017-03-01T12:49:29Z</time>
      </trkpt>
      <trkpt lat="46.82243" lon="12.2908">
        <ele>2331.33</ele>
        <time>2017-03-01T12:49:43Z</time>
      </trkpt>
      <trkpt lat="46.82242" lon="12.29079">
        <ele>2330.85</ele>
        <time>2017-03-01T12:49:44Z</time>
      </trkpt>
      <trkpt lat="46.82241" lon="12.29077">
        <ele>2329.89</ele>
        <time>2017-03-01T12:49:46Z</time>
      </trkpt>
      <trkpt lat="46.8224" lon="12.29073">
        <ele>2333.26</ele>
        <time>2017-03-01T12:49:50Z</time>
      </trkpt>
      <trkpt lat="46.82239" lon="12.29071">
        <ele>2328.93</ele>
        <time>2017-03-01T12:49:52Z</time>
      </trkpt>
      <trkpt lat="46.82238" lon="12.2907">
        <ele>2329.41</ele>
        <time>2017-03-01T12:49:53Z</time>
      </trkpt>
      <trkpt lat="46.82237" lon="12.29068">
        <ele>2330.37</ele>
        <time>2017-03-01T12:49:55Z</time>
      </trkpt>
      <trkpt lat="46.82234" lon="12.29065">
        <ele>2329.89</ele>
        <time>2017-03-01T12:50:01Z</time>
      </trkpt>
      <trkpt lat="46.82232" lon="12.29062">
        <ele>2330.37</ele>
        <time>2017-03-01T12:50:05Z</time>
      </trkpt>
      <trkpt lat="46.82231" lon="12.2906">
        <ele>2328.93</ele>
        <time>2017-03-01T12:50:08Z</time>
      </trkpt>
      <trkpt lat="46.82231" lon="12.29059">
        <ele>2333.26</ele>
        <time>2017-03-01T12:50:10Z</time>
      </trkpt>
      <trkpt lat="46.8223" lon="12.29056">
        <ele>2329.89</ele>
        <time>2017-03-01T12:50:13Z</time>
      </trkpt>
      <trkpt lat="46.82228" lon="12.2905">
        <ele>2332.3</ele>
        <time>2017-03-01T12:50:26Z</time>
      </trkpt>
      <trkpt lat="46.82227" lon="12.29047">
        <ele>2331.81</ele>
        <time>2017-03-01T12:50:30Z</time>
      </trkpt>
      <trkpt lat="46.82226" lon="12.29043">
        <ele>2333.26</ele>
        <time>2017-03-01T12:50:39Z</time>
      </trkpt>
      <trkpt lat="46.82225" lon="12.29037">
        <ele>2334.22</ele>
        <time>2017-03-01T12:50:48Z</time>
      </trkpt>
      <trkpt lat="46.82225" lon="12.29033">
        <ele>2333.74</ele>
        <time>2017-03-01T12:50:57Z</time>
      </trkpt>
      <trkpt lat="46.82224" lon="12.29032">
        <ele>2336.62</ele>
        <time>2017-03-01T12:50:59Z</time>
      </trkpt>
      <trkpt lat="46.82224" lon="12.29031">
        <ele>2336.14</ele>
        <time>2017-03-01T12:51:00Z</time>
      </trkpt>
      <trkpt lat="46.82225" lon="12.2903">
        <ele>2334.22</ele>
        <time>2017-03-01T12:51:02Z</time>
      </trkpt>
      <trkpt lat="46.82224" lon="12.29028">
        <ele>2338.06</ele>
        <time>2017-03-01T12:51:09Z</time>
      </trkpt>
      <trkpt lat="46.82224" lon="12.29027">
        <ele>2338.06</ele>
        <time>2017-03-01T12:51:10Z</time>
      </trkpt>
      <trkpt lat="46.82223" lon="12.29023">
        <ele>2336.14</ele>
        <time>2017-03-01T12:51:18Z</time>
      </trkpt>
      <trkpt lat="46.82223" lon="12.29019">
        <ele>2338.54</ele>
        <time>2017-03-01T12:51:26Z</time>
      </trkpt>
      <trkpt lat="46.82223" lon="12.29016">
        <ele>2339.99</ele>
        <time>2017-03-01T12:51:34Z</time>
      </trkpt>
      <trkpt lat="46.82221" lon="12.29008">
        <ele>2341.43</ele>
        <time>2017-03-01T12:51:49Z</time>
      </trkpt>
      <trkpt lat="46.8222" lon="12.29008">
        <ele>2339.51</ele>
        <time>2017-03-01T12:51:51Z</time>
      </trkpt>
      <trkpt lat="46.8222" lon="12.29008">
        <ele>2340.47</ele>
        <time>2017-03-01T12:51:53Z</time>
      </trkpt>
      <trkpt lat="46.82218" lon="12.29007">
        <ele>2339.02</ele>
        <time>2017-03-01T12:51:56Z</time>
      </trkpt>
      <trkpt lat="46.82219" lon="12.29006">
        <ele>2341.91</ele>
        <time>2017-03-01T12:52:02Z</time>
      </trkpt>
      <trkpt lat="46.8222" lon="12.29003">
        <ele>2346.72</ele>
        <time>2017-03-01T12:52:05Z</time>
      </trkpt>
      <trkpt lat="46.8222" lon="12.29002">
        <ele>2343.35</ele>
        <time>2017-03-01T12:52:06Z</time>
      </trkpt>
      <trkpt lat="46.8222" lon="12.28999">
        <ele>2339.99</ele>
        <time>2017-03-01T12:52:09Z</time>
      </trkpt>
      <trkpt lat="46.82219" lon="12.28994">
        <ele>2339.51</ele>
        <time>2017-03-01T12:52:18Z</time>
      </trkpt>
      <trkpt lat="46.82219" lon="12.28993">
        <ele>2347.68</ele>
        <time>2017-03-01T12:52:20Z</time>
      </trkpt>
      <trkpt lat="46.82219" lon="12.28993">
        <ele>2345.27</ele>
        <time>2017-03-01T12:52:21Z</time>
      </trkpt>
      <trkpt lat="46.82219" lon="12.28992">
        <ele>2350.08</ele>
        <time>2017-03-01T12:52:22Z</time>
      </trkpt>
      <trkpt lat="46.82219" lon="12.28991">
        <ele>2350.08</ele>
        <time>2017-03-01T12:52:23Z</time>
      </trkpt>
      <trkpt lat="46.82219" lon="12.28989">
        <ele>2340.47</ele>
        <time>2017-03-01T12:52:25Z</time>
      </trkpt>
      <trkpt lat="46.82218" lon="12.28988">
        <ele>2340.47</ele>
        <time>2017-03-01T12:52:26Z</time>
      </trkpt>
      <trkpt lat="46.82218" lon="12.28988">
        <ele>2345.75</ele>
        <time>2017-03-01T12:52:28Z</time>
      </trkpt>
      <trkpt lat="46.82218" lon="12.28987">
        <ele>2339.99</ele>
        <time>2017-03-01T12:52:29Z</time>
      </trkpt>
      <trkpt lat="46.82218" lon="12.28986">
        <ele>2339.99</ele>
        <time>2017-03-01T12:52:30Z</time>
      </trkpt>
      <trkpt lat="46.82217" lon="12.28985">
        <ele>2341.91</ele>
        <time>2017-03-01T12:52:33Z</time>
      </trkpt>
      <trkpt lat="46.82215" lon="12.28979">
        <ele>2341.43</ele>
        <time>2017-03-01T12:52:44Z</time>
      </trkpt>
      <trkpt lat="46.82214" lon="12.28974">
        <ele>2344.79</ele>
        <time>2017-03-01T12:52:51Z</time>
      </trkpt>
      <trkpt lat="46.82214" lon="12.28971">
        <ele>2344.79</ele>
        <time>2017-03-01T12:52:58Z</time>
      </trkpt>
      <trkpt lat="46.82214" lon="12.28968">
        <ele>2347.2</ele>
        <time>2017-03-01T12:53:03Z</time>
      </trkpt>
      <trkpt lat="46.82213" lon="12.28955">
        <ele>2347.2</ele>
        <time>2017-03-01T12:53:19Z</time>
      </trkpt>
      <trkpt lat="46.82211" lon="12.28948">
        <ele>2348.64</ele>
        <time>2017-03-01T12:53:31Z</time>
      </trkpt>
      <trkpt lat="46.82211" lon="12.28945">
        <ele>2350.08</ele>
        <time>2017-03-01T12:53:36Z</time>
      </trkpt>
      <trkpt lat="46.82211" lon="12.28943">
        <ele>2346.72</ele>
        <time>2017-03-01T12:53:40Z</time>
      </trkpt>
      <trkpt lat="46.82211" lon="12.28942">
        <ele>2351.52</ele>
        <time>2017-03-01T12:53:42Z</time>
      </trkpt>
      <trkpt lat="46.82211" lon="12.28941">
        <ele>2354.89</ele>
        <time>2017-03-01T12:53:43Z</time>
      </trkpt>
      <trkpt lat="46.82211" lon="12.2894">
        <ele>2352.96</ele>
        <time>2017-03-01T12:53:44Z</time>
      </trkpt>
      <trkpt lat="46.82211" lon="12.28939">
        <ele>2348.64</ele>
        <time>2017-03-01T12:53:47Z</time>
      </trkpt>
      <trkpt lat="46.82211" lon="12.28938">
        <ele>2349.6</ele>
        <time>2017-03-01T12:53:48Z</time>
      </trkpt>
      <trkpt lat="46.82209" lon="12.28929">
        <ele>2355.37</ele>
        <time>2017-03-01T12:54:03Z</time>
      </trkpt>
      <trkpt lat="46.82209" lon="12.28928">
        <ele>2352.96</ele>
        <time>2017-03-01T12:54:04Z</time>
      </trkpt>
      <trkpt lat="46.8221" lon="12.28922">
        <ele>2356.81</ele>
        <time>2017-03-01T12:54:12Z</time>
      </trkpt>
      <trkpt lat="46.8221" lon="12.28921">
        <ele>2359.69</ele>
        <time>2017-03-01T12:54:13Z</time>
      </trkpt>
      <trkpt lat="46.8221" lon="12.2892">
        <ele>2358.73</ele>
        <time>2017-03-01T12:54:14Z</time>
      </trkpt>
      <trkpt lat="46.8221" lon="12.28918">
        <ele>2355.37</ele>
        <time>2017-03-01T12:54:18Z</time>
      </trkpt>
      <trkpt lat="46.82208" lon="12.28915">
        <ele>2349.12</ele>
        <time>2017-03-01T12:54:24Z</time>
      </trkpt>
      <trkpt lat="46.82203" lon="12.28909">
        <ele>2352.48</ele>
        <time>2017-03-01T12:54:34Z</time>
      </trkpt>
      <trkpt lat="46.82203" lon="12.28908">
        <ele>2352.48</ele>
        <time>2017-03-01T12:54:35Z</time>
      </trkpt>
      <trkpt lat="46.82203" lon="12.28908">
        <ele>2357.77</ele>
        <time>2017-03-01T12:54:36Z</time>
      </trkpt>
      <trkpt lat="46.82203" lon="12.28907">
        <ele>2354.89</ele>
        <time>2017-03-01T12:54:37Z</time>
      </trkpt>
      <trkpt lat="46.82203" lon="12.28906">
        <ele>2357.29</ele>
        <time>2017-03-01T12:54:38Z</time>
      </trkpt>
      <trkpt lat="46.82203" lon="12.28903">
        <ele>2354.89</ele>
        <time>2017-03-01T12:54:41Z</time>
      </trkpt>
      <trkpt lat="46.82203" lon="12.289">
        <ele>2358.25</ele>
        <time>2017-03-01T12:54:45Z</time>
      </trkpt>
      <trkpt lat="46.82201" lon="12.28897">
        <ele>2351.04</ele>
        <time>2017-03-01T12:54:48Z</time>
      </trkpt>
      <trkpt lat="46.82195" lon="12.28886">
        <ele>2350.08</ele>
        <time>2017-03-01T12:55:05Z</time>
      </trkpt>
      <trkpt lat="46.82194" lon="12.28884">
        <ele>2357.29</ele>
        <time>2017-03-01T12:55:09Z</time>
      </trkpt>
      <trkpt lat="46.82194" lon="12.28883">
        <ele>2356.33</ele>
        <time>2017-03-01T12:55:10Z</time>
      </trkpt>
      <trkpt lat="46.82193" lon="12.28882">
        <ele>2352.48</ele>
        <time>2017-03-01T12:55:11Z</time>
      </trkpt>
      <trkpt lat="46.82193" lon="12.28882">
        <ele>2355.37</ele>
        <time>2017-03-01T12:55:12Z</time>
      </trkpt>
      <trkpt lat="46.82193" lon="12.28881">
        <ele>2358.73</ele>
        <time>2017-03-01T12:55:13Z</time>
      </trkpt>
      <trkpt lat="46.82193" lon="12.28881">
        <ele>2356.81</ele>
        <time>2017-03-01T12:55:14Z</time>
      </trkpt>
      <trkpt lat="46.82192" lon="12.2888">
        <ele>2352.96</ele>
        <time>2017-03-01T12:55:15Z</time>
      </trkpt>
      <trkpt lat="46.82191" lon="12.28879">
        <ele>2349.6</ele>
        <time>2017-03-01T12:55:17Z</time>
      </trkpt>
      <trkpt lat="46.8219" lon="12.28879">
        <ele>2350.08</ele>
        <time>2017-03-01T12:55:18Z</time>
      </trkpt>
      <trkpt lat="46.8219" lon="12.28876">
        <ele>2352.96</ele>
        <time>2017-03-01T12:55:22Z</time>
      </trkpt>
      <trkpt lat="46.82187" lon="12.28875">
        <ele>2354.41</ele>
        <time>2017-03-01T12:55:27Z</time>
      </trkpt>
      <trkpt lat="46.82186" lon="12.28876">
        <ele>2353.93</ele>
        <time>2017-03-01T12:55:30Z</time>
      </trkpt>
      <trkpt lat="46.8218" lon="12.28878">
        <ele>2357.77</ele>
        <time>2017-03-01T12:55:44Z</time>
      </trkpt>
      <trkpt lat="46.8218" lon="12.28877">
        <ele>2359.69</ele>
        <time>2017-03-01T12:55:46Z</time>
      </trkpt>
      <trkpt lat="46.82178" lon="12.28876">
        <ele>2353.93</ele>
        <time>2017-03-01T12:55:49Z</time>
      </trkpt>
      <trkpt lat="46.82175" lon="12.28875">
        <ele>2359.21</ele>
        <time>2017-03-01T12:55:56Z</time>
      </trkpt>
      <trkpt lat="46.82175" lon="12.28875">
        <ele>2359.21</ele>
        <time>2017-03-01T12:55:57Z</time>
      </trkpt>
      <trkpt lat="46.82175" lon="12.28874">
        <ele>2355.85</ele>
        <time>2017-03-01T12:56:02Z</time>
      </trkpt>
      <trkpt lat="46.82175" lon="12.28874">
        <ele>2355.85</ele>
        <time>2017-03-01T12:56:06Z</time>
      </trkpt>
      <trkpt lat="46.82175" lon="12.28875">
        <ele>2360.17</ele>
        <time>2017-03-01T12:56:26Z</time>
      </trkpt>
      <trkpt lat="46.82175" lon="12.28875">
        <ele>2360.17</ele>
        <time>2017-03-01T12:56:27Z</time>
      </trkpt>
      <trkpt lat="46.82174" lon="12.28875">
        <ele>2356.81</ele>
        <time>2017-03-01T12:56:44Z</time>
      </trkpt>
      <trkpt lat="46.82174" lon="12.28875">
        <ele>2356.81</ele>
        <time>2017-03-01T12:56:45Z</time>
      </trkpt>
      <trkpt lat="46.82174" lon="12.28876">
        <ele>2359.21</ele>
        <time>2017-03-01T12:56:57Z</time>
      </trkpt>
      <trkpt lat="46.82174" lon="12.28877">
        <ele>2356.33</ele>
        <time>2017-03-01T12:57:14Z</time>
      </trkpt>
      <trkpt lat="46.82175" lon="12.28875">
        <ele>2354.41</ele>
        <time>2017-03-01T12:57:41Z</time>
      </trkpt>
      <trkpt lat="46.82175" lon="12.28876">
        <ele>2358.25</ele>
        <time>2017-03-01T12:57:43Z</time>
      </trkpt>
      <trkpt lat="46.82175" lon="12.28876">
        <ele>2356.81</ele>
        <time>2017-03-01T12:57:44Z</time>
      </trkpt>
      <trkpt lat="46.82174" lon="12.28877">
        <ele>2359.21</ele>
        <time>2017-03-01T12:58:02Z</time>
      </trkpt>
      <trkpt lat="46.82174" lon="12.28873">
        <ele>2354.41</ele>
        <time>2017-03-01T12:58:10Z</time>
      </trkpt>
      <trkpt lat="46.82174" lon="12.28873">
        <ele>2354.41</ele>
        <time>2017-03-01T12:58:11Z</time>
      </trkpt>
      <trkpt lat="46.82175" lon="12.28872">
        <ele>2354.41</ele>
        <time>2017-03-01T12:58:28Z</time>
      </trkpt>
      <trkpt lat="46.82174" lon="12.28872">
        <ele>2354.89</ele>
        <time>2017-03-01T12:58:47Z</time>
      </trkpt>
      <trkpt lat="46.82174" lon="12.28872">
        <ele>2358.25</ele>
        <time>2017-03-01T12:59:03Z</time>
      </trkpt>
      <trkpt lat="46.82175" lon="12.28872">
        <ele>2361.62</ele>
        <time>2017-03-01T12:59:06Z</time>
      </trkpt>
      <trkpt lat="46.82177" lon="12.28871">
        <ele>2359.21</ele>
        <time>2017-03-01T12:59:10Z</time>
      </trkpt>
      <trkpt lat="46.8218" lon="12.28863">
        <ele>2354.41</ele>
        <time>2017-03-01T12:59:13Z</time>
      </trkpt>
      <trkpt lat="46.82181" lon="12.28858">
        <ele>2351.04</ele>
        <time>2017-03-01T12:59:14Z</time>
      </trkpt>
      <trkpt lat="46.8218" lon="12.28848">
        <ele>2348.16</ele>
        <time>2017-03-01T12:59:16Z</time>
      </trkpt>
      <trkpt lat="46.82178" lon="12.28839">
        <ele>2346.72</ele>
        <time>2017-03-01T12:59:18Z</time>
      </trkpt>
      <trkpt lat="46.82176" lon="12.28835">
        <ele>2344.79</ele>
        <time>2017-03-01T12:59:19Z</time>
      </trkpt>
      <trkpt lat="46.8217" lon="12.28824">
        <ele>2345.75</ele>
        <time>2017-03-01T12:59:21Z</time>
      </trkpt>
      <trkpt lat="46.82169" lon="12.28817">
        <ele>2346.23</ele>
        <time>2017-03-01T12:59:22Z</time>
      </trkpt>
      <trkpt lat="46.82171" lon="12.28813">
        <ele>2345.27</ele>
        <time>2017-03-01T12:59:23Z</time>
      </trkpt>
      <trkpt lat="46.82175" lon="12.28813">
        <ele>2343.83</ele>
        <time>2017-03-01T12:59:24Z</time>
      </trkpt>
      <trkpt lat="46.82178" lon="12.28811">
        <ele>2342.87</ele>
        <time>2017-03-01T12:59:25Z</time>
      </trkpt>
      <trkpt lat="46.8218" lon="12.28806">
        <ele>2341.43</ele>
        <time>2017-03-01T12:59:26Z</time>
      </trkpt>
      <trkpt lat="46.82185" lon="12.28803">
        <ele>2338.54</ele>
        <time>2017-03-01T12:59:28Z</time>
      </trkpt>
      <trkpt lat="46.82191" lon="12.28802">
        <ele>2337.58</ele>
        <time>2017-03-01T12:59:30Z</time>
      </trkpt>
      <trkpt lat="46.82204" lon="12.28787">
        <ele>2332.3</ele>
        <time>2017-03-01T12:59:35Z</time>
      </trkpt>
      <trkpt lat="46.82208" lon="12.28775">
        <ele>2328.93</ele>
        <time>2017-03-01T12:59:38Z</time>
      </trkpt>
      <trkpt lat="46.82208" lon="12.28769">
        <ele>2326.05</ele>
        <time>2017-03-01T12:59:43Z</time>
      </trkpt>
      <trkpt lat="46.82208" lon="12.28769">
        <ele>2328.45</ele>
        <time>2017-03-01T13:00:06Z</time>
      </trkpt>
      <trkpt lat="46.82208" lon="12.28769">
        <ele>2326.05</ele>
        <time>2017-03-01T13:00:08Z</time>
      </trkpt>
      <trkpt lat="46.82208" lon="12.28769">
        <ele>2327.49</ele>
        <time>2017-03-01T13:00:12Z</time>
      </trkpt>
      <trkpt lat="46.82208" lon="12.28769">
        <ele>2327.49</ele>
        <time>2017-03-01T13:00:36Z</time>
      </trkpt>
      <trkpt lat="46.82208" lon="12.2877">
        <ele>2327.49</ele>
        <time>2017-03-01T13:00:54Z</time>
      </trkpt>
      <trkpt lat="46.82208" lon="12.2877">
        <ele>2327.49</ele>
        <time>2017-03-01T13:00:55Z</time>
      </trkpt>
      <trkpt lat="46.82208" lon="12.28769">
        <ele>2328.45</ele>
        <time>2017-03-01T13:01:19Z</time>
      </trkpt>
      <trkpt lat="46.82208" lon="12.28769">
        <ele>2327.01</ele>
        <time>2017-03-01T13:01:41Z</time>
      </trkpt>
      <trkpt lat="46.82208" lon="12.28768">
        <ele>2327.01</ele>
        <time>2017-03-01T13:01:50Z</time>
      </trkpt>
      <trkpt lat="46.82201" lon="12.2875">
        <ele>2324.61</ele>
        <time>2017-03-01T13:01:57Z</time>
      </trkpt>
      <trkpt lat="46.82198" lon="12.28743">
        <ele>2322.68</ele>
        <time>2017-03-01T13:01:59Z</time>
      </trkpt>
      <trkpt lat="46.82197" lon="12.28736">
        <ele>2321.72</ele>
        <time>2017-03-01T13:02:01Z</time>
      </trkpt>
      <trkpt lat="46.82198" lon="12.28731">
        <ele>2319.8</ele>
        <time>2017-03-01T13:02:02Z</time>
      </trkpt>
      <trkpt lat="46.82197" lon="12.28725">
        <ele>2317.88</ele>
        <time>2017-03-01T13:02:03Z</time>
      </trkpt>
      <trkpt lat="46.82199" lon="12.28719">
        <ele>2315.95</ele>
        <time>2017-03-01T13:02:04Z</time>
      </trkpt>
      <trkpt lat="46.82201" lon="12.28716">
        <ele>2314.03</ele>
        <time>2017-03-01T13:02:05Z</time>
      </trkpt>
      <trkpt lat="46.82204" lon="12.28713">
        <ele>2313.55</ele>
        <time>2017-03-01T13:02:06Z</time>
      </trkpt>
      <trkpt lat="46.82205" lon="12.28709">
        <ele>2313.07</ele>
        <time>2017-03-01T13:02:07Z</time>
      </trkpt>
      <trkpt lat="46.82205" lon="12.28705">
        <ele>2311.63</ele>
        <time>2017-03-01T13:02:08Z</time>
      </trkpt>
      <trkpt lat="46.82206" lon="12.287">
        <ele>2309.7</ele>
        <time>2017-03-01T13:02:09Z</time>
      </trkpt>
      <trkpt lat="46.82207" lon="12.28697">
        <ele>2309.7</ele>
        <time>2017-03-01T13:02:10Z</time>
      </trkpt>
      <trkpt lat="46.82207" lon="12.28696">
        <ele>2308.74</ele>
        <time>2017-03-01T13:02:11Z</time>
      </trkpt>
      <trkpt lat="46.82207" lon="12.28695">
        <ele>2308.26</ele>
        <time>2017-03-01T13:02:24Z</time>
      </trkpt>
      <trkpt lat="46.82207" lon="12.28694">
        <ele>2307.78</ele>
        <time>2017-03-01T13:02:48Z</time>
      </trkpt>
      <trkpt lat="46.82201" lon="12.28675">
        <ele>2306.82</ele>
        <time>2017-03-01T13:03:03Z</time>
      </trkpt>
      <trkpt lat="46.82195" lon="12.28662">
        <ele>2304.42</ele>
        <time>2017-03-01T13:03:05Z</time>
      </trkpt>
      <trkpt lat="46.82191" lon="12.28639">
        <ele>2299.61</ele>
        <time>2017-03-01T13:03:08Z</time>
      </trkpt>
      <trkpt lat="46.82191" lon="12.28631">
        <ele>2298.17</ele>
        <time>2017-03-01T13:03:09Z</time>
      </trkpt>
      <trkpt lat="46.82189" lon="12.28616">
        <ele>2295.77</ele>
        <time>2017-03-01T13:03:11Z</time>
      </trkpt>
      <trkpt lat="46.82191" lon="12.28592">
        <ele>2290.96</ele>
        <time>2017-03-01T13:03:14Z</time>
      </trkpt>
      <trkpt lat="46.82184" lon="12.28567">
        <ele>2288.56</ele>
        <time>2017-03-01T13:03:18Z</time>
      </trkpt>
      <trkpt lat="46.82178" lon="12.28543">
        <ele>2283.75</ele>
        <time>2017-03-01T13:03:22Z</time>
      </trkpt>
      <trkpt lat="46.82176" lon="12.28528">
        <ele>2280.87</ele>
        <time>2017-03-01T13:03:24Z</time>
      </trkpt>
      <trkpt lat="46.82174" lon="12.285">
        <ele>2277.02</ele>
        <time>2017-03-01T13:03:28Z</time>
      </trkpt>
      <trkpt lat="46.82174" lon="12.28482">
        <ele>2273.66</ele>
        <time>2017-03-01T13:03:32Z</time>
      </trkpt>
      <trkpt lat="46.82173" lon="12.28476">
        <ele>2272.69</ele>
        <time>2017-03-01T13:03:33Z</time>
      </trkpt>
      <trkpt lat="46.8217" lon="12.28443">
        <ele>2266.93</ele>
        <time>2017-03-01T13:03:38Z</time>
      </trkpt>
      <trkpt lat="46.8217" lon="12.28437">
        <ele>2265.48</ele>
        <time>2017-03-01T13:03:39Z</time>
      </trkpt>
      <trkpt lat="46.82169" lon="12.28426">
        <ele>2263.08</ele>
        <time>2017-03-01T13:03:41Z</time>
      </trkpt>
      <trkpt lat="46.8217" lon="12.28422">
        <ele>2261.16</ele>
        <time>2017-03-01T13:03:44Z</time>
      </trkpt>
      <trkpt lat="46.82171" lon="12.2842">
        <ele>2261.16</ele>
        <time>2017-03-01T13:03:56Z</time>
      </trkpt>
      <trkpt lat="46.82172" lon="12.28409">
        <ele>2259.72</ele>
        <time>2017-03-01T13:04:00Z</time>
      </trkpt>
      <trkpt lat="46.8217" lon="12.28378">
        <ele>2255.39</ele>
        <time>2017-03-01T13:04:04Z</time>
      </trkpt>
      <trkpt lat="46.82169" lon="12.2836">
        <ele>2253.47</ele>
        <time>2017-03-01T13:04:06Z</time>
      </trkpt>
      <trkpt lat="46.8217" lon="12.28342">
        <ele>2250.58</ele>
        <time>2017-03-01T13:04:08Z</time>
      </trkpt>
      <trkpt lat="46.82175" lon="12.28326">
        <ele>2248.66</ele>
        <time>2017-03-01T13:04:12Z</time>
      </trkpt>
      <trkpt lat="46.82176" lon="12.28325">
        <ele>2247.7</ele>
        <time>2017-03-01T13:04:26Z</time>
      </trkpt>
      <trkpt lat="46.82176" lon="12.28325">
        <ele>2247.22</ele>
        <time>2017-03-01T13:04:45Z</time>
      </trkpt>
      <trkpt lat="46.82176" lon="12.28321">
        <ele>2247.7</ele>
        <time>2017-03-01T13:04:57Z</time>
      </trkpt>
      <trkpt lat="46.8217" lon="12.28304">
        <ele>2246.26</ele>
        <time>2017-03-01T13:05:03Z</time>
      </trkpt>
      <trkpt lat="46.8216" lon="12.28279">
        <ele>2240.97</ele>
        <time>2017-03-01T13:05:08Z</time>
      </trkpt>
      <trkpt lat="46.82161" lon="12.28266">
        <ele>2239.53</ele>
        <time>2017-03-01T13:05:11Z</time>
      </trkpt>
      <trkpt lat="46.8216" lon="12.28261">
        <ele>2239.05</ele>
        <time>2017-03-01T13:05:12Z</time>
      </trkpt>
      <trkpt lat="46.82159" lon="12.28236">
        <ele>2235.68</ele>
        <time>2017-03-01T13:05:17Z</time>
      </trkpt>
      <trkpt lat="46.82153" lon="12.28204">
        <ele>2232.8</ele>
        <time>2017-03-01T13:05:24Z</time>
      </trkpt>
      <trkpt lat="46.82151" lon="12.28196">
        <ele>2229.43</ele>
        <time>2017-03-01T13:05:26Z</time>
      </trkpt>
      <trkpt lat="46.8215" lon="12.28193">
        <ele>2228.95</ele>
        <time>2017-03-01T13:05:27Z</time>
      </trkpt>
      <trkpt lat="46.82145" lon="12.28186">
        <ele>2227.99</ele>
        <time>2017-03-01T13:05:29Z</time>
      </trkpt>
      <trkpt lat="46.82137" lon="12.28173">
        <ele>2224.63</ele>
        <time>2017-03-01T13:05:32Z</time>
      </trkpt>
      <trkpt lat="46.8213" lon="12.28161">
        <ele>2220.78</ele>
        <time>2017-03-01T13:05:34Z</time>
      </trkpt>
      <trkpt lat="46.82125" lon="12.28148">
        <ele>2217.42</ele>
        <time>2017-03-01T13:05:36Z</time>
      </trkpt>
      <trkpt lat="46.82119" lon="12.28125">
        <ele>2213.57</ele>
        <time>2017-03-01T13:05:39Z</time>
      </trkpt>
      <trkpt lat="46.82117" lon="12.28112">
        <ele>2210.21</ele>
        <time>2017-03-01T13:05:41Z</time>
      </trkpt>
      <trkpt lat="46.82115" lon="12.28105">
        <ele>2207.32</ele>
        <time>2017-03-01T13:05:51Z</time>
      </trkpt>
      <trkpt lat="46.82115" lon="12.28103">
        <ele>2207.81</ele>
        <time>2017-03-01T13:05:57Z</time>
      </trkpt>
      <trkpt lat="46.82111" lon="12.28087">
        <ele>2206.84</ele>
        <time>2017-03-01T13:06:03Z</time>
      </trkpt>
      <trkpt lat="46.8211" lon="12.28065">
        <ele>2202.52</ele>
        <time>2017-03-01T13:06:09Z</time>
      </trkpt>
      <trkpt lat="46.82109" lon="12.28058">
        <ele>2200.59</ele>
        <time>2017-03-01T13:06:11Z</time>
      </trkpt>
      <trkpt lat="46.82111" lon="12.28053">
        <ele>2199.63</ele>
        <time>2017-03-01T13:06:13Z</time>
      </trkpt>
      <trkpt lat="46.82111" lon="12.2805">
        <ele>2198.19</ele>
        <time>2017-03-01T13:06:14Z</time>
      </trkpt>
      <trkpt lat="46.82112" lon="12.28048">
        <ele>2198.19</ele>
        <time>2017-03-01T13:06:24Z</time>
      </trkpt>
      <trkpt lat="46.82112" lon="12.28046">
        <ele>2197.71</ele>
        <time>2017-03-01T13:06:25Z</time>
      </trkpt>
      <trkpt lat="46.82112" lon="12.28043">
        <ele>2197.71</ele>
        <time>2017-03-01T13:06:26Z</time>
      </trkpt>
      <trkpt lat="46.82112" lon="12.28039">
        <ele>2197.23</ele>
        <time>2017-03-01T13:06:27Z</time>
      </trkpt>
      <trkpt lat="46.8211" lon="12.28034">
        <ele>2196.27</ele>
        <time>2017-03-01T13:06:28Z</time>
      </trkpt>
      <trkpt lat="46.82108" lon="12.28029">
        <ele>2195.31</ele>
        <time>2017-03-01T13:06:29Z</time>
      </trkpt>
      <trkpt lat="46.82109" lon="12.28017">
        <ele>2192.9</ele>
        <time>2017-03-01T13:06:31Z</time>
      </trkpt>
      <trkpt lat="46.82109" lon="12.28011">
        <ele>2192.42</ele>
        <time>2017-03-01T13:06:32Z</time>
      </trkpt>
      <trkpt lat="46.82109" lon="12.27999">
        <ele>2188.58</ele>
        <time>2017-03-01T13:06:34Z</time>
      </trkpt>
      <trkpt lat="46.82107" lon="12.27987">
        <ele>2184.25</ele>
        <time>2017-03-01T13:06:36Z</time>
      </trkpt>
      <trkpt lat="46.82107" lon="12.27978">
        <ele>2180.89</ele>
        <time>2017-03-01T13:06:39Z</time>
      </trkpt>
      <trkpt lat="46.82107" lon="12.27978">
        <ele>2180.41</ele>
        <time>2017-03-01T13:06:40Z</time>
      </trkpt>
      <trkpt lat="46.82107" lon="12.27977">
        <ele>2180.41</ele>
        <time>2017-03-01T13:06:58Z</time>
      </trkpt>
      <trkpt lat="46.82107" lon="12.27975">
        <ele>2180.89</ele>
        <time>2017-03-01T13:07:24Z</time>
      </trkpt>
      <trkpt lat="46.82107" lon="12.27975">
        <ele>2181.37</ele>
        <time>2017-03-01T13:07:45Z</time>
      </trkpt>
      <trkpt lat="46.82106" lon="12.27975">
        <ele>2181.85</ele>
        <time>2017-03-01T13:08:07Z</time>
      </trkpt>
      <trkpt lat="46.82107" lon="12.27976">
        <ele>2180.41</ele>
        <time>2017-03-01T13:08:29Z</time>
      </trkpt>
      <trkpt lat="46.82108" lon="12.27978">
        <ele>2179.93</ele>
        <time>2017-03-01T13:08:48Z</time>
      </trkpt>
      <trkpt lat="46.82112" lon="12.27977">
        <ele>2179.45</ele>
        <time>2017-03-01T13:08:52Z</time>
      </trkpt>
      <trkpt lat="46.82117" lon="12.27966">
        <ele>2175.12</ele>
        <time>2017-03-01T13:08:57Z</time>
      </trkpt>
      <trkpt lat="46.82121" lon="12.27965">
        <ele>2174.64</ele>
        <time>2017-03-01T13:09:08Z</time>
      </trkpt>
      <trkpt lat="46.82121" lon="12.27965">
        <ele>2174.16</ele>
        <time>2017-03-01T13:09:26Z</time>
      </trkpt>
      <trkpt lat="46.82119" lon="12.27963">
        <ele>2174.16</ele>
        <time>2017-03-01T13:09:49Z</time>
      </trkpt>
      <trkpt lat="46.82127" lon="12.27967">
        <ele>2172.24</ele>
        <time>2017-03-01T13:09:58Z</time>
      </trkpt>
      <trkpt lat="46.82137" lon="12.27979">
        <ele>2168.39</ele>
        <time>2017-03-01T13:10:01Z</time>
      </trkpt>
      <trkpt lat="46.82146" lon="12.27985">
        <ele>2165.51</ele>
        <time>2017-03-01T13:10:05Z</time>
      </trkpt>
      <trkpt lat="46.82154" lon="12.27984">
        <ele>2162.14</ele>
        <time>2017-03-01T13:10:10Z</time>
      </trkpt>
      <trkpt lat="46.82162" lon="12.27974">
        <ele>2156.37</ele>
        <time>2017-03-01T13:10:13Z</time>
      </trkpt>
      <trkpt lat="46.82167" lon="12.27964">
        <ele>2153.01</ele>
        <time>2017-03-01T13:10:15Z</time>
      </trkpt>
      <trkpt lat="46.82176" lon="12.27954">
        <ele>2149.16</ele>
        <time>2017-03-01T13:10:18Z</time>
      </trkpt>
      <trkpt lat="46.82174" lon="12.27939">
        <ele>2144.36</ele>
        <time>2017-03-01T13:10:22Z</time>
      </trkpt>
      <trkpt lat="46.82176" lon="12.27935">
        <ele>2141.95</ele>
        <time>2017-03-01T13:10:25Z</time>
      </trkpt>
      <trkpt lat="46.82174" lon="12.27936">
        <ele>2142.44</ele>
        <time>2017-03-01T13:10:45Z</time>
      </trkpt>
      <trkpt lat="46.82174" lon="12.27937">
        <ele>2142.44</ele>
        <time>2017-03-01T13:11:09Z</time>
      </trkpt>
      <trkpt lat="46.82175" lon="12.27935">
        <ele>2141.95</ele>
        <time>2017-03-01T13:11:31Z</time>
      </trkpt>
      <trkpt lat="46.82176" lon="12.27939">
        <ele>2141.47</ele>
        <time>2017-03-01T13:11:48Z</time>
      </trkpt>
      <trkpt lat="46.8218" lon="12.27921">
        <ele>2137.63</ele>
        <time>2017-03-01T13:11:53Z</time>
      </trkpt>
      <trkpt lat="46.82179" lon="12.27912">
        <ele>2135.23</ele>
        <time>2017-03-01T13:12:02Z</time>
      </trkpt>
      <trkpt lat="46.82177" lon="12.27909">
        <ele>2134.74</ele>
        <time>2017-03-01T13:12:14Z</time>
      </trkpt>
      <trkpt lat="46.8218" lon="12.27896">
        <ele>2131.38</ele>
        <time>2017-03-01T13:12:18Z</time>
      </trkpt>
      <trkpt lat="46.82182" lon="12.27877">
        <ele>2127.05</ele>
        <time>2017-03-01T13:12:21Z</time>
      </trkpt>
      <trkpt lat="46.82187" lon="12.27865">
        <ele>2122.25</ele>
        <time>2017-03-01T13:12:25Z</time>
      </trkpt>
      <trkpt lat="46.82198" lon="12.27868">
        <ele>2117.92</ele>
        <time>2017-03-01T13:12:29Z</time>
      </trkpt>
      <trkpt lat="46.82208" lon="12.27856">
        <ele>2113.6</ele>
        <time>2017-03-01T13:12:32Z</time>
      </trkpt>
      <trkpt lat="46.8221" lon="12.27842">
        <ele>2110.23</ele>
        <time>2017-03-01T13:12:35Z</time>
      </trkpt>
      <trkpt lat="46.82208" lon="12.27833">
        <ele>2109.75</ele>
        <time>2017-03-01T13:12:38Z</time>
      </trkpt>
      <trkpt lat="46.82212" lon="12.27823">
        <ele>2105.91</ele>
        <time>2017-03-01T13:12:41Z</time>
      </trkpt>
      <trkpt lat="46.82219" lon="12.27799">
        <ele>2101.1</ele>
        <time>2017-03-01T13:12:47Z</time>
      </trkpt>
      <trkpt lat="46.82232" lon="12.27799">
        <ele>2097.25</ele>
        <time>2017-03-01T13:12:51Z</time>
      </trkpt>
      <trkpt lat="46.82237" lon="12.27799">
        <ele>2096.77</ele>
        <time>2017-03-01T13:13:00Z</time>
      </trkpt>
      <trkpt lat="46.82236" lon="12.27795">
        <ele>2096.77</ele>
        <time>2017-03-01T13:13:19Z</time>
      </trkpt>
      <trkpt lat="46.82234" lon="12.27797">
        <ele>2097.25</ele>
        <time>2017-03-01T13:13:44Z</time>
      </trkpt>
      <trkpt lat="46.82235" lon="12.27798">
        <ele>2097.25</ele>
        <time>2017-03-01T13:14:02Z</time>
      </trkpt>
      <trkpt lat="46.82243" lon="12.27786">
        <ele>2095.33</ele>
        <time>2017-03-01T13:14:08Z</time>
      </trkpt>
      <trkpt lat="46.82251" lon="12.27769">
        <ele>2092.45</ele>
        <time>2017-03-01T13:14:13Z</time>
      </trkpt>
      <trkpt lat="46.82249" lon="12.27759">
        <ele>2089.08</ele>
        <time>2017-03-01T13:14:16Z</time>
      </trkpt>
      <trkpt lat="46.82249" lon="12.27758">
        <ele>2090.04</ele>
        <time>2017-03-01T13:14:17Z</time>
      </trkpt>
      <trkpt lat="46.8225" lon="12.27757">
        <ele>2090.04</ele>
        <time>2017-03-01T13:14:20Z</time>
      </trkpt>
      <trkpt lat="46.82256" lon="12.27751">
        <ele>2089.56</ele>
        <time>2017-03-01T13:14:28Z</time>
      </trkpt>
      <trkpt lat="46.82271" lon="12.27743">
        <ele>2085.72</ele>
        <time>2017-03-01T13:14:36Z</time>
      </trkpt>
      <trkpt lat="46.82276" lon="12.2774">
        <ele>2084.76</ele>
        <time>2017-03-01T13:14:40Z</time>
      </trkpt>
      <trkpt lat="46.82276" lon="12.2774">
        <ele>2084.28</ele>
        <time>2017-03-01T13:14:41Z</time>
      </trkpt>
      <trkpt lat="46.82287" lon="12.27739">
        <ele>2081.39</ele>
        <time>2017-03-01T13:14:50Z</time>
      </trkpt>
      <trkpt lat="46.82289" lon="12.2774">
        <ele>2080.43</ele>
        <time>2017-03-01T13:14:58Z</time>
      </trkpt>
      <trkpt lat="46.82287" lon="12.27743">
        <ele>2080.43</ele>
        <time>2017-03-01T13:15:20Z</time>
      </trkpt>
      <trkpt lat="46.823" lon="12.27736">
        <ele>2077.07</ele>
        <time>2017-03-01T13:15:36Z</time>
      </trkpt>
      <trkpt lat="46.82309" lon="12.27732">
        <ele>2074.18</ele>
        <time>2017-03-01T13:15:39Z</time>
      </trkpt>
      <trkpt lat="46.82313" lon="12.27717">
        <ele>2069.86</ele>
        <time>2017-03-01T13:15:43Z</time>
      </trkpt>
      <trkpt lat="46.8232" lon="12.27708">
        <ele>2066.49</ele>
        <time>2017-03-01T13:15:46Z</time>
      </trkpt>
      <trkpt lat="46.8232" lon="12.27697">
        <ele>2062.65</ele>
        <time>2017-03-01T13:15:49Z</time>
      </trkpt>
      <trkpt lat="46.82325" lon="12.2769">
        <ele>2059.76</ele>
        <time>2017-03-01T13:15:52Z</time>
      </trkpt>
      <trkpt lat="46.8233" lon="12.27675">
        <ele>2055.44</ele>
        <time>2017-03-01T13:15:56Z</time>
      </trkpt>
      <trkpt lat="46.82329" lon="12.27663">
        <ele>2052.07</ele>
        <time>2017-03-01T13:16:01Z</time>
      </trkpt>
      <trkpt lat="46.82329" lon="12.27661">
        <ele>2052.07</ele>
        <time>2017-03-01T13:16:14Z</time>
      </trkpt>
      <trkpt lat="46.82328" lon="12.27664">
        <ele>2052.55</ele>
        <time>2017-03-01T13:16:41Z</time>
      </trkpt>
      <trkpt lat="46.82327" lon="12.27664">
        <ele>2053.03</ele>
        <time>2017-03-01T13:17:07Z</time>
      </trkpt>
      <trkpt lat="46.82326" lon="12.27664">
        <ele>2052.55</ele>
        <time>2017-03-01T13:17:19Z</time>
      </trkpt>
      <trkpt lat="46.82327" lon="12.27656">
        <ele>2050.15</ele>
        <time>2017-03-01T13:17:23Z</time>
      </trkpt>
      <trkpt lat="46.82333" lon="12.27649">
        <ele>2046.78</ele>
        <time>2017-03-01T13:17:27Z</time>
      </trkpt>
      <trkpt lat="46.82336" lon="12.27648">
        <ele>2046.78</ele>
        <time>2017-03-01T13:17:28Z</time>
      </trkpt>
      <trkpt lat="46.8234" lon="12.27634">
        <ele>2042.46</ele>
        <time>2017-03-01T13:17:32Z</time>
      </trkpt>
      <trkpt lat="46.82342" lon="12.27628">
        <ele>2040.54</ele>
        <time>2017-03-01T13:17:35Z</time>
      </trkpt>
      <trkpt lat="46.82346" lon="12.27629">
        <ele>2039.57</ele>
        <time>2017-03-01T13:17:42Z</time>
      </trkpt>
      <trkpt lat="46.82345" lon="12.27617">
        <ele>2036.21</ele>
        <time>2017-03-01T13:17:48Z</time>
      </trkpt>
      <trkpt lat="46.82348" lon="12.27613">
        <ele>2034.29</ele>
        <time>2017-03-01T13:17:50Z</time>
      </trkpt>
      <trkpt lat="46.82348" lon="12.27606">
        <ele>2032.36</ele>
        <time>2017-03-01T13:17:53Z</time>
      </trkpt>
      <trkpt lat="46.82348" lon="12.27605">
        <ele>2030.44</ele>
        <time>2017-03-01T13:17:54Z</time>
      </trkpt>
      <trkpt lat="46.82355" lon="12.27586">
        <ele>2026.6</ele>
        <time>2017-03-01T13:18:00Z</time>
      </trkpt>
      <trkpt lat="46.82359" lon="12.27584">
        <ele>2025.15</ele>
        <time>2017-03-01T13:18:01Z</time>
      </trkpt>
      <trkpt lat="46.82379" lon="12.27569">
        <ele>2020.35</ele>
        <time>2017-03-01T13:18:07Z</time>
      </trkpt>
      <trkpt lat="46.82378" lon="12.27557">
        <ele>2016.98</ele>
        <time>2017-03-01T13:18:10Z</time>
      </trkpt>
      <trkpt lat="46.82381" lon="12.27545">
        <ele>2013.62</ele>
        <time>2017-03-01T13:18:13Z</time>
      </trkpt>
      <trkpt lat="46.82387" lon="12.27539">
        <ele>2011.22</ele>
        <time>2017-03-01T13:18:15Z</time>
      </trkpt>
      <trkpt lat="46.82397" lon="12.27525">
        <ele>2009.77</ele>
        <time>2017-03-01T13:18:19Z</time>
      </trkpt>
      <trkpt lat="46.82402" lon="12.27502">
        <ele>2003.52</ele>
        <time>2017-03-01T13:18:23Z</time>
      </trkpt>
      <trkpt lat="46.82396" lon="12.27492">
        <ele>1999.68</ele>
        <time>2017-03-01T13:18:27Z</time>
      </trkpt>
      <trkpt lat="46.82396" lon="12.27487">
        <ele>1999.2</ele>
        <time>2017-03-01T13:18:28Z</time>
      </trkpt>
      <trkpt lat="46.82398" lon="12.27474">
        <ele>1996.8</ele>
        <time>2017-03-01T13:18:30Z</time>
      </trkpt>
      <trkpt lat="46.82404" lon="12.2745">
        <ele>1992.47</ele>
        <time>2017-03-01T13:18:34Z</time>
      </trkpt>
      <trkpt lat="46.8242" lon="12.27418">
        <ele>1987.18</ele>
        <time>2017-03-01T13:18:42Z</time>
      </trkpt>
      <trkpt lat="46.8242" lon="12.27418">
        <ele>1987.66</ele>
        <time>2017-03-01T13:18:57Z</time>
      </trkpt>
      <trkpt lat="46.82419" lon="12.27419">
        <ele>1987.66</ele>
        <time>2017-03-01T13:19:18Z</time>
      </trkpt>
      <trkpt lat="46.82419" lon="12.2742">
        <ele>1988.62</ele>
        <time>2017-03-01T13:19:32Z</time>
      </trkpt>
      <trkpt lat="46.82419" lon="12.27419">
        <ele>1988.14</ele>
        <time>2017-03-01T13:19:44Z</time>
      </trkpt>
      <trkpt lat="46.82419" lon="12.27417">
        <ele>1988.14</ele>
        <time>2017-03-01T13:19:59Z</time>
      </trkpt>
      <trkpt lat="46.82424" lon="12.274">
        <ele>1984.3</ele>
        <time>2017-03-01T13:20:03Z</time>
      </trkpt>
      <trkpt lat="46.82425" lon="12.27381">
        <ele>1980.93</ele>
        <time>2017-03-01T13:20:06Z</time>
      </trkpt>
      <trkpt lat="46.82429" lon="12.27368">
        <ele>1978.53</ele>
        <time>2017-03-01T13:20:09Z</time>
      </trkpt>
      <trkpt lat="46.82429" lon="12.27356">
        <ele>1974.69</ele>
        <time>2017-03-01T13:20:11Z</time>
      </trkpt>
      <trkpt lat="46.82432" lon="12.27351">
        <ele>1973.24</ele>
        <time>2017-03-01T13:20:12Z</time>
      </trkpt>
      <trkpt lat="46.82435" lon="12.27342">
        <ele>1971.8</ele>
        <time>2017-03-01T13:20:14Z</time>
      </trkpt>
      <trkpt lat="46.82436" lon="12.27331">
        <ele>1970.36</ele>
        <time>2017-03-01T13:20:16Z</time>
      </trkpt>
      <trkpt lat="46.82437" lon="12.27325">
        <ele>1968.44</ele>
        <time>2017-03-01T13:20:17Z</time>
      </trkpt>
      <trkpt lat="46.82436" lon="12.27314">
        <ele>1966.51</ele>
        <time>2017-03-01T13:20:19Z</time>
      </trkpt>
      <trkpt lat="46.82436" lon="12.27308">
        <ele>1964.59</ele>
        <time>2017-03-01T13:20:20Z</time>
      </trkpt>
      <trkpt lat="46.82437" lon="12.27302">
        <ele>1963.15</ele>
        <time>2017-03-01T13:20:21Z</time>
      </trkpt>
      <trkpt lat="46.82441" lon="12.27286">
        <ele>1960.75</ele>
        <time>2017-03-01T13:20:24Z</time>
      </trkpt>
      <trkpt lat="46.82438" lon="12.27282">
        <ele>1959.78</ele>
        <time>2017-03-01T13:20:25Z</time>
      </trkpt>
      <trkpt lat="46.82436" lon="12.27278">
        <ele>1959.3</ele>
        <time>2017-03-01T13:20:26Z</time>
      </trkpt>
      <trkpt lat="46.82437" lon="12.27274">
        <ele>1957.86</ele>
        <time>2017-03-01T13:20:27Z</time>
      </trkpt>
      <trkpt lat="46.82441" lon="12.27266">
        <ele>1956.9</ele>
        <time>2017-03-01T13:20:29Z</time>
      </trkpt>
      <trkpt lat="46.82446" lon="12.27257">
        <ele>1955.46</ele>
        <time>2017-03-01T13:20:31Z</time>
      </trkpt>
      <trkpt lat="46.82452" lon="12.27232">
        <ele>1950.65</ele>
        <time>2017-03-01T13:20:35Z</time>
      </trkpt>
      <trkpt lat="46.82461" lon="12.27211">
        <ele>1945.36</ele>
        <time>2017-03-01T13:20:38Z</time>
      </trkpt>
      <trkpt lat="46.82475" lon="12.27184">
        <ele>1942</ele>
        <time>2017-03-01T13:20:43Z</time>
      </trkpt>
      <trkpt lat="46.82478" lon="12.27181">
        <ele>1942</ele>
        <time>2017-03-01T13:20:44Z</time>
      </trkpt>
      <trkpt lat="46.82472" lon="12.27168">
        <ele>1938.16</ele>
        <time>2017-03-01T13:20:47Z</time>
      </trkpt>
      <trkpt lat="46.82474" lon="12.27159">
        <ele>1935.75</ele>
        <time>2017-03-01T13:20:49Z</time>
      </trkpt>
      <trkpt lat="46.82477" lon="12.2714">
        <ele>1931.43</ele>
        <time>2017-03-01T13:20:54Z</time>
      </trkpt>
      <trkpt lat="46.82488" lon="12.27126">
        <ele>1927.1</ele>
        <time>2017-03-01T13:20:58Z</time>
      </trkpt>
      <trkpt lat="46.82492" lon="12.27123">
        <ele>1927.1</ele>
        <time>2017-03-01T13:20:59Z</time>
      </trkpt>
      <trkpt lat="46.82498" lon="12.27115">
        <ele>1926.62</ele>
        <time>2017-03-01T13:21:01Z</time>
      </trkpt>
      <trkpt lat="46.82511" lon="12.27098">
        <ele>1924.7</ele>
        <time>2017-03-01T13:21:05Z</time>
      </trkpt>
      <trkpt lat="46.82506" lon="12.27089">
        <ele>1921.81</ele>
        <time>2017-03-01T13:21:11Z</time>
      </trkpt>
      <trkpt lat="46.82507" lon="12.27088">
        <ele>1921.81</ele>
        <time>2017-03-01T13:21:29Z</time>
      </trkpt>
      <trkpt lat="46.82508" lon="12.27087">
        <ele>1922.29</ele>
        <time>2017-03-01T13:21:48Z</time>
      </trkpt>
      <trkpt lat="46.82505" lon="12.27088">
        <ele>1921.33</ele>
        <time>2017-03-01T13:22:07Z</time>
      </trkpt>
      <trkpt lat="46.82496" lon="12.27083">
        <ele>1919.41</ele>
        <time>2017-03-01T13:22:13Z</time>
      </trkpt>
      <trkpt lat="46.82493" lon="12.27075">
        <ele>1917.01</ele>
        <time>2017-03-01T13:22:15Z</time>
      </trkpt>
      <trkpt lat="46.82494" lon="12.27073">
        <ele>1916.53</ele>
        <time>2017-03-01T13:22:16Z</time>
      </trkpt>
      <trkpt lat="46.82496" lon="12.27071">
        <ele>1916.53</ele>
        <time>2017-03-01T13:22:17Z</time>
      </trkpt>
      <trkpt lat="46.82499" lon="12.27067">
        <ele>1914.6</ele>
        <time>2017-03-01T13:22:18Z</time>
      </trkpt>
      <trkpt lat="46.82504" lon="12.27062">
        <ele>1913.16</ele>
        <time>2017-03-01T13:22:20Z</time>
      </trkpt>
      <trkpt lat="46.82512" lon="12.27052">
        <ele>1911.72</ele>
        <time>2017-03-01T13:22:23Z</time>
      </trkpt>
      <trkpt lat="46.82514" lon="12.27047">
        <ele>1909.8</ele>
        <time>2017-03-01T13:22:24Z</time>
      </trkpt>
      <trkpt lat="46.82517" lon="12.27042">
        <ele>1909.32</ele>
        <time>2017-03-01T13:22:25Z</time>
      </trkpt>
      <trkpt lat="46.82526" lon="12.27034">
        <ele>1907.39</ele>
        <time>2017-03-01T13:22:28Z</time>
      </trkpt>
      <trkpt lat="46.82533" lon="12.27028">
        <ele>1905.95</ele>
        <time>2017-03-01T13:22:31Z</time>
      </trkpt>
      <trkpt lat="46.82544" lon="12.27013">
        <ele>1903.55</ele>
        <time>2017-03-01T13:22:36Z</time>
      </trkpt>
      <trkpt lat="46.82542" lon="12.26996">
        <ele>1898.74</ele>
        <time>2017-03-01T13:22:40Z</time>
      </trkpt>
      <trkpt lat="46.82539" lon="12.2699">
        <ele>1896.82</ele>
        <time>2017-03-01T13:22:46Z</time>
      </trkpt>
      <trkpt lat="46.82547" lon="12.26979">
        <ele>1892.97</ele>
        <time>2017-03-01T13:22:52Z</time>
      </trkpt>
      <trkpt lat="46.82557" lon="12.26965">
        <ele>1889.61</ele>
        <time>2017-03-01T13:22:56Z</time>
      </trkpt>
      <trkpt lat="46.82567" lon="12.26949">
        <ele>1885.28</ele>
        <time>2017-03-01T13:23:00Z</time>
      </trkpt>
      <trkpt lat="46.82563" lon="12.26932">
        <ele>1883.36</ele>
        <time>2017-03-01T13:23:09Z</time>
      </trkpt>
      <trkpt lat="46.8256" lon="12.26929">
        <ele>1883.84</ele>
        <time>2017-03-01T13:23:24Z</time>
      </trkpt>
      <trkpt lat="46.82559" lon="12.26928">
        <ele>1883.84</ele>
        <time>2017-03-01T13:23:49Z</time>
      </trkpt>
      <trkpt lat="46.82561" lon="12.26927">
        <ele>1884.32</ele>
        <time>2017-03-01T13:24:04Z</time>
      </trkpt>
      <trkpt lat="46.82576" lon="12.26912">
        <ele>1880.48</ele>
        <time>2017-03-01T13:24:11Z</time>
      </trkpt>
      <trkpt lat="46.82582" lon="12.26905">
        <ele>1877.11</ele>
        <time>2017-03-01T13:24:13Z</time>
      </trkpt>
      <trkpt lat="46.82585" lon="12.26903">
        <ele>1877.11</ele>
        <time>2017-03-01T13:24:14Z</time>
      </trkpt>
      <trkpt lat="46.82591" lon="12.26895">
        <ele>1875.67</ele>
        <time>2017-03-01T13:24:21Z</time>
      </trkpt>
      <trkpt lat="46.82593" lon="12.26891">
        <ele>1876.15</ele>
        <time>2017-03-01T13:24:40Z</time>
      </trkpt>
      <trkpt lat="46.82601" lon="12.26883">
        <ele>1872.79</ele>
        <time>2017-03-01T13:24:54Z</time>
      </trkpt>
      <trkpt lat="46.82607" lon="12.2687">
        <ele>1870.38</ele>
        <time>2017-03-01T13:24:57Z</time>
      </trkpt>
      <trkpt lat="46.82616" lon="12.26858">
        <ele>1867.02</ele>
        <time>2017-03-01T13:25:00Z</time>
      </trkpt>
      <trkpt lat="46.82621" lon="12.2685">
        <ele>1863.65</ele>
        <time>2017-03-01T13:25:02Z</time>
      </trkpt>
      <trkpt lat="46.82628" lon="12.26839">
        <ele>1860.29</ele>
        <time>2017-03-01T13:25:05Z</time>
      </trkpt>
      <trkpt lat="46.8263" lon="12.26837">
        <ele>1860.77</ele>
        <time>2017-03-01T13:25:06Z</time>
      </trkpt>
      <trkpt lat="46.82637" lon="12.26827">
        <ele>1856.44</ele>
        <time>2017-03-01T13:25:09Z</time>
      </trkpt>
      <trkpt lat="46.8264" lon="12.26825">
        <ele>1856.44</ele>
        <time>2017-03-01T13:25:10Z</time>
      </trkpt>
      <trkpt lat="46.82644" lon="12.26823">
        <ele>1855.96</ele>
        <time>2017-03-01T13:25:11Z</time>
      </trkpt>
      <trkpt lat="46.82646" lon="12.26808">
        <ele>1852.12</ele>
        <time>2017-03-01T13:25:15Z</time>
      </trkpt>
      <trkpt lat="46.82653" lon="12.26806">
        <ele>1850.68</ele>
        <time>2017-03-01T13:25:17Z</time>
      </trkpt>
      <trkpt lat="46.82674" lon="12.26796">
        <ele>1845.87</ele>
        <time>2017-03-01T13:25:22Z</time>
      </trkpt>
      <trkpt lat="46.82679" lon="12.26794">
        <ele>1845.39</ele>
        <time>2017-03-01T13:25:23Z</time>
      </trkpt>
      <trkpt lat="46.82682" lon="12.26792">
        <ele>1844.43</ele>
        <time>2017-03-01T13:25:25Z</time>
      </trkpt>
      <trkpt lat="46.8268" lon="12.26777">
        <ele>1843.47</ele>
        <time>2017-03-01T13:25:37Z</time>
      </trkpt>
      <trkpt lat="46.82681" lon="12.26776">
        <ele>1843.47</ele>
        <time>2017-03-01T13:25:39Z</time>
      </trkpt>
      <trkpt lat="46.82694" lon="12.26758">
        <ele>1840.1</ele>
        <time>2017-03-01T13:25:47Z</time>
      </trkpt>
      <trkpt lat="46.82704" lon="12.2675">
        <ele>1837.22</ele>
        <time>2017-03-01T13:25:50Z</time>
      </trkpt>
      <trkpt lat="46.82713" lon="12.26745">
        <ele>1835.29</ele>
        <time>2017-03-01T13:25:52Z</time>
      </trkpt>
      <trkpt lat="46.82721" lon="12.26735">
        <ele>1831.93</ele>
        <time>2017-03-01T13:25:55Z</time>
      </trkpt>
      <trkpt lat="46.82724" lon="12.2672">
        <ele>1829.05</ele>
        <time>2017-03-01T13:25:58Z</time>
      </trkpt>
      <trkpt lat="46.82731" lon="12.26708">
        <ele>1825.68</ele>
        <time>2017-03-01T13:26:01Z</time>
      </trkpt>
      <trkpt lat="46.82742" lon="12.26701">
        <ele>1822.8</ele>
        <time>2017-03-01T13:26:04Z</time>
      </trkpt>
      <trkpt lat="46.82745" lon="12.26698">
        <ele>1822.32</ele>
        <time>2017-03-01T13:26:05Z</time>
      </trkpt>
      <trkpt lat="46.82754" lon="12.26687">
        <ele>1818.95</ele>
        <time>2017-03-01T13:26:08Z</time>
      </trkpt>
      <trkpt lat="46.82758" lon="12.26683">
        <ele>1818.47</ele>
        <time>2017-03-01T13:26:09Z</time>
      </trkpt>
      <trkpt lat="46.82761" lon="12.26678">
        <ele>1816.07</ele>
        <time>2017-03-01T13:26:10Z</time>
      </trkpt>
      <trkpt lat="46.82765" lon="12.26675">
        <ele>1815.11</ele>
        <time>2017-03-01T13:26:11Z</time>
      </trkpt>
      <trkpt lat="46.82769" lon="12.2667">
        <ele>1814.15</ele>
        <time>2017-03-01T13:26:12Z</time>
      </trkpt>
      <trkpt lat="46.82772" lon="12.26666">
        <ele>1813.18</ele>
        <time>2017-03-01T13:26:13Z</time>
      </trkpt>
      <trkpt lat="46.82775" lon="12.26662">
        <ele>1811.74</ele>
        <time>2017-03-01T13:26:14Z</time>
      </trkpt>
      <trkpt lat="46.82777" lon="12.26657">
        <ele>1810.78</ele>
        <time>2017-03-01T13:26:15Z</time>
      </trkpt>
      <trkpt lat="46.82779" lon="12.26655">
        <ele>1811.26</ele>
        <time>2017-03-01T13:26:16Z</time>
      </trkpt>
      <trkpt lat="46.82779" lon="12.26651">
        <ele>1811.26</ele>
        <time>2017-03-01T13:26:19Z</time>
      </trkpt>
      <trkpt lat="46.82773" lon="12.26648">
        <ele>1811.26</ele>
        <time>2017-03-01T13:26:36Z</time>
      </trkpt>
      <trkpt lat="46.82768" lon="12.26647">
        <ele>1812.7</ele>
        <time>2017-03-01T13:26:59Z</time>
      </trkpt>
      <trkpt lat="46.82763" lon="12.26647">
        <ele>1812.22</ele>
        <time>2017-03-01T13:27:18Z</time>
      </trkpt>
      <trkpt lat="46.82767" lon="12.26652">
        <ele>1812.7</ele>
        <time>2017-03-01T13:27:28Z</time>
      </trkpt>
      <trkpt lat="46.82773" lon="12.26655">
        <ele>1812.22</ele>
        <time>2017-03-01T13:27:35Z</time>
      </trkpt>
      <trkpt lat="46.82786" lon="12.26649">
        <ele>1808.86</ele>
        <time>2017-03-01T13:27:42Z</time>
      </trkpt>
      <trkpt lat="46.82789" lon="12.26647">
        <ele>1808.86</ele>
        <time>2017-03-01T13:27:43Z</time>
      </trkpt>
      <trkpt lat="46.828" lon="12.26634">
        <ele>1806.94</ele>
        <time>2017-03-01T13:27:46Z</time>
      </trkpt>
      <trkpt lat="46.82816" lon="12.26619">
        <ele>1804.53</ele>
        <time>2017-03-01T13:27:50Z</time>
      </trkpt>
      <trkpt lat="46.82821" lon="12.26614">
        <ele>1804.05</ele>
        <time>2017-03-01T13:27:51Z</time>
      </trkpt>
      <trkpt lat="46.82826" lon="12.26609">
        <ele>1803.09</ele>
        <time>2017-03-01T13:27:52Z</time>
      </trkpt>
      <trkpt lat="46.82835" lon="12.266">
        <ele>1801.17</ele>
        <time>2017-03-01T13:27:54Z</time>
      </trkpt>
      <trkpt lat="46.82839" lon="12.26594">
        <ele>1800.21</ele>
        <time>2017-03-01T13:27:55Z</time>
      </trkpt>
      <trkpt lat="46.82845" lon="12.26586">
        <ele>1799.73</ele>
        <time>2017-03-01T13:27:57Z</time>
      </trkpt>
      <trkpt lat="46.8285" lon="12.26582">
        <ele>1797.8</ele>
        <time>2017-03-01T13:27:58Z</time>
      </trkpt>
      <trkpt lat="46.82856" lon="12.26577">
        <ele>1796.84</ele>
        <time>2017-03-01T13:28:00Z</time>
      </trkpt>
      <trkpt lat="46.82859" lon="12.26574">
        <ele>1795.4</ele>
        <time>2017-03-01T13:28:01Z</time>
      </trkpt>
      <trkpt lat="46.82862" lon="12.26572">
        <ele>1794.92</ele>
        <time>2017-03-01T13:28:02Z</time>
      </trkpt>
      <trkpt lat="46.82865" lon="12.2657">
        <ele>1794.92</ele>
        <time>2017-03-01T13:28:03Z</time>
      </trkpt>
      <trkpt lat="46.82872" lon="12.26569">
        <ele>1794.44</ele>
        <time>2017-03-01T13:28:04Z</time>
      </trkpt>
      <trkpt lat="46.82876" lon="12.26569">
        <ele>1792.03</ele>
        <time>2017-03-01T13:28:05Z</time>
      </trkpt>
      <trkpt lat="46.82885" lon="12.26571">
        <ele>1790.11</ele>
        <time>2017-03-01T13:28:07Z</time>
      </trkpt>
      <trkpt lat="46.82889" lon="12.26571">
        <ele>1789.63</ele>
        <time>2017-03-01T13:28:08Z</time>
      </trkpt>
      <trkpt lat="46.82894" lon="12.26571">
        <ele>1789.15</ele>
        <time>2017-03-01T13:28:09Z</time>
      </trkpt>
      <trkpt lat="46.82903" lon="12.26569">
        <ele>1787.23</ele>
        <time>2017-03-01T13:28:11Z</time>
      </trkpt>
      <trkpt lat="46.82907" lon="12.26568">
        <ele>1786.27</ele>
        <time>2017-03-01T13:28:12Z</time>
      </trkpt>
      <trkpt lat="46.82911" lon="12.26567">
        <ele>1784.82</ele>
        <time>2017-03-01T13:28:13Z</time>
      </trkpt>
      <trkpt lat="46.82916" lon="12.26565">
        <ele>1785.31</ele>
        <time>2017-03-01T13:28:14Z</time>
      </trkpt>
      <trkpt lat="46.82921" lon="12.26564">
        <ele>1783.86</ele>
        <time>2017-03-01T13:28:15Z</time>
      </trkpt>
      <trkpt lat="46.82927" lon="12.26562">
        <ele>1783.38</ele>
        <time>2017-03-01T13:28:16Z</time>
      </trkpt>
      <trkpt lat="46.82943" lon="12.26554">
        <ele>1781.46</ele>
        <time>2017-03-01T13:28:19Z</time>
      </trkpt>
      <trkpt lat="46.82947" lon="12.2655">
        <ele>1780.02</ele>
        <time>2017-03-01T13:28:20Z</time>
      </trkpt>
      <trkpt lat="46.82951" lon="12.26546">
        <ele>1779.06</ele>
        <time>2017-03-01T13:28:21Z</time>
      </trkpt>
      <trkpt lat="46.82962" lon="12.26537">
        <ele>1776.17</ele>
        <time>2017-03-01T13:28:24Z</time>
      </trkpt>
      <trkpt lat="46.82967" lon="12.26535">
        <ele>1776.17</ele>
        <time>2017-03-01T13:28:25Z</time>
      </trkpt>
      <trkpt lat="46.82972" lon="12.26533">
        <ele>1775.69</ele>
        <time>2017-03-01T13:28:26Z</time>
      </trkpt>
      <trkpt lat="46.82976" lon="12.26532">
        <ele>1774.25</ele>
        <time>2017-03-01T13:28:27Z</time>
      </trkpt>
      <trkpt lat="46.82981" lon="12.26532">
        <ele>1773.29</ele>
        <time>2017-03-01T13:28:28Z</time>
      </trkpt>
      <trkpt lat="46.82986" lon="12.26534">
        <ele>1771.85</ele>
        <time>2017-03-01T13:28:29Z</time>
      </trkpt>
      <trkpt lat="46.82991" lon="12.26535">
        <ele>1771.85</ele>
        <time>2017-03-01T13:28:30Z</time>
      </trkpt>
      <trkpt lat="46.82995" lon="12.26533">
        <ele>1770.89</ele>
        <time>2017-03-01T13:28:31Z</time>
      </trkpt>
      <trkpt lat="46.82999" lon="12.26521">
        <ele>1770.41</ele>
        <time>2017-03-01T13:28:37Z</time>
      </trkpt>
      <trkpt lat="46.83001" lon="12.2652">
        <ele>1769.92</ele>
        <time>2017-03-01T13:28:38Z</time>
      </trkpt>
      <trkpt lat="46.83002" lon="12.2652">
        <ele>1768.96</ele>
        <time>2017-03-01T13:28:39Z</time>
      </trkpt>
      <trkpt lat="46.83004" lon="12.2652">
        <ele>1768.48</ele>
        <time>2017-03-01T13:28:40Z</time>
      </trkpt>
      <trkpt lat="46.83008" lon="12.2652">
        <ele>1768.96</ele>
        <time>2017-03-01T13:28:41Z</time>
      </trkpt>
      <trkpt lat="46.83012" lon="12.26521">
        <ele>1768</ele>
        <time>2017-03-01T13:28:42Z</time>
      </trkpt>
      <trkpt lat="46.83016" lon="12.26522">
        <ele>1767.04</ele>
        <time>2017-03-01T13:28:43Z</time>
      </trkpt>
      <trkpt lat="46.8302" lon="12.26523">
        <ele>1767.04</ele>
        <time>2017-03-01T13:28:44Z</time>
      </trkpt>
      <trkpt lat="46.83023" lon="12.26524">
        <ele>1765.12</ele>
        <time>2017-03-01T13:28:45Z</time>
      </trkpt>
      <trkpt lat="46.83025" lon="12.26524">
        <ele>1765.12</ele>
        <time>2017-03-01T13:28:46Z</time>
      </trkpt>
      <trkpt lat="46.83039" lon="12.26519">
        <ele>1766.08</ele>
        <time>2017-03-01T13:29:04Z</time>
      </trkpt>
      <trkpt lat="46.83042" lon="12.26519">
        <ele>1767.52</ele>
        <time>2017-03-01T13:29:36Z</time>
      </trkpt>
      <trkpt lat="46.83043" lon="12.26521">
        <ele>1768.48</ele>
        <time>2017-03-01T13:30:14Z</time>
      </trkpt>
      <trkpt lat="46.83038" lon="12.26526">
        <ele>1769.44</ele>
        <time>2017-03-01T13:30:43Z</time>
      </trkpt>
      <trkpt lat="46.83033" lon="12.26522">
        <ele>1769.44</ele>
        <time>2017-03-01T13:31:12Z</time>
      </trkpt>
      <trkpt lat="46.8303" lon="12.26523">
        <ele>1768.96</ele>
        <time>2017-03-01T13:31:36Z</time>
      </trkpt>
      <trkpt lat="46.83032" lon="12.26523">
        <ele>1768.96</ele>
        <time>2017-03-01T13:31:37Z</time>
      </trkpt>
      <trkpt lat="46.83033" lon="12.26523">
        <ele>1767.52</ele>
        <time>2017-03-01T13:31:38Z</time>
      </trkpt>
      <trkpt lat="46.83035" lon="12.26523">
        <ele>1767.04</ele>
        <time>2017-03-01T13:31:39Z</time>
      </trkpt>
      <trkpt lat="46.83037" lon="12.26522">
        <ele>1766.56</ele>
        <time>2017-03-01T13:31:40Z</time>
      </trkpt>
      <trkpt lat="46.8304" lon="12.26522">
        <ele>1766.08</ele>
        <time>2017-03-01T13:31:41Z</time>
      </trkpt>
      <trkpt lat="46.83043" lon="12.26522">
        <ele>1765.6</ele>
        <time>2017-03-01T13:31:42Z</time>
      </trkpt>
      <trkpt lat="46.83047" lon="12.26522">
        <ele>1765.12</ele>
        <time>2017-03-01T13:31:43Z</time>
      </trkpt>
      <trkpt lat="46.83055" lon="12.26521">
        <ele>1763.68</ele>
        <time>2017-03-01T13:31:46Z</time>
      </trkpt>
      <trkpt lat="46.8306" lon="12.26521">
        <ele>1762.23</ele>
        <time>2017-03-01T13:31:48Z</time>
      </trkpt>
      <trkpt lat="46.83065" lon="12.26519">
        <ele>1761.27</ele>
        <time>2017-03-01T13:31:49Z</time>
      </trkpt>
      <trkpt lat="46.83068" lon="12.26516">
        <ele>1760.79</ele>
        <time>2017-03-01T13:31:50Z</time>
      </trkpt>
      <trkpt lat="46.83067" lon="12.26511">
        <ele>1759.35</ele>
        <time>2017-03-01T13:31:52Z</time>
      </trkpt>
      <trkpt lat="46.83068" lon="12.26511">
        <ele>1757.91</ele>
        <time>2017-03-01T13:31:53Z</time>
      </trkpt>
      <trkpt lat="46.83066" lon="12.26507">
        <ele>1757.43</ele>
        <time>2017-03-01T13:31:54Z</time>
      </trkpt>
      <trkpt lat="46.83064" lon="12.26505">
        <ele>1756.95</ele>
        <time>2017-03-01T13:31:55Z</time>
      </trkpt>
      <trkpt lat="46.83061" lon="12.26501">
        <ele>1755.99</ele>
        <time>2017-03-01T13:31:56Z</time>
      </trkpt>
      <trkpt lat="46.83059" lon="12.26497">
        <ele>1755.02</ele>
        <time>2017-03-01T13:31:57Z</time>
      </trkpt>
      <trkpt lat="46.83056" lon="12.26493">
        <ele>1754.54</ele>
        <time>2017-03-01T13:31:58Z</time>
      </trkpt>
      <trkpt lat="46.83054" lon="12.26488">
        <ele>1753.58</ele>
        <time>2017-03-01T13:31:59Z</time>
      </trkpt>
      <trkpt lat="46.83051" lon="12.26482">
        <ele>1753.1</ele>
        <time>2017-03-01T13:32:00Z</time>
      </trkpt>
      <trkpt lat="46.83049" lon="12.26475">
        <ele>1751.18</ele>
        <time>2017-03-01T13:32:01Z</time>
      </trkpt>
      <trkpt lat="46.83047" lon="12.26468">
        <ele>1751.18</ele>
        <time>2017-03-01T13:32:02Z</time>
      </trkpt>
      <trkpt lat="46.83046" lon="12.26462">
        <ele>1750.7</ele>
        <time>2017-03-01T13:32:03Z</time>
      </trkpt>
      <trkpt lat="46.83044" lon="12.26456">
        <ele>1750.22</ele>
        <time>2017-03-01T13:32:04Z</time>
      </trkpt>
      <trkpt lat="46.83042" lon="12.26451">
        <ele>1750.7</ele>
        <time>2017-03-01T13:32:05Z</time>
      </trkpt>
      <trkpt lat="46.8304" lon="12.26445">
        <ele>1748.78</ele>
        <time>2017-03-01T13:32:06Z</time>
      </trkpt>
      <trkpt lat="46.83038" lon="12.2644">
        <ele>1748.29</ele>
        <time>2017-03-01T13:32:07Z</time>
      </trkpt>
      <trkpt lat="46.83035" lon="12.26435">
        <ele>1747.33</ele>
        <time>2017-03-01T13:32:08Z</time>
      </trkpt>
      <trkpt lat="46.83032" lon="12.26429">
        <ele>1746.85</ele>
        <time>2017-03-01T13:32:09Z</time>
      </trkpt>
      <trkpt lat="46.83029" lon="12.26425">
        <ele>1745.89</ele>
        <time>2017-03-01T13:32:10Z</time>
      </trkpt>
      <trkpt lat="46.83027" lon="12.26421">
        <ele>1744.93</ele>
        <time>2017-03-01T13:32:11Z</time>
      </trkpt>
      <trkpt lat="46.83028" lon="12.26414">
        <ele>1743.01</ele>
        <time>2017-03-01T13:32:13Z</time>
      </trkpt>
      <trkpt lat="46.83028" lon="12.26413">
        <ele>1742.53</ele>
        <time>2017-03-01T13:32:14Z</time>
      </trkpt>
      <trkpt lat="46.83031" lon="12.2641">
        <ele>1740.6</ele>
        <time>2017-03-01T13:32:17Z</time>
      </trkpt>
      <trkpt lat="46.83032" lon="12.2641">
        <ele>1740.12</ele>
        <time>2017-03-01T13:32:18Z</time>
      </trkpt>
      <trkpt lat="46.83037" lon="12.26413">
        <ele>1740.12</ele>
        <time>2017-03-01T13:32:19Z</time>
      </trkpt>
      <trkpt lat="46.83043" lon="12.26416">
        <ele>1739.16</ele>
        <time>2017-03-01T13:32:20Z</time>
      </trkpt>
      <trkpt lat="46.83047" lon="12.2642">
        <ele>1737.72</ele>
        <time>2017-03-01T13:32:21Z</time>
      </trkpt>
      <trkpt lat="46.83051" lon="12.26423">
        <ele>1736.76</ele>
        <time>2017-03-01T13:32:22Z</time>
      </trkpt>
      <trkpt lat="46.83056" lon="12.26425">
        <ele>1736.76</ele>
        <time>2017-03-01T13:32:23Z</time>
      </trkpt>
      <trkpt lat="46.83061" lon="12.26428">
        <ele>1735.8</ele>
        <time>2017-03-01T13:32:24Z</time>
      </trkpt>
      <trkpt lat="46.83066" lon="12.2643">
        <ele>1734.84</ele>
        <time>2017-03-01T13:32:25Z</time>
      </trkpt>
      <trkpt lat="46.83071" lon="12.26431">
        <ele>1735.32</ele>
        <time>2017-03-01T13:32:26Z</time>
      </trkpt>
      <trkpt lat="46.83075" lon="12.26432">
        <ele>1733.88</ele>
        <time>2017-03-01T13:32:27Z</time>
      </trkpt>
      <trkpt lat="46.83079" lon="12.26434">
        <ele>1733.88</ele>
        <time>2017-03-01T13:32:28Z</time>
      </trkpt>
      <trkpt lat="46.83084" lon="12.26436">
        <ele>1732.43</ele>
        <time>2017-03-01T13:32:29Z</time>
      </trkpt>
      <trkpt lat="46.83089" lon="12.26438">
        <ele>1731.95</ele>
        <time>2017-03-01T13:32:30Z</time>
      </trkpt>
      <trkpt lat="46.83094" lon="12.2644">
        <ele>1730.99</ele>
        <time>2017-03-01T13:32:31Z</time>
      </trkpt>
      <trkpt lat="46.83099" lon="12.26442">
        <ele>1730.03</ele>
        <time>2017-03-01T13:32:32Z</time>
      </trkpt>
      <trkpt lat="46.83105" lon="12.26444">
        <ele>1730.03</ele>
        <time>2017-03-01T13:32:33Z</time>
      </trkpt>
      <trkpt lat="46.83109" lon="12.26446">
        <ele>1728.11</ele>
        <time>2017-03-01T13:32:34Z</time>
      </trkpt>
      <trkpt lat="46.83114" lon="12.26447">
        <ele>1728.59</ele>
        <time>2017-03-01T13:32:35Z</time>
      </trkpt>
      <trkpt lat="46.83117" lon="12.26447">
        <ele>1728.11</ele>
        <time>2017-03-01T13:32:36Z</time>
      </trkpt>
      <trkpt lat="46.83124" lon="12.2645">
        <ele>1726.18</ele>
        <time>2017-03-01T13:32:37Z</time>
      </trkpt>
      <trkpt lat="46.8313" lon="12.26453">
        <ele>1725.22</ele>
        <time>2017-03-01T13:32:38Z</time>
      </trkpt>
      <trkpt lat="46.83134" lon="12.26455">
        <ele>1725.22</ele>
        <time>2017-03-01T13:32:39Z</time>
      </trkpt>
      <trkpt lat="46.83139" lon="12.26457">
        <ele>1723.78</ele>
        <time>2017-03-01T13:32:40Z</time>
      </trkpt>
      <trkpt lat="46.83143" lon="12.26459">
        <ele>1723.3</ele>
        <time>2017-03-01T13:32:41Z</time>
      </trkpt>
      <trkpt lat="46.83147" lon="12.26461">
        <ele>1722.34</ele>
        <time>2017-03-01T13:32:42Z</time>
      </trkpt>
      <trkpt lat="46.83152" lon="12.26462">
        <ele>1720.9</ele>
        <time>2017-03-01T13:32:43Z</time>
      </trkpt>
      <trkpt lat="46.83156" lon="12.26465">
        <ele>1720.42</ele>
        <time>2017-03-01T13:32:44Z</time>
      </trkpt>
      <trkpt lat="46.83169" lon="12.26472">
        <ele>1718.01</ele>
        <time>2017-03-01T13:32:48Z</time>
      </trkpt>
      <trkpt lat="46.83172" lon="12.26475">
        <ele>1717.05</ele>
        <time>2017-03-01T13:32:49Z</time>
      </trkpt>
      <trkpt lat="46.83174" lon="12.26477">
        <ele>1716.57</ele>
        <time>2017-03-01T13:32:50Z</time>
      </trkpt>
      <trkpt lat="46.83177" lon="12.26478">
        <ele>1716.09</ele>
        <time>2017-03-01T13:32:51Z</time>
      </trkpt>
      <trkpt lat="46.83181" lon="12.2648">
        <ele>1715.13</ele>
        <time>2017-03-01T13:32:52Z</time>
      </trkpt>
      <trkpt lat="46.83185" lon="12.26482">
        <ele>1714.65</ele>
        <time>2017-03-01T13:32:53Z</time>
      </trkpt>
      <trkpt lat="46.8319" lon="12.26486">
        <ele>1714.17</ele>
        <time>2017-03-01T13:32:54Z</time>
      </trkpt>
      <trkpt lat="46.83192" lon="12.26487">
        <ele>1713.69</ele>
        <time>2017-03-01T13:32:55Z</time>
      </trkpt>
      <trkpt lat="46.83197" lon="12.26489">
        <ele>1713.69</ele>
        <time>2017-03-01T13:32:56Z</time>
      </trkpt>
      <trkpt lat="46.832" lon="12.26491">
        <ele>1712.25</ele>
        <time>2017-03-01T13:32:57Z</time>
      </trkpt>
      <trkpt lat="46.83219" lon="12.265">
        <ele>1708.4</ele>
        <time>2017-03-01T13:33:02Z</time>
      </trkpt>
      <trkpt lat="46.83221" lon="12.265">
        <ele>1708.4</ele>
        <time>2017-03-01T13:33:03Z</time>
      </trkpt>
      <trkpt lat="46.83224" lon="12.26501">
        <ele>1707.92</ele>
        <time>2017-03-01T13:33:04Z</time>
      </trkpt>
      <trkpt lat="46.83232" lon="12.26501">
        <ele>1705.04</ele>
        <time>2017-03-01T13:33:07Z</time>
      </trkpt>
      <trkpt lat="46.83242" lon="12.26504">
        <ele>1703.59</ele>
        <time>2017-03-01T13:33:09Z</time>
      </trkpt>
      <trkpt lat="46.83247" lon="12.26506">
        <ele>1702.15</ele>
        <time>2017-03-01T13:33:10Z</time>
      </trkpt>
      <trkpt lat="46.83252" lon="12.26507">
        <ele>1702.15</ele>
        <time>2017-03-01T13:33:11Z</time>
      </trkpt>
      <trkpt lat="46.83258" lon="12.26508">
        <ele>1700.23</ele>
        <time>2017-03-01T13:33:12Z</time>
      </trkpt>
      <trkpt lat="46.83263" lon="12.26509">
        <ele>1699.75</ele>
        <time>2017-03-01T13:33:13Z</time>
      </trkpt>
      <trkpt lat="46.83269" lon="12.26512">
        <ele>1699.27</ele>
        <time>2017-03-01T13:33:14Z</time>
      </trkpt>
      <trkpt lat="46.83275" lon="12.26515">
        <ele>1699.27</ele>
        <time>2017-03-01T13:33:15Z</time>
      </trkpt>
      <trkpt lat="46.83281" lon="12.26516">
        <ele>1698.31</ele>
        <time>2017-03-01T13:33:16Z</time>
      </trkpt>
      <trkpt lat="46.83286" lon="12.26499">
        <ele>1698.31</ele>
        <time>2017-03-01T13:33:24Z</time>
      </trkpt>
      <trkpt lat="46.83292" lon="12.26506">
        <ele>1698.79</ele>
        <time>2017-03-01T13:33:48Z</time>
      </trkpt>
      <trkpt lat="46.83291" lon="12.26514">
        <ele>1699.27</ele>
        <time>2017-03-01T13:34:09Z</time>
      </trkpt>
      <trkpt lat="46.83289" lon="12.26517">
        <ele>1699.27</ele>
        <time>2017-03-01T13:34:23Z</time>
      </trkpt>
      <trkpt lat="46.8329" lon="12.26518">
        <ele>1698.79</ele>
        <time>2017-03-01T13:34:24Z</time>
      </trkpt>
      <trkpt lat="46.83293" lon="12.2652">
        <ele>1698.31</ele>
        <time>2017-03-01T13:34:25Z</time>
      </trkpt>
      <trkpt lat="46.83295" lon="12.26522">
        <ele>1698.31</ele>
        <time>2017-03-01T13:34:26Z</time>
      </trkpt>
      <trkpt lat="46.83298" lon="12.26525">
        <ele>1697.83</ele>
        <time>2017-03-01T13:34:27Z</time>
      </trkpt>
      <trkpt lat="46.83302" lon="12.26528">
        <ele>1697.34</ele>
        <time>2017-03-01T13:34:28Z</time>
      </trkpt>
      <trkpt lat="46.83305" lon="12.26532">
        <ele>1695.9</ele>
        <time>2017-03-01T13:34:29Z</time>
      </trkpt>
      <trkpt lat="46.83307" lon="12.26536">
        <ele>1695.9</ele>
        <time>2017-03-01T13:34:30Z</time>
      </trkpt>
      <trkpt lat="46.83309" lon="12.2654">
        <ele>1694.94</ele>
        <time>2017-03-01T13:34:31Z</time>
      </trkpt>
      <trkpt lat="46.8331" lon="12.26544">
        <ele>1693.98</ele>
        <time>2017-03-01T13:34:32Z</time>
      </trkpt>
      <trkpt lat="46.83312" lon="12.26548">
        <ele>1693.5</ele>
        <time>2017-03-01T13:34:33Z</time>
      </trkpt>
      <trkpt lat="46.83313" lon="12.26553">
        <ele>1693.02</ele>
        <time>2017-03-01T13:34:34Z</time>
      </trkpt>
      <trkpt lat="46.83315" lon="12.26558">
        <ele>1692.06</ele>
        <time>2017-03-01T13:34:35Z</time>
      </trkpt>
      <trkpt lat="46.83318" lon="12.26562">
        <ele>1692.06</ele>
        <time>2017-03-01T13:34:36Z</time>
      </trkpt>
      <trkpt lat="46.8332" lon="12.26565">
        <ele>1690.14</ele>
        <time>2017-03-01T13:34:37Z</time>
      </trkpt>
      <trkpt lat="46.83322" lon="12.26569">
        <ele>1690.14</ele>
        <time>2017-03-01T13:34:38Z</time>
      </trkpt>
      <trkpt lat="46.83325" lon="12.26583">
        <ele>1688.69</ele>
        <time>2017-03-01T13:34:41Z</time>
      </trkpt>
      <trkpt lat="46.83325" lon="12.26599">
        <ele>1685.33</ele>
        <time>2017-03-01T13:34:44Z</time>
      </trkpt>
      <trkpt lat="46.83324" lon="12.2661">
        <ele>1683.89</ele>
        <time>2017-03-01T13:34:46Z</time>
      </trkpt>
      <trkpt lat="46.83324" lon="12.26616">
        <ele>1682.93</ele>
        <time>2017-03-01T13:34:47Z</time>
      </trkpt>
      <trkpt lat="46.83325" lon="12.26628">
        <ele>1681.48</ele>
        <time>2017-03-01T13:34:49Z</time>
      </trkpt>
      <trkpt lat="46.83325" lon="12.26641">
        <ele>1679.08</ele>
        <time>2017-03-01T13:34:51Z</time>
      </trkpt>
      <trkpt lat="46.83326" lon="12.26648">
        <ele>1678.12</ele>
        <time>2017-03-01T13:34:52Z</time>
      </trkpt>
      <trkpt lat="46.83327" lon="12.26655">
        <ele>1677.16</ele>
        <time>2017-03-01T13:34:53Z</time>
      </trkpt>
      <trkpt lat="46.83328" lon="12.26662">
        <ele>1676.2</ele>
        <time>2017-03-01T13:34:54Z</time>
      </trkpt>
      <trkpt lat="46.8333" lon="12.2667">
        <ele>1675.72</ele>
        <time>2017-03-01T13:34:55Z</time>
      </trkpt>
      <trkpt lat="46.83334" lon="12.26677">
        <ele>1674.27</ele>
        <time>2017-03-01T13:34:56Z</time>
      </trkpt>
      <trkpt lat="46.83338" lon="12.26683">
        <ele>1672.83</ele>
        <time>2017-03-01T13:34:57Z</time>
      </trkpt>
      <trkpt lat="46.83344" lon="12.26689">
        <ele>1672.35</ele>
        <time>2017-03-01T13:34:58Z</time>
      </trkpt>
      <trkpt lat="46.8335" lon="12.26693">
        <ele>1671.87</ele>
        <time>2017-03-01T13:34:59Z</time>
      </trkpt>
      <trkpt lat="46.83357" lon="12.26696">
        <ele>1671.39</ele>
        <time>2017-03-01T13:35:00Z</time>
      </trkpt>
      <trkpt lat="46.83364" lon="12.26698">
        <ele>1670.91</ele>
        <time>2017-03-01T13:35:01Z</time>
      </trkpt>
      <trkpt lat="46.8337" lon="12.26699">
        <ele>1670.43</ele>
        <time>2017-03-01T13:35:02Z</time>
      </trkpt>
      <trkpt lat="46.83375" lon="12.26697">
        <ele>1670.91</ele>
        <time>2017-03-01T13:35:03Z</time>
      </trkpt>
      <trkpt lat="46.83381" lon="12.26696">
        <ele>1670.43</ele>
        <time>2017-03-01T13:35:04Z</time>
      </trkpt>
      <trkpt lat="46.83386" lon="12.26694">
        <ele>1670.43</ele>
        <time>2017-03-01T13:35:05Z</time>
      </trkpt>
      <trkpt lat="46.83391" lon="12.26695">
        <ele>1669.95</ele>
        <time>2017-03-01T13:35:06Z</time>
      </trkpt>
      <trkpt lat="46.83398" lon="12.26696">
        <ele>1669.47</ele>
        <time>2017-03-01T13:35:07Z</time>
      </trkpt>
      <trkpt lat="46.83404" lon="12.26694">
        <ele>1668.99</ele>
        <time>2017-03-01T13:35:08Z</time>
      </trkpt>
      <trkpt lat="46.83423" lon="12.26679">
        <ele>1668.51</ele>
        <time>2017-03-01T13:35:13Z</time>
      </trkpt>
      <trkpt lat="46.83422" lon="12.26674">
        <ele>1667.06</ele>
        <time>2017-03-01T13:35:14Z</time>
      </trkpt>
      <trkpt lat="46.8342" lon="12.2667">
        <ele>1666.58</ele>
        <time>2017-03-01T13:35:15Z</time>
      </trkpt>
      <trkpt lat="46.83419" lon="12.26667">
        <ele>1666.58</ele>
        <time>2017-03-01T13:35:16Z</time>
      </trkpt>
      <trkpt lat="46.83417" lon="12.26659">
        <ele>1666.58</ele>
        <time>2017-03-01T13:35:25Z</time>
      </trkpt>
      <trkpt lat="46.83416" lon="12.26658">
        <ele>1666.58</ele>
        <time>2017-03-01T13:35:40Z</time>
      </trkpt>
      <trkpt lat="46.83417" lon="12.26656">
        <ele>1666.58</ele>
        <time>2017-03-01T13:35:54Z</time>
      </trkpt>
      <trkpt lat="46.83416" lon="12.26653">
        <ele>1666.58</ele>
        <time>2017-03-01T13:35:55Z</time>
      </trkpt>
      <trkpt lat="46.83416" lon="12.26644">
        <ele>1665.62</ele>
        <time>2017-03-01T13:35:57Z</time>
      </trkpt>
      <trkpt lat="46.83418" lon="12.26639">
        <ele>1663.22</ele>
        <time>2017-03-01T13:35:58Z</time>
      </trkpt>
      <trkpt lat="46.83421" lon="12.26635">
        <ele>1663.7</ele>
        <time>2017-03-01T13:35:59Z</time>
      </trkpt>
      <trkpt lat="46.83421" lon="12.2663">
        <ele>1662.26</ele>
        <time>2017-03-01T13:36:00Z</time>
      </trkpt>
      <trkpt lat="46.8342" lon="12.26625">
        <ele>1661.78</ele>
        <time>2017-03-01T13:36:01Z</time>
      </trkpt>
      <trkpt lat="46.83411" lon="12.26606">
        <ele>1659.37</ele>
        <time>2017-03-01T13:36:06Z</time>
      </trkpt>
      <trkpt lat="46.8341" lon="12.26592">
        <ele>1657.93</ele>
        <time>2017-03-01T13:36:09Z</time>
      </trkpt>
      <trkpt lat="46.83407" lon="12.26583">
        <ele>1656.01</ele>
        <time>2017-03-01T13:36:11Z</time>
      </trkpt>
      <trkpt lat="46.83407" lon="12.26567">
        <ele>1654.09</ele>
        <time>2017-03-01T13:36:19Z</time>
      </trkpt>
      <trkpt lat="46.83407" lon="12.26527">
        <ele>1650.72</ele>
        <time>2017-03-01T13:36:32Z</time>
      </trkpt>
      <trkpt lat="46.83412" lon="12.26507">
        <ele>1647.84</ele>
        <time>2017-03-01T13:36:36Z</time>
      </trkpt>
      <trkpt lat="46.83413" lon="12.265">
        <ele>1647.36</ele>
        <time>2017-03-01T13:36:37Z</time>
      </trkpt>
      <trkpt lat="46.83414" lon="12.26494">
        <ele>1646.4</ele>
        <time>2017-03-01T13:36:38Z</time>
      </trkpt>
      <trkpt lat="46.83415" lon="12.26487">
        <ele>1645.91</ele>
        <time>2017-03-01T13:36:39Z</time>
      </trkpt>
      <trkpt lat="46.83417" lon="12.26481">
        <ele>1643.99</ele>
        <time>2017-03-01T13:36:40Z</time>
      </trkpt>
      <trkpt lat="46.8342" lon="12.26475">
        <ele>1643.51</ele>
        <time>2017-03-01T13:36:41Z</time>
      </trkpt>
      <trkpt lat="46.83422" lon="12.26469">
        <ele>1643.99</ele>
        <time>2017-03-01T13:36:42Z</time>
      </trkpt>
      <trkpt lat="46.83425" lon="12.26463">
        <ele>1641.11</ele>
        <time>2017-03-01T13:36:43Z</time>
      </trkpt>
      <trkpt lat="46.83428" lon="12.26457">
        <ele>1642.07</ele>
        <time>2017-03-01T13:36:44Z</time>
      </trkpt>
      <trkpt lat="46.8343" lon="12.2645">
        <ele>1642.07</ele>
        <time>2017-03-01T13:36:45Z</time>
      </trkpt>
      <trkpt lat="46.83432" lon="12.26444">
        <ele>1639.67</ele>
        <time>2017-03-01T13:36:46Z</time>
      </trkpt>
      <trkpt lat="46.83435" lon="12.26437">
        <ele>1639.19</ele>
        <time>2017-03-01T13:36:47Z</time>
      </trkpt>
      <trkpt lat="46.83437" lon="12.2643">
        <ele>1638.7</ele>
        <time>2017-03-01T13:36:48Z</time>
      </trkpt>
      <trkpt lat="46.8344" lon="12.26423">
        <ele>1636.3</ele>
        <time>2017-03-01T13:36:49Z</time>
      </trkpt>
      <trkpt lat="46.83443" lon="12.26416">
        <ele>1637.26</ele>
        <time>2017-03-01T13:36:50Z</time>
      </trkpt>
      <trkpt lat="46.83447" lon="12.2641">
        <ele>1634.38</ele>
        <time>2017-03-01T13:36:51Z</time>
      </trkpt>
      <trkpt lat="46.83451" lon="12.26404">
        <ele>1634.38</ele>
        <time>2017-03-01T13:36:52Z</time>
      </trkpt>
      <trkpt lat="46.83456" lon="12.26399">
        <ele>1630.53</ele>
        <time>2017-03-01T13:36:53Z</time>
      </trkpt>
      <trkpt lat="46.83461" lon="12.26394">
        <ele>1631.98</ele>
        <time>2017-03-01T13:36:54Z</time>
      </trkpt>
      <trkpt lat="46.83466" lon="12.26389">
        <ele>1631.98</ele>
        <time>2017-03-01T13:36:55Z</time>
      </trkpt>
      <trkpt lat="46.8347" lon="12.26382">
        <ele>1629.57</ele>
        <time>2017-03-01T13:36:56Z</time>
      </trkpt>
      <trkpt lat="46.83474" lon="12.26376">
        <ele>1629.57</ele>
        <time>2017-03-01T13:36:57Z</time>
      </trkpt>
      <trkpt lat="46.83477" lon="12.26368">
        <ele>1629.09</ele>
        <time>2017-03-01T13:36:58Z</time>
      </trkpt>
      <trkpt lat="46.83481" lon="12.26361">
        <ele>1627.17</ele>
        <time>2017-03-01T13:36:59Z</time>
      </trkpt>
      <trkpt lat="46.83484" lon="12.26354">
        <ele>1626.21</ele>
        <time>2017-03-01T13:37:00Z</time>
      </trkpt>
      <trkpt lat="46.83487" lon="12.26347">
        <ele>1623.8</ele>
        <time>2017-03-01T13:37:01Z</time>
      </trkpt>
      <trkpt lat="46.8349" lon="12.2634">
        <ele>1624.28</ele>
        <time>2017-03-01T13:37:02Z</time>
      </trkpt>
      <trkpt lat="46.835" lon="12.26318">
        <ele>1621.4</ele>
        <time>2017-03-01T13:37:05Z</time>
      </trkpt>
      <trkpt lat="46.83503" lon="12.26311">
        <ele>1620.92</ele>
        <time>2017-03-01T13:37:06Z</time>
      </trkpt>
      <trkpt lat="46.8351" lon="12.26296">
        <ele>1619</ele>
        <time>2017-03-01T13:37:08Z</time>
      </trkpt>
      <trkpt lat="46.83513" lon="12.26289">
        <ele>1616.11</ele>
        <time>2017-03-01T13:37:09Z</time>
      </trkpt>
      <trkpt lat="46.83517" lon="12.26282">
        <ele>1616.11</ele>
        <time>2017-03-01T13:37:10Z</time>
      </trkpt>
      <trkpt lat="46.8352" lon="12.26274">
        <ele>1616.11</ele>
        <time>2017-03-01T13:37:11Z</time>
      </trkpt>
      <trkpt lat="46.83523" lon="12.26268">
        <ele>1611.31</ele>
        <time>2017-03-01T13:37:12Z</time>
      </trkpt>
      <trkpt lat="46.83526" lon="12.2626">
        <ele>1613.71</ele>
        <time>2017-03-01T13:37:13Z</time>
      </trkpt>
      <trkpt lat="46.83528" lon="12.26253">
        <ele>1613.23</ele>
        <time>2017-03-01T13:37:14Z</time>
      </trkpt>
      <trkpt lat="46.83531" lon="12.26245">
        <ele>1611.31</ele>
        <time>2017-03-01T13:37:15Z</time>
      </trkpt>
      <trkpt lat="46.83534" lon="12.26237">
        <ele>1610.35</ele>
        <time>2017-03-01T13:37:16Z</time>
      </trkpt>
      <trkpt lat="46.83537" lon="12.26228">
        <ele>1609.38</ele>
        <time>2017-03-01T13:37:17Z</time>
      </trkpt>
      <trkpt lat="46.8354" lon="12.26221">
        <ele>1607.94</ele>
        <time>2017-03-01T13:37:18Z</time>
      </trkpt>
      <trkpt lat="46.83543" lon="12.26213">
        <ele>1607.94</ele>
        <time>2017-03-01T13:37:19Z</time>
      </trkpt>
      <trkpt lat="46.83546" lon="12.26205">
        <ele>1606.98</ele>
        <time>2017-03-01T13:37:20Z</time>
      </trkpt>
      <trkpt lat="46.8355" lon="12.26197">
        <ele>1606.02</ele>
        <time>2017-03-01T13:37:21Z</time>
      </trkpt>
      <trkpt lat="46.83553" lon="12.2619">
        <ele>1605.06</ele>
        <time>2017-03-01T13:37:22Z</time>
      </trkpt>
      <trkpt lat="46.83557" lon="12.26183">
        <ele>1603.62</ele>
        <time>2017-03-01T13:37:23Z</time>
      </trkpt>
      <trkpt lat="46.83561" lon="12.26177">
        <ele>1603.62</ele>
        <time>2017-03-01T13:37:24Z</time>
      </trkpt>
      <trkpt lat="46.83566" lon="12.26171">
        <ele>1601.69</ele>
        <time>2017-03-01T13:37:25Z</time>
      </trkpt>
      <trkpt lat="46.83572" lon="12.26165">
        <ele>1600.73</ele>
        <time>2017-03-01T13:37:26Z</time>
      </trkpt>
      <trkpt lat="46.83576" lon="12.2616">
        <ele>1600.73</ele>
        <time>2017-03-01T13:37:27Z</time>
      </trkpt>
      <trkpt lat="46.83582" lon="12.26156">
        <ele>1598.33</ele>
        <time>2017-03-01T13:37:28Z</time>
      </trkpt>
      <trkpt lat="46.83587" lon="12.26152">
        <ele>1599.29</ele>
        <time>2017-03-01T13:37:29Z</time>
      </trkpt>
      <trkpt lat="46.83592" lon="12.26147">
        <ele>1597.85</ele>
        <time>2017-03-01T13:37:30Z</time>
      </trkpt>
      <trkpt lat="46.83597" lon="12.26143">
        <ele>1597.37</ele>
        <time>2017-03-01T13:37:31Z</time>
      </trkpt>
      <trkpt lat="46.83602" lon="12.26138">
        <ele>1595.93</ele>
        <time>2017-03-01T13:37:32Z</time>
      </trkpt>
      <trkpt lat="46.83607" lon="12.26132">
        <ele>1594.48</ele>
        <time>2017-03-01T13:37:33Z</time>
      </trkpt>
      <trkpt lat="46.83612" lon="12.26127">
        <ele>1594</ele>
        <time>2017-03-01T13:37:34Z</time>
      </trkpt>
      <trkpt lat="46.83615" lon="12.2612">
        <ele>1593.52</ele>
        <time>2017-03-01T13:37:35Z</time>
      </trkpt>
      <trkpt lat="46.83619" lon="12.26114">
        <ele>1591.6</ele>
        <time>2017-03-01T13:37:36Z</time>
      </trkpt>
      <trkpt lat="46.83622" lon="12.26108">
        <ele>1591.12</ele>
        <time>2017-03-01T13:37:37Z</time>
      </trkpt>
      <trkpt lat="46.83625" lon="12.26103">
        <ele>1590.64</ele>
        <time>2017-03-01T13:37:38Z</time>
      </trkpt>
      <trkpt lat="46.83626" lon="12.26097">
        <ele>1589.68</ele>
        <time>2017-03-01T13:37:39Z</time>
      </trkpt>
      <trkpt lat="46.83628" lon="12.26091">
        <ele>1589.2</ele>
        <time>2017-03-01T13:37:40Z</time>
      </trkpt>
      <trkpt lat="46.8363" lon="12.26086">
        <ele>1589.2</ele>
        <time>2017-03-01T13:37:41Z</time>
      </trkpt>
      <trkpt lat="46.83632" lon="12.2608">
        <ele>1588.72</ele>
        <time>2017-03-01T13:37:42Z</time>
      </trkpt>
      <trkpt lat="46.83634" lon="12.26074">
        <ele>1587.75</ele>
        <time>2017-03-01T13:37:43Z</time>
      </trkpt>
      <trkpt lat="46.83635" lon="12.26067">
        <ele>1586.31</ele>
        <time>2017-03-01T13:37:44Z</time>
      </trkpt>
      <trkpt lat="46.83637" lon="12.26061">
        <ele>1585.83</ele>
        <time>2017-03-01T13:37:45Z</time>
      </trkpt>
      <trkpt lat="46.8364" lon="12.26055">
        <ele>1585.35</ele>
        <time>2017-03-01T13:37:46Z</time>
      </trkpt>
      <trkpt lat="46.83643" lon="12.26048">
        <ele>1584.39</ele>
        <time>2017-03-01T13:37:47Z</time>
      </trkpt>
      <trkpt lat="46.83645" lon="12.2604">
        <ele>1584.39</ele>
        <time>2017-03-01T13:37:48Z</time>
      </trkpt>
      <trkpt lat="46.83647" lon="12.26032">
        <ele>1582.95</ele>
        <time>2017-03-01T13:37:49Z</time>
      </trkpt>
      <trkpt lat="46.8365" lon="12.26025">
        <ele>1581.51</ele>
        <time>2017-03-01T13:37:50Z</time>
      </trkpt>
      <trkpt lat="46.83653" lon="12.26017">
        <ele>1581.51</ele>
        <time>2017-03-01T13:37:51Z</time>
      </trkpt>
      <trkpt lat="46.83655" lon="12.2601">
        <ele>1580.06</ele>
        <time>2017-03-01T13:37:52Z</time>
      </trkpt>
      <trkpt lat="46.83659" lon="12.26003">
        <ele>1578.62</ele>
        <time>2017-03-01T13:37:53Z</time>
      </trkpt>
      <trkpt lat="46.83661" lon="12.25995">
        <ele>1579.1</ele>
        <time>2017-03-01T13:37:54Z</time>
      </trkpt>
      <trkpt lat="46.83664" lon="12.25989">
        <ele>1577.18</ele>
        <time>2017-03-01T13:37:55Z</time>
      </trkpt>
      <trkpt lat="46.83668" lon="12.25982">
        <ele>1576.22</ele>
        <time>2017-03-01T13:37:56Z</time>
      </trkpt>
      <trkpt lat="46.8367" lon="12.25976">
        <ele>1578.14</ele>
        <time>2017-03-01T13:37:57Z</time>
      </trkpt>
      <trkpt lat="46.83675" lon="12.25963">
        <ele>1575.26</ele>
        <time>2017-03-01T13:37:59Z</time>
      </trkpt>
      <trkpt lat="46.83676" lon="12.25957">
        <ele>1573.33</ele>
        <time>2017-03-01T13:38:00Z</time>
      </trkpt>
      <trkpt lat="46.83678" lon="12.25952">
        <ele>1569.97</ele>
        <time>2017-03-01T13:38:01Z</time>
      </trkpt>
      <trkpt lat="46.8368" lon="12.25947">
        <ele>1570.45</ele>
        <time>2017-03-01T13:38:02Z</time>
      </trkpt>
      <trkpt lat="46.83683" lon="12.25937">
        <ele>1571.89</ele>
        <time>2017-03-01T13:38:04Z</time>
      </trkpt>
      <trkpt lat="46.83696" lon="12.25886">
        <ele>1568.53</ele>
        <time>2017-03-01T13:38:14Z</time>
      </trkpt>
      <trkpt lat="46.83696" lon="12.2588">
        <ele>1567.57</ele>
        <time>2017-03-01T13:38:15Z</time>
      </trkpt>
      <trkpt lat="46.83701" lon="12.25853">
        <ele>1564.2</ele>
        <time>2017-03-01T13:38:19Z</time>
      </trkpt>
      <trkpt lat="46.8371" lon="12.25833">
        <ele>1562.28</ele>
        <time>2017-03-01T13:38:23Z</time>
      </trkpt>
      <trkpt lat="46.83723" lon="12.25793">
        <ele>1559.88</ele>
        <time>2017-03-01T13:38:34Z</time>
      </trkpt>
      <trkpt lat="46.83726" lon="12.25779">
        <ele>1558.43</ele>
        <time>2017-03-01T13:38:37Z</time>
      </trkpt>
      <trkpt lat="46.83728" lon="12.25775">
        <ele>1556.99</ele>
        <time>2017-03-01T13:38:38Z</time>
      </trkpt>
      <trkpt lat="46.83731" lon="12.25771">
        <ele>1556.03</ele>
        <time>2017-03-01T13:38:39Z</time>
      </trkpt>
      <trkpt lat="46.83734" lon="12.25765">
        <ele>1555.07</ele>
        <time>2017-03-01T13:38:40Z</time>
      </trkpt>
      <trkpt lat="46.83737" lon="12.25758">
        <ele>1554.59</ele>
        <time>2017-03-01T13:38:41Z</time>
      </trkpt>
      <trkpt lat="46.83747" lon="12.25725">
        <ele>1549.78</ele>
        <time>2017-03-01T13:38:46Z</time>
      </trkpt>
      <trkpt lat="46.83748" lon="12.25717">
        <ele>1550.26</ele>
        <time>2017-03-01T13:38:47Z</time>
      </trkpt>
      <trkpt lat="46.83749" lon="12.25701">
        <ele>1549.3</ele>
        <time>2017-03-01T13:38:49Z</time>
      </trkpt>
      <trkpt lat="46.83751" lon="12.25693">
        <ele>1548.34</ele>
        <time>2017-03-01T13:38:50Z</time>
      </trkpt>
      <trkpt lat="46.83755" lon="12.25678">
        <ele>1547.38</ele>
        <time>2017-03-01T13:38:52Z</time>
      </trkpt>
      <trkpt lat="46.83774" lon="12.25636">
        <ele>1544.5</ele>
        <time>2017-03-01T13:39:00Z</time>
      </trkpt>
      <trkpt lat="46.83775" lon="12.25628">
        <ele>1544.01</ele>
        <time>2017-03-01T13:39:06Z</time>
      </trkpt>
      <trkpt lat="46.83783" lon="12.25613">
        <ele>1543.05</ele>
        <time>2017-03-01T13:39:19Z</time>
      </trkpt>
      <trkpt lat="46.838" lon="12.25586">
        <ele>1539.69</ele>
        <time>2017-03-01T13:39:27Z</time>
      </trkpt>
      <trkpt lat="46.83803" lon="12.25581">
        <ele>1540.17</ele>
        <time>2017-03-01T13:39:28Z</time>
      </trkpt>
      <trkpt lat="46.83805" lon="12.25577">
        <ele>1540.17</ele>
        <time>2017-03-01T13:39:29Z</time>
      </trkpt>
      <trkpt lat="46.83809" lon="12.25573">
        <ele>1538.25</ele>
        <time>2017-03-01T13:39:30Z</time>
      </trkpt>
      <trkpt lat="46.83813" lon="12.25569">
        <ele>1538.25</ele>
        <time>2017-03-01T13:39:31Z</time>
      </trkpt>
      <trkpt lat="46.83816" lon="12.25563">
        <ele>1539.21</ele>
        <time>2017-03-01T13:39:32Z</time>
      </trkpt>
      <trkpt lat="46.83819" lon="12.25558">
        <ele>1537.77</ele>
        <time>2017-03-01T13:39:33Z</time>
      </trkpt>
      <trkpt lat="46.83821" lon="12.25553">
        <ele>1537.29</ele>
        <time>2017-03-01T13:39:34Z</time>
      </trkpt>
      <trkpt lat="46.83823" lon="12.25548">
        <ele>1537.77</ele>
        <time>2017-03-01T13:39:35Z</time>
      </trkpt>
      <trkpt lat="46.83826" lon="12.25542">
        <ele>1536.8</ele>
        <time>2017-03-01T13:39:36Z</time>
      </trkpt>
      <trkpt lat="46.83828" lon="12.25537">
        <ele>1536.32</ele>
        <time>2017-03-01T13:39:37Z</time>
      </trkpt>
      <trkpt lat="46.8383" lon="12.25531">
        <ele>1536.32</ele>
        <time>2017-03-01T13:39:38Z</time>
      </trkpt>
      <trkpt lat="46.83832" lon="12.25526">
        <ele>1535.84</ele>
        <time>2017-03-01T13:39:39Z</time>
      </trkpt>
      <trkpt lat="46.83834" lon="12.2552">
        <ele>1534.88</ele>
        <time>2017-03-01T13:39:40Z</time>
      </trkpt>
      <trkpt lat="46.83836" lon="12.25514">
        <ele>1534.88</ele>
        <time>2017-03-01T13:39:41Z</time>
      </trkpt>
      <trkpt lat="46.83837" lon="12.25509">
        <ele>1534.88</ele>
        <time>2017-03-01T13:39:42Z</time>
      </trkpt>
      <trkpt lat="46.83839" lon="12.25504">
        <ele>1534.4</ele>
        <time>2017-03-01T13:39:43Z</time>
      </trkpt>
      <trkpt lat="46.83841" lon="12.25499">
        <ele>1534.4</ele>
        <time>2017-03-01T13:39:44Z</time>
      </trkpt>
      <trkpt lat="46.83844" lon="12.25495">
        <ele>1533.44</ele>
        <time>2017-03-01T13:39:45Z</time>
      </trkpt>
      <trkpt lat="46.83846" lon="12.25491">
        <ele>1532.96</ele>
        <time>2017-03-01T13:39:46Z</time>
      </trkpt>
      <trkpt lat="46.83848" lon="12.25487">
        <ele>1532.96</ele>
        <time>2017-03-01T13:39:47Z</time>
      </trkpt>
      <trkpt lat="46.83857" lon="12.25466">
        <ele>1530.56</ele>
        <time>2017-03-01T13:39:53Z</time>
      </trkpt>
      <trkpt lat="46.83857" lon="12.25464">
        <ele>1530.56</ele>
        <time>2017-03-01T13:39:54Z</time>
      </trkpt>
      <trkpt lat="46.83858" lon="12.25461">
        <ele>1529.59</ele>
        <time>2017-03-01T13:39:55Z</time>
      </trkpt>
      <trkpt lat="46.8386" lon="12.25459">
        <ele>1529.11</ele>
        <time>2017-03-01T13:39:56Z</time>
      </trkpt>
      <trkpt lat="46.83862" lon="12.25457">
        <ele>1528.63</ele>
        <time>2017-03-01T13:39:57Z</time>
      </trkpt>
      <trkpt lat="46.83865" lon="12.25453">
        <ele>1528.15</ele>
        <time>2017-03-01T13:39:58Z</time>
      </trkpt>
      <trkpt lat="46.83866" lon="12.25449">
        <ele>1528.15</ele>
        <time>2017-03-01T13:39:59Z</time>
      </trkpt>
      <trkpt lat="46.83866" lon="12.25445">
        <ele>1527.19</ele>
        <time>2017-03-01T13:40:00Z</time>
      </trkpt>
      <trkpt lat="46.83865" lon="12.25442">
        <ele>1527.19</ele>
        <time>2017-03-01T13:40:01Z</time>
      </trkpt>
      <trkpt lat="46.83865" lon="12.25439">
        <ele>1527.19</ele>
        <time>2017-03-01T13:40:02Z</time>
      </trkpt>
      <trkpt lat="46.83865" lon="12.25436">
        <ele>1527.19</ele>
        <time>2017-03-01T13:40:03Z</time>
      </trkpt>
      <trkpt lat="46.83865" lon="12.25433">
        <ele>1526.23</ele>
        <time>2017-03-01T13:40:04Z</time>
      </trkpt>
      <trkpt lat="46.83866" lon="12.2543">
        <ele>1526.23</ele>
        <time>2017-03-01T13:40:05Z</time>
      </trkpt>
      <trkpt lat="46.83878" lon="12.25398">
        <ele>1522.39</ele>
        <time>2017-03-01T13:40:11Z</time>
      </trkpt>
      <trkpt lat="46.83886" lon="12.25385">
        <ele>1520.46</ele>
        <time>2017-03-01T13:40:13Z</time>
      </trkpt>
      <trkpt lat="46.83893" lon="12.25371">
        <ele>1519.02</ele>
        <time>2017-03-01T13:40:15Z</time>
      </trkpt>
      <trkpt lat="46.839" lon="12.25357">
        <ele>1517.58</ele>
        <time>2017-03-01T13:40:17Z</time>
      </trkpt>
      <trkpt lat="46.83916" lon="12.25322">
        <ele>1514.69</ele>
        <time>2017-03-01T13:40:22Z</time>
      </trkpt>
      <trkpt lat="46.83934" lon="12.25281">
        <ele>1510.85</ele>
        <time>2017-03-01T13:40:28Z</time>
      </trkpt>
      <trkpt lat="46.83937" lon="12.25274">
        <ele>1510.37</ele>
        <time>2017-03-01T13:40:29Z</time>
      </trkpt>
      <trkpt lat="46.83952" lon="12.25243">
        <ele>1506.52</ele>
        <time>2017-03-01T13:40:34Z</time>
      </trkpt>
      <trkpt lat="46.83972" lon="12.25199">
        <ele>1503.16</ele>
        <time>2017-03-01T13:40:41Z</time>
      </trkpt>
      <trkpt lat="46.83989" lon="12.25163">
        <ele>1498.83</ele>
        <time>2017-03-01T13:40:46Z</time>
      </trkpt>
      <trkpt lat="46.83992" lon="12.25156">
        <ele>1498.83</ele>
        <time>2017-03-01T13:40:47Z</time>
      </trkpt>
      <trkpt lat="46.84005" lon="12.25127">
        <ele>1495.47</ele>
        <time>2017-03-01T13:40:51Z</time>
      </trkpt>
      <trkpt lat="46.84017" lon="12.25101">
        <ele>1493.55</ele>
        <time>2017-03-01T13:40:55Z</time>
      </trkpt>
      <trkpt lat="46.84034" lon="12.25061">
        <ele>1490.66</ele>
        <time>2017-03-01T13:41:02Z</time>
      </trkpt>
      <trkpt lat="46.8405" lon="12.25027">
        <ele>1487.78</ele>
        <time>2017-03-01T13:41:10Z</time>
      </trkpt>
      <trkpt lat="46.8405" lon="12.25024">
        <ele>1487.3</ele>
        <time>2017-03-01T13:41:11Z</time>
      </trkpt>
      <trkpt lat="46.84049" lon="12.24992">
        <ele>1484.89</ele>
        <time>2017-03-01T13:41:20Z</time>
      </trkpt>
      <trkpt lat="46.84051" lon="12.24985">
        <ele>1484.89</ele>
        <time>2017-03-01T13:41:33Z</time>
      </trkpt>
      <trkpt lat="46.84055" lon="12.24981">
        <ele>1484.41</ele>
        <time>2017-03-01T13:41:46Z</time>
      </trkpt>
      <trkpt lat="46.84057" lon="12.24977">
        <ele>1483.93</ele>
        <time>2017-03-01T13:41:52Z</time>
      </trkpt>
      <trkpt lat="46.84058" lon="12.24975">
        <ele>1483.45</ele>
        <time>2017-03-01T13:41:53Z</time>
      </trkpt>
      <trkpt lat="46.84058" lon="12.24973">
        <ele>1483.93</ele>
        <time>2017-03-01T13:41:54Z</time>
      </trkpt>
      <trkpt lat="46.84059" lon="12.24971">
        <ele>1483.45</ele>
        <time>2017-03-01T13:41:55Z</time>
      </trkpt>
      <trkpt lat="46.8406" lon="12.24968">
        <ele>1484.41</ele>
        <time>2017-03-01T13:41:56Z</time>
      </trkpt>
      <trkpt lat="46.8407" lon="12.24941">
        <ele>1481.53</ele>
        <time>2017-03-01T13:42:04Z</time>
      </trkpt>
      <trkpt lat="46.84088" lon="12.24914">
        <ele>1479.13</ele>
        <time>2017-03-01T13:42:11Z</time>
      </trkpt>
      <trkpt lat="46.84105" lon="12.2489">
        <ele>1476.24</ele>
        <time>2017-03-01T13:42:16Z</time>
      </trkpt>
      <trkpt lat="46.84123" lon="12.24866">
        <ele>1473.84</ele>
        <time>2017-03-01T13:42:21Z</time>
      </trkpt>
      <trkpt lat="46.84127" lon="12.24863">
        <ele>1472.88</ele>
        <time>2017-03-01T13:42:22Z</time>
      </trkpt>
      <trkpt lat="46.8413" lon="12.2486">
        <ele>1473.36</ele>
        <time>2017-03-01T13:42:23Z</time>
      </trkpt>
      <trkpt lat="46.84132" lon="12.24858">
        <ele>1472.88</ele>
        <time>2017-03-01T13:42:24Z</time>
      </trkpt>
      <trkpt lat="46.84136" lon="12.24851">
        <ele>1472.4</ele>
        <time>2017-03-01T13:42:34Z</time>
      </trkpt>
      <trkpt lat="46.84135" lon="12.24847">
        <ele>1473.36</ele>
        <time>2017-03-01T13:42:53Z</time>
      </trkpt>
      <trkpt lat="46.84135" lon="12.24843">
        <ele>1472.4</ele>
        <time>2017-03-01T13:43:04Z</time>
      </trkpt>
      <trkpt lat="46.84135" lon="12.2484">
        <ele>1472.4</ele>
        <time>2017-03-01T13:43:16Z</time>
      </trkpt>
      <trkpt lat="46.84135" lon="12.24839">
        <ele>1472.88</ele>
        <time>2017-03-01T13:43:34Z</time>
      </trkpt>
      <trkpt lat="46.84135" lon="12.24836">
        <ele>1473.36</ele>
        <time>2017-03-01T13:43:46Z</time>
      </trkpt>
      <trkpt lat="46.84134" lon="12.24836">
        <ele>1471.44</ele>
        <time>2017-03-01T13:43:59Z</time>
      </trkpt>
      <trkpt lat="46.84134" lon="12.24837">
        <ele>1471.44</ele>
        <time>2017-03-01T13:44:29Z</time>
      </trkpt>
      <trkpt lat="46.84134" lon="12.24836">
        <ele>1470.95</ele>
        <time>2017-03-01T13:44:59Z</time>
      </trkpt>
      <trkpt lat="46.84134" lon="12.24837">
        <ele>1470.95</ele>
        <time>2017-03-01T13:45:30Z</time>
      </trkpt>
      <trkpt lat="46.84136" lon="12.24838">
        <ele>1470.95</ele>
        <time>2017-03-01T13:46:01Z</time>
      </trkpt>
      <trkpt lat="46.84137" lon="12.24837">
        <ele>1471.44</ele>
        <time>2017-03-01T13:46:16Z</time>
      </trkpt>
      <trkpt lat="46.84135" lon="12.24838">
        <ele>1471.44</ele>
        <time>2017-03-01T13:46:35Z</time>
      </trkpt>
    </trkseg>
  </trk>
</gpx>